[[{"header":{"parameterUnit":"m.s-1","parameterCategory":1,"la1":31.0,"la2":29.5877,"lo1":-88.7671,"lo2":-86.6584,"dy":0.0162,"dx":0.0185,"nx":115,"ny":88,"refTime":"2023-02-28T06:00:00:Z","depth":0,"parameterNumber":2,"parameterNumberName":"U-component_of_WINDS"},"data":[0.0,0.0,0.0,0.0,0.0,0.0,0.0,0.0,0.0,0.0,0.0,0.0,0.0,0.0,0.0,0.0,0.0,0.0,0.0,0.0,0.0,0.0,0.0,0.0,0.0,0.0,0.0,0.0,0.0,0.0,0.0,0.0,0.0,0.0,0.0,0.0,0.0,0.0,0.0,0.0,0.0,0.0,0.0,0.0,0.0,0.0,0.0,0.0,0.0,0.0,0.0,0.0,0.0,0.0,0.0,0.0,0.0,0.0,0.0,0.0,0.0,0.0,0.0,0.0,0.0,0.0,0.0,0.0,0.0,0.0,0.0,0.0,0.0,0.0,0.0,0.0,0.0,0.0,0.0,0.0,0.0,0.0,0.0,0.0,0.0,0.0,0.0,0.0,0.0,0.0,0.0,0.0,0.0,0.0,0.0,0.0,0.0,0.0,0.0,0.0,0.0,0.0,0.0,0.0,0.0,0.0,0.0,0.0,0.0,0.0,0.0,0.0,0.0,0.0,0.0,0.0,0.0,0.0,0.0,0.0,0.0,0.0,0.0,0.0,0.0,0.0,0.0,0.0,0.0,0.0,0.0,0.0,0.0,0.0,0.0,0.0,0.0,0.0,0.0,0.0,0.0,0.0,0.0,0.0,0.0,0.0,0.0,0.0,0.0,0.0,0.0,0.0,0.0,0.0,0.0,0.0,0.0,0.0,0.0,0.0,0.0,0.0,0.0,0.0,0.0,0.0,0.0,0.0,0.0,0.0,0.0,0.0,0.0,0.0,0.0,0.0,0.0,0.0,0.0,0.0,0.0,0.0,0.0,0.0,0.0,0.0,0.0,0.0,0.0,0.0,0.0,0.0,0.0,0.0,0.0,0.0,0.0,0.0,0.0,0.0,0.0,0.0,0.0,0.0,0.0,0.0,0.0,0.0,0.0,0.0,0.0,0.0,0.0,0.0,0.0,0.0,0.0,0.0,0.0,0.0,0.0,0.0,0.0,0.0,0.0,0.0,0.0,0.0,0.0,0.0,0.0,0.0,0.0,0.0,0.0,0.0,0.0,0.0,0.0,0.0,0.0,0.0,0.0,0.0,0.0,0.0,0.0,0.0,0.0,0.0,0.0,0.0,0.0,0.0,0.0,0.0,0.0,0.0,0.0,0.0,0.0,0.0,0.0,0.0,0.0,0.0,0.0,0.0,0.0,0.0,0.0,0.0,0.0,0.0,0.0,0.0,0.0,0.0,0.0,0.0,0.0,0.0,0.0,0.0,0.0,0.0,0.0,0.0,0.0,0.0,0.0,0.0,0.0,0.0,0.0,0.0,0.0,0.0,0.0,0.0,0.0,0.0,0.0,0.0,0.0,0.0,0.0,0.0,0.0,0.0,0.0,0.0,0.0,0.0,0.0,0.0,0.0,0.0,0.0,0.0,0.0,0.0,0.0,0.0,0.0,0.0,0.0,0.0,0.0,0.0,0.0,0.0,0.0,0.0,0.0,0.0,0.0,0.0,0.0,0.0,0.0,0.0,0.0,0.0,0.0,0.0,0.0,0.0,0.0,0.0,0.0,0.0,0.0,0.0,0.0,0.0,0.0,0.0,0.0,0.0,0.0,0.0,0.0,0.0,0.0,0.0,0.0,0.0,0.0,0.0,0.0,0.0,0.0,0.0,0.0,0.0,0.0,0.0,0.0,0.0,0.0,0.0,0.0,0.0,0.0,0.0,0.0,0.0,0.0,0.0,0.0,0.0,0.0,0.0,0.0,0.0,0.0,0.0,0.0,0.0,0.0,0.0,0.0,0.0,0.0,0.0,0.0,0.0,0.0,0.0,0.0,0.0,0.0,0.0,0.0,0.0,0.0,0.0,0.0,0.0,0.0,0.0,0.0,0.0,0.0,0.0,0.0,0.0,0.0,0.0,0.0,0.0,0.0,0.0,0.0,0.0,0.0,0.0,0.0,0.0,0.0,0.0,0.0,0.0,0.0,0.0,0.0,0.0,0.0,0.0,0.0,0.0,0.0,0.0,0.0,0.0,0.0,0.0,0.0,0.0,0.0,0.0,0.0,0.0,0.0,0.0,0.0,0.0,0.0,0.0,0.0,0.0,0.0,0.0,0.0,0.0,0.0,0.0,0.0,0.0,0.0,0.0,0.0,0.0,0.0,0.0,0.0,0.0,0.0,0.0,0.0,0.0,0.0,0.0,0.0,0.0,0.0,0.0,0.0,0.0,0.0,0.0,0.0,0.0,0.0,0.0,0.0,0.0,0.0,0.0,0.0,0.0,0.0,0.0,0.0,0.0,0.0,0.0,0.0,0.0,0.0,0.0,0.0,0.0,0.0,0.0,0.0,0.0,0.0,0.0,0.0,0.0,0.0,0.0,0.0,0.0,0.0,0.0,0.0,0.0,0.0,0.0,0.0,0.0,0.0,0.0,0.0,0.0,0.0,0.0,0.0,0.0,0.0,0.0,0.0,0.0,0.0,0.0,0.0,0.0,0.0,0.0,0.0,0.0,0.0,0.0,0.0,0.0,0.0,0.0,0.0,0.0,0.0,0.0,0.0,0.0,0.0,0.0,0.0,0.0,0.0,0.0,0.0,0.0,0.0,0.0,0.0,0.0,0.0,0.0,0.0,0.0,0.0,0.0,0.0,0.0,0.0,0.0,0.0,0.0,0.0,0.0,0.0,0.0,0.0,0.0,0.0,0.0,0.0,0.0,0.0,0.0,0.0,0.0,0.0,0.0,0.0,0.0,0.0,0.0,0.0,0.0,0.0,0.0,0.0,0.0,0.0,0.0,0.0,0.0,0.0,0.0,0.0,0.0,0.0,0.0,0.0,0.0,0.0,0.0,0.0,0.0,0.0,0.0,0.0,0.0,0.0,0.0,0.0,0.0,0.0,0.0,0.0,0.0,0.0,0.0,0.0,0.0,0.0,0.0,0.0,0.0,0.0,0.0,0.0,0.0,0.0,0.0,0.0,0.0,0.0,0.0,0.0,0.0,0.0,0.0,0.0,0.0,0.0,0.0,0.0,0.0,0.0,0.0,0.0,0.0,0.0,0.0,0.0,0.0,0.0,0.0,0.0,0.0,0.0,0.0,0.0,0.0,0.0,0.0,0.0,0.0,0.0,0.0,0.0,0.0,0.0,0.0,0.0,0.0,0.0,0.0,0.0,0.0,0.0,0.0,0.0,0.0,0.0,0.0,0.0,0.0,0.0,0.0,0.0,0.0,0.0,0.0,0.0,0.0,0.0,0.0,0.0,0.0,0.0,0.0,0.0,0.0,0.0,0.0,0.0,0.0,0.0,0.0,0.0,0.0,0.0,0.0,0.0,0.0,0.0,0.0,0.0,0.0,0.0,0.0,0.0,0.0,0.0,0.0,0.0,0.0,0.0,0.0,0.0,0.0,0.0,0.0,0.0,0.0,0.0,0.0,0.0,0.0,0.0,0.0,0.0,0.0,0.0,0.0,0.0,0.0,0.0,0.0,0.0,0.0,0.0,0.0,0.0,0.0,0.0,0.0,0.0,0.0,0.0,0.0,0.0,0.0,0.0,0.0,0.0,0.0,0.0,0.0,0.0,0.0,0.0,0.0,0.0,0.0,0.0,0.0,0.0,0.0,0.0,0.0,0.0,0.0,0.0,0.0,0.0,0.0,0.0,0.0,0.0,0.0,0.0,0.0,0.0,0.0,0.0,0.0,0.0,0.0,0.0,0.0,0.0,0.0,0.0,0.0,0.0,0.0,0.0,0.0,0.0,0.0,0.0,0.0,0.0,0.0,0.0,0.0,0.0,0.0,0.0,0.0,0.0,0.0,0.0,0.0,0.0,0.0,0.0,0.0,0.0,0.0,0.0,0.0,0.0,0.0,0.0,0.0,0.0,0.0,0.0,0.0,0.0,0.0,0.0,0.0,0.0,0.0,0.0,0.0,0.0,0.0,0.0,0.0,0.0,0.0,0.0,0.0,0.0,0.0,0.0,0.0,0.0,0.0,0.0,0.0,0.0,0.0,0.0,0.0,0.0,0.0,0.0,0.0,0.0,0.0,0.0,0.0,0.0,0.0,0.0,0.0,0.0,0.0,0.0,0.0,0.0,0.0,0.0,0.0,0.0,0.0,0.0,0.0,0.0,0.0,0.0,0.0,0.0,0.0,0.0,0.0,0.0,0.0,0.0,0.0,0.0,0.0,0.0,0.0,0.0,0.0,0.0,0.0,0.0,0.0,0.0,0.0,0.0,0.0,0.0,0.0,0.0,0.0,0.0,0.0,0.0,0.0,0.0,0.0,0.0,0.0,1.9279,0.0,0.0,0.0,0.0,0.0,0.0,0.0,0.0,0.0,0.0,0.0,0.0,0.0,0.0,0.0,0.0,0.0,0.0,0.0,0.0,0.0,0.0,0.0,0.0,0.0,0.0,0.0,0.0,0.0,0.0,0.0,0.0,0.0,0.0,0.0,0.0,0.0,0.0,0.0,0.0,0.0,0.0,0.0,0.0,0.0,0.0,0.0,0.0,0.0,0.0,0.0,0.0,0.0,0.0,0.0,0.0,0.0,0.0,0.0,0.0,0.0,0.0,0.0,0.0,0.0,0.0,0.0,0.0,0.0,0.0,0.0,0.0,0.0,0.0,0.0,0.0,0.0,0.0,0.0,0.0,0.0,0.0,0.0,0.0,0.0,0.0,0.0,0.0,0.0,0.0,0.0,0.0,0.0,0.0,0.0,0.0,0.0,0.0,0.0,0.0,0.0,0.0,0.0,0.0,0.0,0.0,0.0,0.0,0.0,0.0,1.8934,1.8987,1.8987,1.8934,1.8869,0.0,0.0,0.0,0.0,0.0,0.0,0.0,0.0,0.0,0.0,0.0,0.0,0.0,0.0,0.0,0.0,0.0,0.0,0.0,0.0,0.0,0.0,0.0,0.0,0.0,0.0,0.0,0.0,0.0,0.0,0.0,0.0,0.0,0.0,0.0,0.0,0.0,0.0,0.0,0.0,0.0,0.0,0.0,0.0,0.0,0.0,0.0,0.0,0.0,0.0,0.0,0.0,0.0,0.0,0.0,0.0,0.0,0.0,0.0,0.0,0.0,0.0,0.0,0.0,0.0,0.0,0.0,0.0,0.0,0.0,0.0,0.0,0.0,0.0,0.0,0.0,0.0,0.0,0.0,0.0,0.0,0.0,0.0,0.0,0.0,0.0,0.0,0.0,0.0,0.0,0.0,0.0,0.0,0.0,0.0,0.0,0.0,0.0,0.0,0.0,0.0,0.0,0.0,0.0,0.0,0.0,0.0,0.0,0.0,0.0,0.0,0.0,1.8614,1.856,1.856,0.0,0.0,0.0,0.0,0.0,0.0,0.0,0.0,0.0,0.0,0.0,0.0,0.0,0.0,0.0,0.0,0.0,0.0,0.0,0.0,0.0,0.0,0.0,0.0,0.0,0.0,0.0,0.0,0.0,0.0,0.0,0.0,0.0,0.0,0.0,0.0,0.0,0.0,0.0,0.0,0.0,0.0,0.0,0.0,0.0,0.0,0.0,0.0,0.0,0.0,0.0,0.0,0.0,0.0,0.0,0.0,0.0,0.0,0.0,0.0,0.0,0.0,0.0,0.0,0.0,0.0,0.0,0.0,0.0,0.0,0.0,0.0,0.0,0.0,0.0,0.0,0.0,0.0,0.0,0.0,0.0,0.0,0.0,0.0,0.0,0.0,0.0,0.0,0.0,0.0,0.0,0.0,0.0,0.0,0.0,0.0,0.0,0.0,0.0,0.0,0.0,0.0,0.0,0.0,0.0,0.0,0.0,0.0,0.0,0.0,1.8476,1.8614,1.8614,0.0,1.8422,0.0,0.0,0.0,0.0,0.0,0.0,0.0,0.0,0.0,0.0,0.0,0.0,0.0,0.0,0.0,0.0,0.0,0.0,0.0,0.0,0.0,0.0,0.0,0.0,0.0,0.0,0.0,0.0,0.0,0.0,0.0,0.0,0.0,0.0,0.0,0.0,0.0,0.0,0.0,0.0,0.0,0.0,0.0,0.0,0.0,0.0,0.0,0.0,0.0,0.0,0.0,0.0,0.0,0.0,0.0,0.0,0.0,0.0,0.0,0.0,0.0,0.0,0.0,0.0,0.0,0.0,0.0,0.0,0.0,0.0,0.0,0.0,0.0,0.0,0.0,0.0,0.0,0.0,0.0,0.0,0.0,0.0,0.0,0.0,0.0,0.0,0.0,0.0,0.0,0.0,0.0,0.0,0.0,0.0,0.0,0.0,0.0,0.0,0.0,0.0,0.0,0.0,0.0,0.0,0.0,0.0,0.0,0.0,0.0,0.0,1.8073,1.8084,1.8073,1.8041,0.0,0.0,0.0,0.0,0.0,0.0,0.0,0.0,0.0,0.0,0.0,0.0,0.0,0.0,0.0,0.0,0.0,0.0,0.0,0.0,0.0,0.0,0.0,0.0,0.0,0.0,0.0,0.0,0.0,0.0,0.0,0.0,0.0,0.0,0.0,0.0,0.0,0.0,0.0,0.0,0.0,0.0,0.0,0.0,0.0,0.0,0.0,0.0,0.0,0.0,0.0,0.0,0.0,0.0,0.0,0.0,0.0,0.0,0.0,0.0,0.0,0.0,0.0,0.0,0.0,0.0,0.0,0.0,0.0,0.0,0.0,0.0,0.0,0.0,0.0,0.0,0.0,0.0,0.0,0.0,0.0,0.0,0.0,0.0,0.0,0.0,0.0,0.0,0.0,0.0,0.0,0.0,0.0,0.0,0.0,0.0,0.0,0.0,0.0,0.0,0.0,0.0,0.0,0.0,0.0,0.0,0.0,0.0,0.0,0.0,1.7854,1.781,1.7711,1.7711,1.7711,1.7711,0.0,0.0,0.0,0.0,0.0,0.0,0.0,0.0,0.0,0.0,0.0,0.0,0.0,0.0,0.0,0.0,0.0,0.0,0.0,0.0,0.0,0.0,0.0,0.0,0.0,0.0,0.0,0.0,0.0,0.0,0.0,0.0,0.0,0.0,0.0,0.0,0.0,0.0,0.0,0.0,0.0,0.0,0.0,0.0,0.0,0.0,0.0,0.0,0.0,0.0,0.0,0.0,0.0,0.0,0.0,0.0,0.0,0.0,0.0,0.0,0.0,0.0,0.0,0.0,0.0,0.0,0.0,0.0,0.0,0.0,0.0,0.0,0.0,0.0,0.0,0.0,0.0,0.0,0.0,0.0,0.0,0.0,0.0,0.0,0.0,0.0,0.0,0.0,0.0,0.0,0.0,0.0,0.0,0.0,0.0,0.0,0.0,0.0,0.0,0.0,0.0,0.0,0.0,0.0,0.0,0.0,0.0,0.0,1.7711,1.7711,1.7711,1.7711,1.7711,1.7711,0.0,0.0,0.0,0.0,0.0,0.0,0.0,0.0,0.0,0.0,0.0,0.0,0.0,0.0,0.0,0.0,0.0,0.0,0.0,0.0,0.0,0.0,0.0,0.0,0.0,0.0,0.0,0.0,0.0,0.0,0.0,0.0,0.0,0.0,0.0,0.0,0.0,0.0,0.0,0.0,0.0,0.0,0.0,0.0,0.0,0.0,0.0,0.0,0.0,0.0,0.0,0.0,0.0,0.0,0.0,0.0,0.0,0.0,0.0,0.0,0.0,0.0,0.0,0.0,0.0,0.0,0.0,0.0,0.0,0.0,0.0,0.0,0.0,0.0,0.0,0.0,0.0,0.0,0.0,0.0,0.0,0.0,0.0,0.0,0.0,0.0,0.0,0.0,0.0,0.0,0.0,0.0,0.0,0.0,0.0,0.0,0.0,0.0,0.0,0.0,0.0,0.0,0.0,0.0,0.0,0.0,0.0,0.0,0.0,1.759,1.749,1.7445,1.7434,1.7312,1.7245,0.0,0.0,0.0,0.0,0.0,0.0,0.0,0.0,0.0,0.0,0.0,0.0,0.0,0.0,0.0,0.0,0.0,0.0,0.0,0.0,0.0,0.0,0.0,0.0,0.0,0.0,0.0,0.0,0.0,0.0,0.0,0.0,0.0,0.0,0.0,0.0,0.0,0.0,0.0,0.0,0.0,0.0,0.0,0.0,0.0,0.0,0.0,0.0,0.0,0.0,0.0,0.0,0.0,0.0,0.0,0.0,0.0,0.0,0.0,0.0,0.0,0.0,0.0,0.0,0.0,0.0,0.0,0.0,0.0,0.0,0.0,0.0,0.0,0.0,0.0,0.0,0.0,0.0,0.0,0.0,0.0,0.0,0.0,0.0,0.0,0.0,0.0,0.0,0.0,0.0,0.0,0.0,0.0,0.0,0.0,0.0,0.0,0.0,0.0,0.0,0.0,0.0,0.0,0.0,0.0,0.0,0.0,0.0,0.0,1.7357,0.0,1.7155,1.7099,1.6976,1.6899,0.0,0.0,0.0,0.0,0.0,0.0,0.0,0.0,0.0,0.0,0.0,0.0,0.0,0.0,0.0,0.0,0.0,0.0,0.0,0.0,0.0,0.0,0.0,0.0,0.0,0.0,0.0,0.0,0.0,0.0,0.0,0.0,0.0,0.0,0.0,0.0,0.0,0.0,0.0,0.0,0.0,0.0,0.0,0.0,0.0,0.0,0.0,0.0,0.0,0.0,0.0,0.0,0.0,0.0,0.0,0.0,0.0,0.0,0.0,0.0,0.0,0.0,0.0,0.0,0.0,0.0,0.0,0.0,0.0,0.0,0.0,0.0,0.0,0.0,0.0,0.0,0.0,0.0,0.0,0.0,0.0,0.0,0.0,0.0,0.0,0.0,0.0,0.0,0.0,0.0,0.0,0.0,0.0,0.0,0.0,0.0,0.0,0.0,0.0,0.0,0.0,0.0,0.0,0.0,0.0,0.0,0.0,0.0,1.72,1.7022,1.6864,1.6818,1.6818,1.6637,1.6581,0.0,0.0,0.0,0.0,0.0,0.0,0.0,0.0,0.0,0.0,0.0,0.0,0.0,0.0,0.0,0.0,0.0,0.0,0.0,0.0,0.0,0.0,0.0,0.0,0.0,0.0,0.0,0.0,0.0,0.0,0.0,0.0,0.0,0.0,0.0,0.0,0.0,0.0,0.0,0.0,0.0,0.0,0.0,0.0,0.0,0.0,0.0,0.0,0.0,0.0,0.0,0.0,0.0,0.0,0.0,0.0,0.0,0.0,0.0,0.0,0.0,0.0,0.0,0.0,0.0,0.0,0.0,0.0,0.0,0.0,0.0,0.0,0.0,0.0,0.0,0.0,0.0,0.0,0.0,0.0,0.0,0.0,0.0,0.0,0.0,0.0,0.0,0.0,0.0,0.0,0.0,0.0,0.0,0.0,0.0,0.0,0.0,0.0,0.0,0.0,0.0,0.0,0.0,0.0,0.0,0.0,0.0,0.0,0.0,1.674,1.6684,1.6581,1.6467,1.6228,1.6104,0.0,0.0,0.0,0.0,0.0,0.0,0.0,0.0,0.0,0.0,0.0,0.0,0.0,0.0,0.0,0.0,0.0,0.0,0.0,0.0,0.0,0.0,0.0,0.0,0.0,0.0,0.0,0.0,0.0,0.0,0.0,0.0,0.0,0.0,0.0,0.0,0.0,0.0,0.0,0.0,0.0,0.0,0.0,0.0,0.0,0.0,0.0,0.0,0.0,0.0,0.0,0.0,0.0,0.0,0.0,0.0,0.0,0.0,0.0,0.0,0.0,0.0,0.0,0.0,0.0,0.0,0.0,0.0,0.0,0.0,0.0,0.0,0.0,0.0,0.0,0.0,0.0,0.0,0.0,0.0,0.0,0.0,0.0,0.0,0.0,0.0,0.0,0.0,0.0,0.0,0.0,0.0,0.0,0.0,0.0,0.0,0.0,0.0,0.0,0.0,0.0,0.0,0.0,0.0,0.0,0.0,0.0,0.0,0.0,1.6436,1.6392,1.6252,1.6145,1.59,1.5684,1.5478,0.0,0.0,0.0,0.0,0.0,0.0,0.0,0.0,0.0,0.0,0.0,0.0,0.0,0.0,0.0,0.0,0.0,0.0,0.0,0.0,0.0,0.0,0.0,0.0,0.0,0.0,0.0,0.0,0.0,0.0,0.0,0.0,0.0,0.0,0.0,0.0,0.0,0.0,0.0,0.0,0.0,0.0,0.0,0.0,0.0,0.0,0.0,0.0,0.0,0.0,0.0,0.0,0.0,0.0,0.0,0.0,0.0,0.0,0.0,0.0,0.0,0.0,0.0,0.0,0.0,0.0,0.0,0.0,0.0,0.0,0.0,0.0,0.0,0.0,0.0,0.0,0.0,0.0,0.0,0.0,0.0,0.0,0.0,0.0,0.0,0.0,0.0,0.0,0.0,0.0,0.0,0.0,0.0,0.0,0.0,0.0,0.0,0.0,0.0,0.0,0.0,0.0,0.0,0.0,0.0,0.0,0.0,0.0,1.6047,1.6033,1.5975,1.5823,1.5652,1.5294,0.0,0.0,0.0,0.0,0.0,0.0,0.0,0.0,0.0,0.0,0.0,0.0,0.0,0.0,0.0,0.0,0.0,0.0,0.0,0.0,0.0,0.0,0.0,0.0,0.0,0.0,0.0,0.0,0.0,0.0,0.0,0.0,0.0,0.0,0.0,0.0,0.0,0.0,0.0,0.0,0.0,0.0,0.0,0.0,0.0,0.0,0.0,0.0,0.0,0.0,0.0,0.0,0.0,0.0,0.0,0.0,0.0,0.0,0.0,0.0,0.0,0.0,0.0,0.0,0.0,0.0,0.0,0.0,0.0,0.0,0.0,0.0,0.0,0.0,0.0,0.0,0.0,0.0,0.0,0.0,0.0,0.0,0.0,0.0,0.0,0.0,0.0,0.0,0.0,0.0,0.0,0.0,0.0,0.0,0.0,0.0,0.0,0.0,0.0,0.0,0.0,0.0,0.0,0.0,0.0,0.0,0.0,0.0,0.0,1.5815,1.586,1.6026,1.6211,1.5435,1.495,0.0,0.0,0.0,0.0,0.0,0.0,0.0,0.0,0.0,0.0,0.0,0.0,0.0,0.0,0.0,0.0,0.0,0.0,0.0,0.0,0.0,0.0,0.0,0.0,0.0,0.0,0.0,0.0,0.0,0.0,0.0,0.0,0.0,0.0,0.0,0.0,0.0,0.0,0.0,0.0,0.0,0.0,0.0,0.0,0.0,0.0,0.0,0.0,0.0,0.0,0.0,0.0,0.0,0.0,0.0,0.0,0.0,0.0,0.0,0.0,0.0,0.0,0.0,0.0,0.0,0.0,0.0,0.0,0.0,0.0,0.0,0.0,0.0,0.0,0.0,0.0,0.0,0.0,0.0,0.0,0.0,0.0,0.0,0.0,0.0,0.0,0.0,0.0,0.0,0.0,0.0,0.0,0.0,0.0,0.0,0.0,0.0,0.0,0.0,0.0,0.0,0.0,0.0,0.0,0.0,0.0,0.0,0.0,1.5369,1.5413,1.5764,1.6029,1.6104,1.5166,1.4538,0.0,0.0,0.0,0.0,0.0,0.0,0.0,0.0,0.0,0.0,0.0,0.0,0.0,0.0,0.0,0.0,0.0,0.0,0.0,0.0,0.0,0.0,0.0,0.0,0.0,0.0,0.0,0.0,0.0,0.0,0.0,0.0,0.0,0.0,0.0,0.0,0.0,0.0,0.0,0.0,0.0,0.0,0.0,0.0,0.0,0.0,0.0,0.0,0.0,0.0,0.0,0.0,0.0,0.0,0.0,0.0,0.0,0.0,0.0,0.0,0.0,0.0,0.0,0.0,0.0,0.0,0.0,0.0,0.0,0.0,0.0,0.0,0.0,0.0,0.0,0.0,0.0,0.0,0.0,0.0,0.0,0.0,0.0,0.0,0.0,0.0,0.0,0.0,0.0,0.0,0.0,0.0,0.0,0.0,0.0,0.0,0.0,0.0,0.0,0.0,0.0,0.0,0.0,0.0,0.0,0.0,0.0,0.0,1.5105,1.4989,1.5568,1.5824,1.5523,1.4805,1.4069,0.0,0.0,0.0,0.0,0.0,0.0,0.0,0.0,0.0,0.0,0.0,0.0,0.0,0.0,0.0,0.0,0.0,0.0,0.0,0.0,0.0,0.0,0.0,0.0,0.0,0.0,0.0,0.0,0.0,0.0,0.0,0.0,0.0,0.0,0.0,0.0,0.0,0.0,0.0,0.0,0.0,0.0,0.0,0.0,0.0,0.0,0.0,0.0,0.0,0.0,0.0,0.0,0.0,0.0,0.0,0.0,0.0,0.0,0.0,0.0,0.0,0.0,0.0,0.0,0.0,0.0,0.0,0.0,0.0,0.0,0.0,0.0,0.0,0.0,0.0,0.0,0.0,0.0,0.0,0.0,0.0,0.0,0.0,0.0,0.0,0.0,0.0,0.0,0.0,0.0,0.0,0.0,0.0,0.0,0.0,0.0,0.0,0.0,0.0,0.0,0.0,0.0,0.0,0.0,0.0,0.0,0.0,0.0,1.4126,1.441,1.4629,1.4734,1.4643,1.4256,1.3829,0.0,0.0,0.0,0.0,0.0,0.0,0.0,0.0,0.0,0.0,0.0,0.0,0.0,0.0,0.0,0.0,0.0,0.0,0.0,0.0,0.0,0.0,0.0,0.0,0.0,0.0,0.0,0.0,0.0,0.0,0.0,0.0,0.0,0.0,0.0,0.0,0.0,0.0,0.0,0.0,0.0,0.0,0.0,0.0,0.0,0.0,0.0,0.0,1.4356,0.0,0.0,0.0,0.0,0.0,0.0,0.0,0.0,0.0,0.0,0.0,0.0,0.0,0.0,0.0,0.0,0.0,0.0,0.0,0.0,0.0,0.0,0.0,0.0,0.0,0.0,0.0,0.0,0.0,0.0,0.0,0.0,0.0,0.0,0.0,0.0,0.0,0.0,0.0,0.0,0.0,0.0,0.0,0.0,0.0,0.0,0.0,0.0,0.0,0.0,0.0,0.0,0.0,0.0,0.0,0.0,0.0,0.0,0.0,1.3181,1.3614,1.3655,1.3646,1.3822,1.3157,1.2886,0.0,0.0,0.0,0.0,0.0,0.0,0.0,0.0,0.0,0.0,0.0,0.0,0.0,0.0,0.0,0.0,0.0,0.0,0.0,0.0,0.0,0.0,0.0,0.0,0.0,0.0,0.0,0.0,0.0,0.0,0.0,0.0,0.0,0.0,0.0,0.0,0.0,0.0,0.0,0.0,0.0,0.0,0.0,0.0,0.0,0.0,0.0,0.0,0.0,0.0,0.0,0.0,0.0,0.0,0.0,0.0,0.0,0.0,0.0,0.0,0.0,0.0,0.0,0.0,0.0,0.0,0.0,0.0,0.0,0.0,0.0,0.0,0.0,0.0,0.0,0.0,0.0,0.0,0.0,0.0,0.0,0.0,0.0,0.0,0.0,0.0,0.0,0.0,0.0,0.0,0.0,0.0,0.0,0.0,0.0,0.0,0.0,0.0,0.0,0.0,0.0,0.0,0.0,0.0,0.0,0.0,0.0,1.2164,1.2209,1.2667,1.2499,1.2637,1.2857,1.1966,1.1611,1.1887,0.0,0.0,0.0,0.0,0.0,0.0,0.0,0.0,0.0,0.0,0.0,0.0,0.0,0.0,0.0,0.0,0.0,0.0,0.0,0.0,0.0,0.0,0.0,0.0,0.0,0.0,0.0,0.0,0.0,0.0,0.0,0.0,0.0,0.0,0.0,0.0,0.0,0.0,1.4937,1.4762,0.0,0.0,0.0,0.0,0.0,0.0,0.0,0.0,1.3042,0.0,0.0,0.0,0.0,0.0,0.0,0.0,0.0,0.0,0.0,0.0,0.0,0.0,0.0,0.0,0.0,0.0,0.0,0.0,0.0,0.0,0.0,0.0,0.0,0.0,0.0,0.0,0.0,0.0,0.0,0.0,0.0,0.0,0.0,0.0,0.0,0.0,0.0,0.0,0.0,0.0,0.0,0.0,0.0,0.0,0.0,0.0,0.0,0.0,0.0,0.0,0.0,0.0,0.0,0.0,0.0,1.1678,1.1224,1.1132,1.1577,1.1391,1.1343,1.1629,1.0942,1.0476,1.0116,0.0,0.0,0.0,0.0,0.0,0.0,0.0,0.0,0.0,0.0,0.0,0.0,0.0,0.0,0.0,0.0,0.0,0.0,0.0,0.0,0.0,0.0,0.0,0.0,0.0,0.0,0.0,0.0,0.0,0.0,0.0,0.0,0.0,0.0,0.0,0.0,0.0,0.0,0.0,1.4508,1.4324,0.0,0.0,0.0,0.0,0.0,0.0,0.0,0.0,1.2325,0.0,0.0,0.0,0.0,0.0,0.0,0.0,0.0,0.0,0.0,0.0,0.0,0.0,0.0,0.0,0.0,0.0,0.0,0.0,0.0,0.0,0.0,0.0,0.0,0.0,0.0,0.0,0.0,0.0,0.0,0.0,0.0,0.0,0.0,0.0,0.0,0.0,0.0,0.0,0.0,0.0,0.0,0.0,0.0,0.0,0.0,0.0,0.0,0.0,0.0,0.0,0.0,0.0,0.0,0.0,1.0754,1.0329,1.0248,1.0514,1.0294,1.0309,1.0594,0.9757,0.8919,0.0,0.0,0.0,0.0,0.0,0.0,0.0,0.0,0.0,0.0,0.0,0.0,0.0,0.0,0.0,0.0,0.0,0.0,0.0,0.0,0.0,0.0,0.0,0.0,0.0,0.0,0.0,0.0,0.0,0.0,0.0,0.0,0.0,0.0,0.0,0.0,0.0,0.0,0.0,0.0,1.417,1.4072,1.4204,0.0,0.0,0.0,0.0,0.0,0.0,1.2316,1.2119,0.0,0.0,0.0,0.0,0.0,0.0,0.0,0.0,0.0,0.0,0.0,0.0,0.0,0.0,0.0,0.0,0.0,0.0,0.0,0.0,0.0,0.0,0.0,0.0,0.0,0.0,0.0,0.0,0.0,0.0,0.0,0.0,0.0,0.0,0.0,0.0,0.0,0.0,0.0,0.0,0.0,0.0,0.0,0.0,0.0,0.0,0.0,0.0,0.0,0.0,0.0,0.0,0.0,0.0,0.0,0.9734,0.9364,0.9318,0.9575,0.917,0.9091,0.9367,0.8439,0.7409,0.0,0.0,0.0,0.0,0.0,0.0,0.0,0.0,0.0,0.0,0.0,0.0,0.0,0.0,0.0,0.0,0.0,0.0,0.0,0.0,0.0,0.0,0.0,0.0,0.0,0.0,0.0,0.0,0.0,0.0,0.0,0.0,0.0,0.0,0.0,0.0,0.0,0.0,0.0,0.0,0.0,1.3735,1.3965,1.3475,0.0,0.0,0.0,0.0,1.1943,1.2056,0.0,0.0,0.0,0.0,0.0,0.0,0.0,0.0,0.0,0.0,0.0,0.0,0.0,0.0,0.0,0.0,0.0,0.0,0.0,0.0,0.0,0.0,0.0,0.0,0.0,0.0,0.0,0.0,0.0,0.0,0.0,0.0,0.0,0.0,0.0,0.0,0.0,0.0,0.0,0.0,0.0,0.0,0.0,0.0,0.0,0.0,0.0,0.0,0.0,0.0,0.0,0.0,0.0,0.0,0.0,0.0,0.867,0.8277,0.8345,0.8723,0.8116,0.758,0.7404,0.7041,0.6485,0.0,0.0,0.0,0.0,0.0,0.0,0.0,0.0,0.0,0.0,0.0,0.0,0.0,0.0,0.0,0.0,0.0,0.0,0.0,0.0,0.0,0.0,0.0,0.0,0.0,0.0,0.0,0.0,0.0,0.0,0.0,0.0,0.0,0.0,0.0,0.0,0.0,0.0,0.0,0.0,0.0,1.3249,1.3493,1.3286,1.2833,0.0,0.0,1.249,1.1771,1.1859,0.0,0.0,0.0,0.0,0.0,0.0,0.0,0.0,0.0,0.0,0.0,0.0,0.0,0.0,0.0,0.0,0.0,0.0,0.0,0.0,0.0,0.0,0.0,0.0,0.0,0.0,0.0,0.0,0.0,0.0,0.0,0.0,0.0,0.0,0.0,0.0,0.0,0.0,0.0,0.0,0.0,0.0,0.0,0.0,0.0,0.0,0.0,0.0,0.0,0.0,0.0,0.0,0.0,0.0,0.0,0.7978,0.7693,0.7597,0.7446,0.7309,0.7051,0.6694,0.634,0.609,0.5575,0.0,0.0,0.0,0.0,0.0,0.0,0.0,0.0,0.0,0.0,0.0,0.0,0.0,0.0,0.0,0.0,0.0,0.0,0.0,0.0,0.0,0.0,0.0,0.0,0.0,0.0,0.0,0.0,0.0,0.0,0.0,0.0,0.0,0.0,0.0,0.0,0.0,0.0,0.0,0.0,0.0,0.0,1.2817,1.2897,0.0,0.0,0.0,1.2041,1.1228,0.0,0.0,0.0,0.0,0.0,0.0,0.0,0.0,0.0,0.0,0.0,0.0,0.0,0.0,0.0,0.0,0.0,0.0,0.0,0.0,0.0,0.0,0.0,0.0,0.0,0.0,0.0,0.0,0.0,0.0,0.0,0.0,0.0,0.0,0.0,0.0,0.0,0.0,0.0,0.0,0.0,0.0,0.0,0.0,0.0,0.0,0.0,0.0,0.0,0.0,0.0,0.0,0.0,0.0,0.0,0.0,0.0,0.6707,0.6785,0.6671,0.6245,0.6074,0.5897,0.545,0.5349,0.0,0.0,0.0,0.0,0.0,0.0,0.0,0.0,0.0,0.0,0.0,0.0,0.0,0.0,0.0,0.0,0.0,0.0,0.0,0.0,0.0,0.0,0.0,0.0,0.0,0.0,0.0,0.9995,0.0,0.0,0.0,0.0,0.0,0.0,0.0,0.0,0.0,0.0,0.0,0.0,0.0,0.0,1.2537,1.2172,1.2444,1.2465,0.0,0.0,1.1576,1.075,1.1087,1.109,0.0,0.0,0.0,0.0,0.0,0.0,0.0,0.0,0.0,0.0,0.0,0.0,0.0,0.0,0.0,0.0,0.0,0.0,0.0,0.0,0.0,0.0,0.0,0.0,0.0,0.0,0.0,0.0,0.0,0.0,0.0,0.0,0.0,0.0,0.0,0.0,0.0,0.0,0.0,0.0,0.0,0.0,0.0,0.0,0.0,0.0,0.0,0.0,0.0,0.0,0.0,0.0,0.0,0.0,0.6383,0.5935,0.5725,0.5735,0.5722,0.528,0.5008,0.4828,0.4816,0.4703,0.0,0.0,0.0,0.0,0.0,0.0,0.0,0.0,0.0,0.0,0.0,0.0,0.0,0.0,0.0,0.0,0.0,0.0,0.0,0.0,0.0,0.0,0.0,0.0,0.0,0.0,0.0,0.0,0.0,0.0,0.0,0.0,0.0,0.0,0.0,0.0,0.0,0.0,0.0,0.0,0.0,1.182,1.1656,1.1923,1.2045,0.0,1.1386,1.1081,1.0704,1.0874,1.0714,0.9836,0.0,0.0,0.0,0.0,0.0,0.0,0.0,0.0,0.0,0.0,0.0,0.0,0.0,0.0,0.0,0.0,0.0,0.0,0.0,0.0,0.0,0.0,0.0,0.0,0.0,0.0,0.0,0.0,0.0,0.0,0.0,0.0,0.0,0.0,0.0,0.0,0.0,0.0,0.0,0.0,0.0,0.0,0.0,0.0,0.0,0.0,0.0,0.0,0.0,0.0,0.0,0.0,0.0,0.5504,0.5162,0.5159,0.5142,0.5097,0.4926,0.4656,0.43,0.4216,0.3982,0.0,0.0,0.0,0.0,0.0,0.0,0.0,0.0,0.0,0.0,0.0,0.0,0.0,0.0,0.0,0.0,0.0,0.0,0.0,0.0,0.0,0.0,0.0,0.0,0.0,0.0,0.0,0.0,0.9571,0.9645,0.9612,0.0,0.0,0.0,0.0,0.0,0.0,0.0,0.0,0.0,0.0,1.1335,1.1313,1.1597,0.0,0.0,1.073,1.0491,1.011,0.9947,0.9779,0.928,0.8811,0.0,0.0,0.0,0.0,0.0,0.0,0.0,0.0,0.0,0.0,0.0,0.0,0.0,0.0,0.0,0.0,0.0,0.0,0.0,0.0,0.0,0.0,0.0,0.0,0.0,0.0,0.0,0.0,0.0,0.0,0.0,0.0,0.0,0.0,0.0,0.0,0.0,0.0,0.0,0.0,0.0,0.0,0.0,0.0,0.0,0.0,0.0,0.0,0.0,0.0,0.0,0.0,0.4694,0.4384,0.451,0.4543,0.4389,0.4391,0.4214,0.3855,0.3802,0.3612,0.0,0.0,0.0,0.0,0.0,0.0,0.0,0.0,0.0,0.0,0.0,0.0,0.0,0.0,0.0,0.0,0.0,0.0,0.0,0.0,0.0,0.0,0.0,0.0,0.0,0.0,0.0,0.0,0.9135,0.9113,0.9069,0.0,0.0,0.0,0.0,0.0,0.0,0.0,0.0,0.0,0.0,1.0835,1.0704,1.0963,1.0869,1.0211,0.9902,0.9669,0.9418,0.928,0.9032,0.876,0.0,0.0,0.0,0.0,0.0,0.0,0.0,0.0,0.0,0.0,0.0,0.0,0.0,0.0,0.0,0.0,0.0,0.0,0.0,0.0,0.0,0.0,0.0,0.0,0.0,0.0,0.0,0.5935,0.0,0.0,0.6465,0.0,0.0,0.0,0.0,0.0,0.0,0.0,0.0,0.0,0.0,0.0,0.0,0.0,0.0,0.0,0.0,0.0,0.0,0.0,0.0,0.0,0.0,0.3955,0.3682,0.3777,0.3692,0.3671,0.3587,0.3676,0.3587,0.3585,0.3512,0.3276,0.0,0.0,0.0,0.0,0.0,0.0,0.0,0.0,0.0,0.0,0.0,0.0,0.0,0.0,0.0,0.0,0.0,0.0,0.0,0.0,0.0,0.0,0.0,0.0,0.0,0.0,0.8108,0.8194,0.8316,0.0,0.0,0.0,0.0,0.0,0.0,0.0,0.0,0.0,0.941,1.0054,1.0272,0.9739,0.9842,0.9831,0.9264,0.893,0.8702,0.8733,0.8686,0.8686,0.0,0.0,0.0,0.0,0.0,0.0,0.0,0.0,0.0,0.0,0.0,0.0,0.0,0.0,0.0,0.0,0.0,0.0,0.0,0.0,0.0,0.0,0.0,0.0,0.0,0.0,0.0,0.4056,0.4532,0.0,0.0,0.0,0.0,0.0,0.0,0.0,0.0,0.0,0.0,0.0,0.5874,0.5417,0.0,0.0,0.0,0.0,0.0,0.0,0.0,0.0,0.0,0.0,0.0,0.0,0.3436,0.3295,0.3451,0.3521,0.3582,0.3587,0.3496,0.3315,0.3315,0.3164,0.2946,0.0,0.0,0.0,0.0,0.0,0.0,0.0,0.0,0.0,0.0,0.0,0.0,0.0,0.0,0.0,0.0,0.0,0.0,0.0,0.0,0.0,0.0,0.0,0.0,0.0,0.7952,0.0,0.0,0.0,0.0,0.0,0.0,0.0,0.0,0.0,0.0,0.0,0.9092,0.9107,0.9357,0.9451,0.9266,0.9366,0.9292,0.0,0.0,0.0,0.0,0.0,0.0,0.0,0.0,0.0,0.0,0.0,0.0,0.0,0.0,0.6492,0.6294,0.6259,0.6126,0.6146,0.0,0.0,0.0,0.0,0.0,0.0,0.0,0.0,0.0,0.0,0.0,0.0,0.0,0.0,0.2889,0.3283,0.3596,0.0,0.0,0.0,0.0,0.0,0.0,0.0,0.0,0.4925,0.4876,0.4755,0.4356,0.4117,0.0,0.3712,0.3856,0.0,0.0,0.0,0.0,0.0,0.0,0.0,0.0,0.2829,0.2869,0.3027,0.3166,0.3277,0.3307,0.3229,0.3139,0.3139,0.3012,0.2758,0.2761,0.2739,0.0,0.0,0.0,0.0,0.0,0.0,0.0,0.0,0.0,0.0,0.0,0.0,0.0,0.0,0.0,0.0,0.0,0.0,0.0,0.0,0.0,0.0,0.0,0.7874,0.0,0.0,0.0,0.0,0.0,0.0,0.0,0.0,0.0,0.8442,0.8629,0.8782,0.8832,0.8951,0.8918,0.8716,0.0,0.0,0.0,0.0,0.0,0.0,0.0,0.7497,0.7292,0.7251,0.7082,0.6866,0.6754,0.6702,0.6702,0.0,0.0,0.6378,0.625,0.6182,0.6105,0.5877,0.571,0.5624,0.5293,0.4959,0.0,0.0,0.0,0.0,0.0,0.0,0.0,0.0,0.1539,0.1806,0.0,0.2462,0.0,0.0,0.0,0.0,0.3649,0.4031,0.0,0.0,0.3936,0.3818,0.367,0.326,0.3013,0.3006,0.2708,0.2646,0.2655,0.3104,0.0,0.0,0.0,0.0,0.0,0.0,0.2068,0.2352,0.2439,0.2551,0.2783,0.2843,0.2875,0.2875,0.2875,0.2873,0.2869,0.2934,0.3034,0.3025,0.3315,0.0,0.0,0.0,0.0,0.0,0.0,0.0,0.0,0.0,0.0,0.0,0.0,0.0,0.0,0.0,0.0,0.0,0.0,0.0,0.0,0.7655,0.0,0.0,0.0,0.0,0.0,0.0,0.0,0.0,0.0,0.0,0.8208,0.8365,0.8407,0.8562,0.0,0.0,0.0,0.0,0.7805,0.7017,0.6961,0.6891,0.6979,0.7025,0.7181,0.7338,0.0,0.0,0.6926,0.6807,0.6725,0.6719,0.6844,0.6803,0.6412,0.6306,0.6145,0.5817,0.5736,0.5638,0.5468,0.5241,0.4984,-0.1236,0.0,0.0,0.0,0.0,-0.0381,-0.0077,0.0158,0.0711,0.1022,0.1171,0.1729,0.0,0.0,0.0,0.0,0.0,0.0,0.3333,0.3297,0.326,0.3236,0.3138,0.2967,0.2969,0.288,0.2477,0.2338,0.2286,0.2315,0.2353,0.2385,0.0,0.0,0.0,0.0,0.1713,0.1867,0.2212,0.2466,0.2607,0.2842,0.2875,0.2875,0.2875,0.2963,0.3138,0.3102,0.3299,0.3705,0.3773,0.0,0.0,0.0,0.0,0.0,0.0,0.0,0.0,0.0,0.0,0.0,0.0,0.0,0.0,0.0,0.0,0.0,0.0,0.0,0.7446,0.791,0.8066,0.0,0.0,0.0,0.0,0.0,0.0,0.0,0.0,0.0,0.7812,0.791,0.7897,0.0,0.0,0.7544,0.7177,0.7319,0.7354,0.73,0.7222,0.0,0.7371,0.7334,0.7222,0.7105,0.7077,0.6926,0.6929,0.6976,0.7014,0.701,0.688,0.6718,0.6418,0.6405,0.6315,0.606,0.5804,0.5629,0.5452,0.5187,0.4922,-0.2099,-0.1738,-0.1517,-0.1343,-0.1275,-0.1036,-0.0889,-0.0825,-0.0083,0.0246,0.0244,0.0821,0.1052,0.1098,0.1412,0.0,0.0,0.0,0.2317,0.2332,0.2332,0.2363,0.2329,0.1973,0.1795,0.1704,0.1505,0.13,0.1346,0.1316,0.141,0.1595,0.0,0.1416,0.114,0.1169,0.1278,0.1473,0.2045,0.237,0.2488,0.2741,0.2875,0.2875,0.2963,0.305,0.3226,0.3496,0.3807,0.4144,0.4409,0.4649,0.0,0.0,0.0,0.0,0.0,0.0,0.0,0.0,0.0,0.0,0.0,0.6916,0.6864,0.0,0.0,0.0,0.7246,0.7507,0.7722,0.8157,0.0,0.0,0.0,0.0,0.0,0.0,0.0,0.775,0.7567,0.7395,0.7342,0.7319,0.7398,0.7392,0.732,0.7221,0.6987,0.0,0.7159,0.7112,0.7116,0.7065,0.7238,0.7147,0.7147,0.7031,0.7032,0.701,0.7017,0.7085,0.7136,0.7054,0.6966,0.6704,0.6428,0.6343,0.6169,0.5997,0.5819,0.5644,0.5463,0.5191,0.4921,-0.278,-0.2498,-0.1895,-0.153,-0.1312,-0.1313,-0.1329,-0.1354,-0.0847,-0.0586,-0.0658,-0.0335,-0.0083,0.0159,0.0318,0.0,0.0423,0.076,0.1036,0.1256,0.1256,0.1256,0.1166,0.0359,-0.009,-0.009,-0.009,-0.0088,-0.0084,0.0165,0.0397,0.0606,0.0606,0.0598,0.0511,0.0671,0.0907,0.1213,0.1781,0.218,0.2446,0.2724,0.2963,0.2963,0.3139,0.3226,0.3315,0.3941,0.4297,0.4383,0.5084,0.5333,0.5264,0.0,0.0,0.0,0.0,0.0,0.0,0.0,0.0,0.0,0.0,0.0,0.0,0.0,0.0,0.0,0.7854,0.0,0.8128,0.8355,0.0,0.0,0.0,0.8505,0.8703,0.8363,0.8073,0.7842,0.0,0.0,0.6837,0.6713,0.6857,0.7428,0.751,0.7355,0.7044,0.7154,0.713,0.6829,0.6736,0.6739,0.6867,0.6868,0.6983,0.7092,0.7139,0.7132,0.7132,0.7048,0.7139,0.7054,0.6881,0.6704,0.6435,0.6169,0.5994,0.5733,0.5644,0.5644,0.5371,0.5191,0.4924,-0.305,-0.2778,-0.246,-0.2098,-0.1666,-0.1667,-0.1584,-0.1414,-0.1237,-0.1146,-0.1229,-0.1146,-0.0879,-0.0522,-0.0435,-0.0438,-0.0442,-0.0265,-0.0266,-0.0179,-0.0179,-0.0179,-0.0179,-0.0448,-0.0718,-0.1075,-0.1059,-0.1038,-0.1011,-0.0905,-0.0397,0.0531,0.0833,0.0673,0.0146,0.044,0.0817,0.1288,0.1727,0.2294,0.2925,0.3096,0.3229,0.3409,0.3499,0.3676,0.403,0.421,0.4654,0.5364,0.5579,0.5752,0.6086,0.6035,0.0,0.0,0.0,0.0,0.0,0.0,0.0,0.0,0.0,0.7098,0.6822,0.0,0.7349,0.0,0.7936,0.8324,0.8335,0.8648,0.0,0.0,0.8661,0.8718,0.8926,0.8688,0.846,0.846,0.7966,0.7403,0.7154,0.6848,0.6665,0.6708,0.6639,0.6656,0.6705,0.6915,0.7001,0.6892,0.6959,0.7037,0.7034,0.7065,0.7017,0.7136,0.7143,0.7139,0.7143,0.7139,0.7054,0.6881,0.6697,0.6432,0.6169,0.5994,0.573,0.5552,0.5463,0.5371,0.5102,0.4924,0.4656,-0.3229,-0.305,-0.2782,-0.2424,-0.2064,-0.1885,-0.1705,-0.1615,-0.1436,-0.1436,-0.1436,-0.1436,-0.1256,-0.0987,-0.0987,-0.0987,-0.0987,-0.0987,-0.0987,-0.0987,-0.0987,-0.0987,-0.0987,-0.0987,-0.116,-0.1416,-0.1399,-0.1369,-0.1328,-0.131,-0.0958,-0.0231,0.0693,0.0989,0.0593,0.0513,0.0808,0.1416,0.1951,0.2463,0.3118,0.328,0.3481,0.3715,0.38,0.4045,0.4441,0.4615,0.5045,0.5653,0.5996,0.621,0.6404,0.6485,0.6536,0.0,0.0,0.0,0.0,0.0,0.0,0.0,0.0,0.0,0.0,0.0,0.7594,0.7451,0.8138,0.8478,0.8532,0.8774,0.9032,0.9058,0.9119,0.9204,0.9417,0.9122,0.8856,0.8772,0.8173,0.7628,0.7371,0.6843,0.6521,0.6602,0.6396,0.6389,0.6649,0.68,0.685,0.694,0.7088,0.717,0.7231,0.7244,0.7265,0.7329,0.7346,0.7343,0.7343,0.7252,0.705,0.6905,0.6616,0.6323,0.6097,0.5908,0.5644,0.5463,0.5282,0.5102,0.4924,0.4748,0.4659,-0.3496,-0.3227,-0.2963,-0.2785,-0.2515,-0.2064,-0.1795,-0.1795,-0.1525,-0.1436,-0.1436,-0.1436,-0.1436,-0.1436,-0.1436,-0.1436,-0.1436,-0.1436,-0.1436,-0.1436,-0.1436,-0.1433,-0.143,-0.1429,-0.1415,-0.1388,-0.1382,-0.1352,-0.1303,-0.1217,-0.1121,-0.1096,0.0469,0.1314,0.1282,0.0958,0.102,0.1605,0.2275,0.2817,0.3183,0.3519,0.3791,0.3982,0.4146,0.4365,0.4708,0.5116,0.5452,0.5788,0.6367,0.6637,0.6582,0.6827,0.7071,0.0,0.6954,0.0,0.0,0.0,0.0,0.0,0.0,0.0,0.0,0.7728,0.7848,0.7893,0.8272,0.8653,0.877,0.8917,0.9234,0.9573,0.9686,0.9757,0.9923,0.9602,0.9257,0.8999,0.8384,0.7852,0.7496,0.6877,0.652,0.6615,0.634,0.6236,0.6609,0.6782,0.6871,0.7054,0.7156,0.7238,0.7363,0.7397,0.7444,0.756,0.7577,0.7597,0.7486,0.7295,0.7169,0.6879,0.6557,0.6236,0.6126,0.5833,0.5555,0.5371,0.5102,0.4924,0.4748,0.4659,0.4569,-0.3585,-0.3497,-0.3053,-0.2875,-0.2785,-0.2334,-0.1974,-0.1795,-0.1525,-0.1436,-0.1436,-0.1436,-0.1436,-0.1436,-0.1436,-0.1436,-0.1436,-0.1436,-0.1436,-0.1436,-0.1436,-0.1423,-0.1402,-0.1401,-0.1385,-0.1441,-0.1331,-0.1313,-0.1302,-0.0559,-0.0234,-0.0229,0.0763,0.1356,0.1544,0.0,0.0,0.0,0.2508,0.2939,0.3702,0.3871,0.4244,0.4727,0.4809,0.0,0.5374,0.5363,0.5693,0.6453,0.6523,0.0,0.0,0.0,0.0,0.0,0.0,0.0,0.0,0.0,0.0,0.0,0.8009,0.7846,0.7749,0.7758,0.7926,0.8158,0.8336,0.8589,0.9139,0.9234,0.942,0.9889,0.9894,0.9913,0.9951,0.9689,0.9432,0.9262,0.8556,0.8025,0.758,0.7054,0.6615,0.6349,0.6171,0.6171,0.6263,0.6532,0.6792,0.6887,0.7072,0.7383,0.7536,0.7556,0.7567,0.7597,0.7597,0.751,0.7325,0.7224,0.7026,0.6608,0.6343,0.6187,0.596,0.5703,0.5377,0.5102,0.4924,0.4748,0.475,0.448,0.4389,-0.3474,-0.3474,-0.2957,-0.2785,0.0,-0.2261,-0.1999,-0.1915,-0.1511,-0.1436,-0.1436,-0.1436,-0.1436,-0.1436,-0.1436,-0.1427,-0.1415,-0.1414,-0.1407,-0.1392,-0.1392,-0.1384,-0.1371,-0.1199,-0.0932,-0.0745,-0.0737,-0.0728,-0.064,-0.0079,0.0468,0.0925,0.1465,0.184,0.2044,0.2602,0.2908,0.2871,0.3173,0.3613,0.4362,0.463,0.4915,0.5455,0.5616,0.0,0.0,0.0,0.0,0.0,0.0,0.0,0.0,0.8337,0.0,0.8792,0.8774,0.8838,0.9094,0.9104,0.919,0.939,0.916,0.8721,0.804,0.8205,0.84,0.8406,0.8508,0.881,0.9248,0.9345,0.9607,0.9951,1.0038,1.0038,0.9951,0.9777,0.9602,0.9432,0.8811,0.8285,0.7929,0.7316,0.6881,0.6526,0.6349,0.6284,0.6248,0.6302,0.6545,0.6706,0.7018,0.7346,0.7482,0.7515,0.7548,0.7601,0.7524,0.7327,0.7227,0.7033,0.6921,0.6568,0.6409,0.6247,0.5923,0.5671,0.535,0.5114,0.4837,0.4659,0.4569,0.4389,0.4297,-0.336,-0.3276,-0.286,-0.2609,-0.2608,-0.2103,-0.1934,-0.1854,-0.1573,0.0,0.0,-0.1331,-0.1242,-0.1154,-0.1154,-0.1143,-0.1126,-0.1125,-0.1201,-0.118,-0.118,-0.1177,-0.1173,-0.0754,-0.0331,0.0162,0.0243,0.024,0.0314,0.0628,0.1178,0.1964,0.2123,0.2439,0.2765,0.3296,0.3551,0.3756,0.3972,0.4408,0.4991,0.5349,0.5703,0.6028,0.6278,0.6564,0.6871,0.6854,0.718,0.7855,0.8098,0.8357,0.8634,0.9055,0.9332,0.9446,0.9672,0.9913,1.0177,1.0192,1.0345,1.0702,1.0299,0.9611,0.8585,0.8814,0.8915,0.874,0.8915,0.9082,0.9349,0.9515,0.9689,0.9951,1.0038,1.0038,1.0038,0.9777,0.9689,0.9598,0.9078,0.8636,0.8285,0.7757,0.7143,0.6881,0.6729,0.652,0.6444,0.6321,0.6306,0.6707,0.7004,0.7206,0.7327,0.7368,0.7416,0.7502,0.7322,0.7238,0.7138,0.6939,0.6799,0.6603,0.648,0.628,0.6018,0.5773,0.5532,0.5148,0.4862,0.4681,0.4395,0.43,0.4297,-0.3276,-0.3028,-0.2607,-0.244,-0.244,-0.1934,-0.1683,-0.1517,-0.1441,-0.1446,-0.1361,-0.0935,-0.0595,-0.0255,-0.0255,-0.0255,-0.0254,-0.0254,-0.0253,-0.0253,-0.0253,-0.025,-0.0245,-0.0245,0.0242,0.1107,0.1422,0.1656,0.165,0.2041,0.2276,0.2433,0.2591,0.3011,0.3714,0.4214,0.4707,0.5214,0.4885,0.4863,0.5309,0.5748,0.6167,0.6566,0.6819,0.7217,0.7612,0.7946,0.8102,0.8341,0.9019,0.9431,0.9508,0.9942,1.0343,1.074,1.0926,1.1027,1.1134,1.1145,1.1086,1.088,1.0467,1.0111,0.9753,0.9423,0.9257,0.9174,0.9174,0.9345,0.9515,0.9602,0.9689,0.9951,1.0038,1.0038,1.0038,0.9951,0.9864,0.9602,0.9349,0.8995,0.8636,0.8197,0.776,0.7252,0.7188,0.7122,0.6867,0.6514,0.6555,0.6855,0.7003,0.7073,0.7263,0.7208,0.731,0.7232,0.7235,0.7138,0.6942,0.6842,0.6734,0.6515,0.6437,0.636,0.6296,0.5934,0.574,0.545,0.5146,0.4754,0.4685,0.4484,0.43,-0.2837,-0.2675,-0.2271,-0.2192,-0.2193,-0.1479,-0.0991,-0.058,-0.0586,-0.0674,-0.0674,-0.0505,-0.0168,0.0337,0.0758,0.1004,0.0992,0.0992,0.0986,0.0974,0.0973,0.0968,0.0959,0.0958,0.1271,0.173,0.2043,0.2199,0.212,0.2433,0.2746,0.2899,0.337,0.3887,0.4299,0.4844,0.5452,0.5966,0.5579,0.5667,0.6334,0.6509,0.6939,0.7454,0.7796,0.8052,0.8402,0.8747,0.9083,0.9239,0.9766,1.0154,1.0404,1.0745,1.1048,1.1316,1.1591,1.1688,1.1688,1.1682,1.1596,1.1419,1.1068,1.0819,1.0748,0.9956,0.9432,0.9349,0.9432,0.9519,0.9602,0.9777,0.9864,0.9946,1.0038,1.0038,1.0038,1.0038,0.9951,0.9864,0.9602,0.934,0.899,0.864,0.8332,0.7889,0.7915,0.7725,0.7419,0.7199,0.704,0.7049,0.7198,0.7368,0.7431,0.7441,0.7441,0.7441,0.7338,0.7138,0.7042,0.7042,0.6939,0.6836,0.6787,0.6732,0.6577,0.6222,0.5944,0.5652,0.5296,0.5059,0.4924,0.4786,0.4567,-0.2433,-0.2354,-0.2043,-0.1735,-0.1509,-0.0893,-0.0246,0.0328,0.0418,0.0505,0.0421,0.0421,0.059,0.101,0.1685,0.1996,0.1959,0.1953,0.1929,0.1968,0.2042,0.2044,0.2043,0.2043,0.2121,0.2278,0.2511,0.2588,0.2508,0.2902,0.3215,0.3526,0.4249,0.4713,0.4984,0.5676,0.6223,0.6519,0.6445,0.6676,0.7221,0.7316,0.7757,0.8288,0.8548,0.8903,0.917,0.9441,0.9786,1.0212,1.0482,1.0738,1.116,1.1408,1.1666,1.1935,1.2203,1.2295,1.2295,1.2295,1.2209,1.202,1.1671,1.1413,1.1343,1.0559,0.9864,0.9694,0.9781,0.9864,0.9951,1.0033,1.0125,1.0125,1.012,1.0212,1.0125,1.0125,1.0038,1.0038,0.9864,0.9607,0.9349,0.9117,0.8889,0.867,0.8528,0.829,0.806,0.7963,0.777,0.7628,0.7569,0.7431,0.7543,0.754,0.7441,0.754,0.7338,0.7238,0.7138,0.7235,0.7235,0.7135,0.7135,0.7093,0.6813,0.6698,0.6449,0.6146,0.5873,0.5516,0.5354,0.526,0.5013,-0.2199,-0.2123,-0.1808,-0.1114,-0.0163,-0.0,0.0419,0.1006,0.1513,0.185,0.2024,0.1938,0.1939,0.2187,0.2187,0.216,0.2036,0.2195,0.225,0.2205,0.2353,0.2433,0.2435,0.2433,0.2591,0.2746,0.2978,0.3134,0.329,0.3763,0.4155,0.4555,0.5121,0.5557,0.6016,0.6567,0.7049,0.7372,0.7822,0.783,0.7485,0.8105,0.846,0.8544,0.8995,0.9432,0.9864,0.9951,1.0294,1.0814,1.1068,1.1327,1.1671,1.2186,1.2528,1.2613,1.2966,1.3228,1.3228,1.3052,1.2881,1.2619,1.2186,1.1843,1.1677,1.1327,1.0982,1.0641,1.0641,1.0559,1.0554,1.0641,1.0559,1.0559,1.0554,1.0641,1.0554,1.0381,1.0294,1.0294,1.0125,0.9864,0.9726,0.97,0.967,0.9304,0.9132,0.8945,0.875,0.8696,0.8623,0.8499,0.7928,0.7434,0.7338,0.7235,0.7437,0.7338,0.7238,0.7335,0.7434,0.7335,0.7235,0.7534,0.7335,0.7322,0.7217,0.7114,0.7066,0.6857,0.6588,0.6345,0.5961,0.5727,0.5476,-0.1963,-0.1889,-0.1037,-0.0163,0.0582,0.1019,0.1544,0.2147,0.2174,0.2448,0.2796,0.2797,0.2587,0.2355,0.2688,0.2756,0.2651,0.2899,0.2968,0.2939,0.3063,0.3204,0.3119,0.3235,0.3294,0.345,0.368,0.3915,0.407,0.4693,0.5121,0.543,0.5971,0.6433,0.6817,0.731,0.7763,0.8101,0.864,0.8815,0.8723,0.8903,0.9074,0.9152,0.9598,1.012,1.0467,1.0549,1.0804,1.1139,1.1494,1.1929,1.2272,1.2705,1.296,1.3137,1.3307,1.3398,1.3398,1.3313,1.3222,1.3137,1.279,1.2619,1.2534,1.2272,1.2015,1.1843,1.1241,1.0895,1.0895,1.0814,1.0733,1.0733,1.0733,1.0733,1.0733,1.0641,1.0554,1.0554,1.0472,1.0357,1.0248,1.0255,1.0126,0.9927,0.982,0.9734,0.9509,0.9521,0.9422,0.9225,0.8829,0.8528,0.823,0.8131,0.8131,0.8131,0.8131,0.8131,0.8131,0.8131,0.8131,0.8131,0.8031,0.8031,0.7932,0.7932,0.7806,0.753,0.7152,0.6858,0.6415,0.6321,0.6172,-0.1262,-0.1115,0.0082,0.092,0.1529,0.1912,0.2455,0.29,0.2854,0.3048,0.3405,0.3585,0.3437,0.3091,0.3249,0.3325,0.3391,0.3643,0.3716,0.3692,0.3796,0.3934,0.4005,0.411,0.4141,0.4196,0.4511,0.4726,0.4859,0.5511,0.6047,0.6308,0.6799,0.7289,0.7669,0.8154,0.8504,0.8886,0.9345,0.9689,0.9864,0.9864,0.9767,0.9749,1.0193,1.0636,1.0971,1.1149,1.1402,1.1552,1.2003,1.2534,1.2881,1.3137,1.3398,1.3568,1.3568,1.3652,1.3646,1.3646,1.3646,1.3646,1.3555,1.3476,1.3307,1.3137,1.296,1.2881,1.21,1.1585,1.1413,1.116,1.1073,1.0992,1.0992,1.0992,1.0911,1.0819,1.0824,1.0824,1.0799,1.0853,1.0864,1.088,1.0801,1.0592,1.0613,1.0507,1.0314,1.0117,1.0019,0.9826,0.9826,0.9624,0.9122,0.8928,0.8928,0.8928,0.8829,0.8726,0.8825,0.8825,0.8825,0.8528,0.8726,0.8726,0.8432,0.8428,0.8428,0.8001,0.7713,0.7472,0.7386,0.7201,0.7024,-0.008,0.0163,0.1277,0.2165,0.2783,0.2575,0.2776,0.3306,0.3496,0.3674,0.3939,0.4391,0.4654,0.4545,0.409,0.3969,0.4165,0.4418,0.446,0.4387,0.4534,0.4777,0.5022,0.5015,0.512,0.5186,0.5422,0.561,0.5899,0.6479,0.6875,0.7137,0.7658,0.8171,0.8577,0.8974,0.9331,0.9602,1.0038,1.0376,1.0549,1.0982,1.0794,1.0168,1.0621,1.1144,1.1391,1.1752,1.2003,1.2242,1.2778,1.3228,1.3496,1.3659,1.3828,1.3997,1.4088,1.4159,1.4321,1.4314,1.4314,1.4307,1.4314,1.4237,1.3997,1.3822,1.3646,1.3652,1.3222,1.279,1.2363,1.2026,1.178,1.1693,1.1613,1.1521,1.1262,1.1094,1.1008,1.0973,1.105,1.1232,1.1546,1.1642,1.1571,1.1395,1.1282,1.11,1.0904,1.0609,1.0511,1.0413,1.0413,1.0216,0.9727,0.9426,0.9331,0.9232,0.9225,0.8924,0.8825,0.8825,0.8825,0.8825,0.8924,0.8928,0.8825,0.8825,0.873,0.8594,0.842,0.8279,0.8083,0.8023,0.784,0.0904,0.187,0.2332,0.289,0.3284,0.322,0.3587,0.4121,0.4389,0.4654,0.4924,0.5191,0.5455,0.5549,0.5369,0.5169,0.4958,0.522,0.5282,0.5236,0.5432,0.5565,0.5808,0.5904,0.6013,0.6217,0.6453,0.6753,0.7119,0.7489,0.782,0.8176,0.8632,0.9016,0.9311,0.9735,1.0038,1.0294,1.0717,1.1068,1.1499,1.1843,1.1735,1.1348,1.1649,1.2112,1.2649,1.2717,1.279,1.3033,1.3307,1.3756,1.4206,1.4341,1.4405,1.4489,1.4489,1.4489,1.4573,1.4566,1.4566,1.4566,1.4566,1.4573,1.4482,1.4405,1.4321,1.4321,1.4062,1.3808,1.3392,1.2796,1.2198,1.2112,1.2037,1.1785,1.1607,1.1527,1.1408,1.1414,1.154,1.1771,1.1905,1.1869,1.1889,1.1863,1.1785,1.1683,1.159,1.1492,1.1389,1.1389,1.1292,1.1096,1.0998,1.0314,1.0019,0.992,0.9821,0.962,0.9521,0.9324,0.9327,0.9327,0.9327,0.9324,0.9324,0.913,0.913,0.9015,0.8935,0.8777,0.8605,0.8542,0.8266,0.1946,0.3039,0.3154,0.3452,0.3941,0.4032,0.4391,0.4926,0.528,0.5458,0.5725,0.5988,0.6169,0.6435,0.6523,0.6435,0.6077,0.6077,0.6077,0.6157,0.6253,0.6381,0.6711,0.6711,0.6898,0.7181,0.7289,0.76,0.8111,0.8408,0.8756,0.9128,0.9521,0.98,1.0101,1.0554,1.0895,1.1068,1.1413,1.1843,1.2272,1.2534,1.2687,1.2668,1.2857,1.3155,1.3632,1.3508,1.3392,1.3464,1.3808,1.425,1.4628,1.4678,1.4734,1.4734,1.4734,1.4741,1.4824,1.4824,1.4824,1.4908,1.4908,1.4915,1.4915,1.4824,1.4817,1.4734,1.465,1.4405,1.4159,1.3555,1.2954,1.2705,1.2375,1.2118,1.1957,1.1944,1.2059,1.2174,1.2368,1.2404,1.2522,1.2469,1.2543,1.2467,1.2462,1.2365,1.2273,1.2175,1.2078,1.198,1.178,1.1683,1.1585,1.1096,1.0605,1.0507,1.0216,1.0117,1.0117,0.992,0.9826,0.9826,0.9826,0.9826,0.9727,0.9529,0.9434,0.9335,0.9308,0.9155,0.901,0.8882,0.8709,0.3129,0.3577,0.3554,0.4028,0.4748,0.4924,0.5191,0.5549,0.5905,0.6257,0.652,0.67,0.6966,0.7143,0.7401,0.7489,0.7401,0.7054,0.6969,0.7048,0.7126,0.7298,0.7555,0.7537,0.7718,0.8021,0.7931,0.8271,0.8812,0.9308,0.9747,1.003,1.0434,1.0692,1.0982,1.1419,1.1757,1.2015,1.2277,1.2619,1.3058,1.3137,1.3398,1.3926,1.4004,1.4017,1.4142,1.4108,1.3893,1.3607,1.4216,1.465,1.4741,1.4824,1.4734,1.4817,1.4817,1.4908,1.5082,1.5173,1.5257,1.534,1.5423,1.5423,1.534,1.5257,1.5166,1.509,1.4908,1.4734,1.465,1.4398,1.3977,1.3222,1.2881,1.2625,1.249,1.2435,1.2597,1.2991,1.3168,1.3265,1.3448,1.3426,1.3437,1.334,1.3244,1.2953,1.2856,1.2662,1.237,1.2175,1.2175,1.2175,1.1975,1.178,1.1292,1.0998,1.0605,1.0413,1.0413,1.0314,1.0216,1.022,1.0122,1.0117,1.0019,0.9826,0.9727,0.9628,0.9624,0.9521,0.9387,0.9257,0.9182,0.3818,0.4524,0.4552,0.501,0.5638,0.5897,0.6077,0.6441,0.6874,0.7143,0.7404,0.7669,0.7933,0.8105,0.8197,0.8372,0.8464,0.8292,0.8113,0.7933,0.8021,0.8285,0.8376,0.8464,0.8698,0.9074,0.8996,0.9307,0.9838,1.0248,1.0545,1.0727,1.1112,1.1499,1.1671,1.2015,1.2363,1.2705,1.2966,1.3307,1.3737,1.3899,1.4146,1.4314,1.4482,1.4678,1.4965,1.4685,1.4489,1.4482,1.4831,1.5075,1.5318,1.5582,1.5665,1.5665,1.5658,1.5673,1.5756,1.5756,1.5756,1.5839,1.5846,1.5846,1.5839,1.5839,1.5665,1.5582,1.5401,1.5318,1.4999,1.4915,1.4573,1.3822,1.3568,1.3234,1.3059,1.3039,1.3332,1.3653,1.3868,1.4017,1.3986,1.401,1.4016,1.3823,1.3721,1.3624,1.334,1.3244,1.3147,1.3055,1.2953,1.2662,1.2559,1.2365,1.1975,1.1585,1.1194,1.09,1.0801,1.0708,1.0609,1.0609,1.0511,1.0413,1.0314,1.0216,1.0023,0.9924,0.9821,0.9723,0.9624,0.9525,0.9529,0.4652,0.5455,0.5542,0.5897,0.6612,0.6877,0.7054,0.7319,0.7757,0.8113,0.8376,0.8552,0.8811,0.9074,0.9069,0.9161,0.9349,0.9345,0.9336,0.9074,0.8986,0.9078,0.9345,0.9515,0.9689,0.9941,1.0009,1.0269,1.0814,1.1343,1.1521,1.1591,1.202,1.2363,1.2528,1.279,1.313,1.3561,1.3808,1.4075,1.4419,1.465,1.4803,1.497,1.5061,1.5249,1.5604,1.5416,1.5235,1.5249,1.5416,1.5673,1.5831,1.6079,1.6245,1.6245,1.6245,1.6327,1.6245,1.6162,1.6162,1.617,1.6095,1.6095,1.6095,1.6095,1.6004,1.5914,1.5824,1.5748,1.5499,1.5333,1.5075,1.4657,1.4153,1.3913,1.3771,1.3925,1.4203,1.439,1.4576,1.4573,1.4592,1.4592,1.4496,1.4394,1.4298,1.4298,1.4016,1.3925,1.3925,1.3829,1.3528,1.3335,1.3238,1.2948,1.2657,1.217,1.1785,1.1487,1.1389,1.1292,1.1194,1.1194,1.1194,1.0998,1.0801,1.0609,1.0413,1.0314,1.022,1.0117,1.0019,1.0019,0.9924,0.563,0.6428,0.6517,0.6956,0.7577,0.7757,0.8025,0.8285,0.8548,0.8903,0.9345,0.9345,0.9602,0.9951,1.0033,1.012,1.0125,1.0294,1.0467,1.0463,1.0202,1.0038,1.012,1.0463,1.0636,1.0722,1.0778,1.1123,1.1757,1.2392,1.2661,1.2454,1.2875,1.3222,1.347,1.3652,1.3984,1.4398,1.465,1.4908,1.5173,1.5318,1.556,1.5726,1.5741,1.5914,1.617,1.6319,1.6131,1.5703,1.6087,1.6268,1.626,1.6319,1.6476,1.6558,1.6648,1.6648,1.6476,1.6566,1.6492,1.6335,1.6335,1.6177,1.6252,1.6327,1.6245,1.617,1.6162,1.6087,1.6004,1.5831,1.5582,1.5438,1.4895,1.462,1.489,1.5028,1.5166,1.5328,1.5356,1.5178,1.5267,1.5267,1.5172,1.5172,1.5172,1.4981,1.4783,1.4682,1.4592,1.4394,1.4202,1.401,1.3919,1.3721,1.3335,1.2942,1.2559,1.2365,1.1975,1.1878,1.1785,1.1785,1.178,1.1487,1.1292,1.1096,1.0904,1.0708,1.0609,1.0511,1.0382,1.0347,1.0294,0.6874,0.7404,0.7669,0.8017,0.8544,0.8815,0.8995,0.9253,0.9515,0.9859,1.0207,1.0207,1.0549,1.0895,1.0982,1.0982,1.0982,1.1241,1.1413,1.158,1.1671,1.1327,1.1154,1.1408,1.1671,1.1666,1.1638,1.1895,1.2443,1.3345,1.3521,1.3143,1.3639,1.4055,1.4314,1.4398,1.4643,1.5061,1.5311,1.5575,1.5839,1.6072,1.6229,1.6402,1.6484,1.6566,1.6812,1.7212,1.7131,1.6714,1.6812,1.6984,1.6984,1.7057,1.7139,1.7139,1.7221,1.7229,1.7147,1.7147,1.7066,1.7074,1.6894,1.6968,1.7074,1.6968,1.6804,1.6648,1.6574,1.6417,1.617,1.6102,1.6111,1.6154,1.5611,1.5248,1.5749,1.5895,1.5961,1.623,1.6204,1.6116,1.6116,1.6116,1.6021,1.592,1.5825,1.5825,1.554,1.5343,1.5248,1.5159,1.4968,1.4688,1.4496,1.44,1.4106,1.3715,1.3426,1.3232,1.2851,1.2565,1.237,1.2273,1.2273,1.2175,1.1975,1.178,1.1487,1.1249,1.1225,1.109,1.0812,1.0656,1.0663,0.8021,0.8552,0.8815,0.9157,0.9593,0.9946,1.012,1.0289,1.0467,1.0814,1.1149,1.1154,1.1413,1.1843,1.1929,1.1929,1.1935,1.2106,1.2357,1.2619,1.2954,1.2699,1.2272,1.2443,1.2619,1.2699,1.2656,1.2826,1.3379,1.4206,1.4368,1.4159,1.4398,1.481,1.5075,1.5235,1.5484,1.5809,1.6139,1.6402,1.6656,1.6804,1.696,1.7115,1.7204,1.7383,1.7627,1.7861,1.7781,1.7456,1.7456,1.7546,1.7635,1.7797,1.7797,1.7797,1.7878,1.7887,1.7878,1.7797,1.7716,1.7635,1.7529,1.744,1.7456,1.7448,1.7204,1.7057,1.6976,1.6902,1.6688,1.6625,1.6707,1.6829,1.6476,1.6359,1.6653,1.6614,1.6665,1.6727,1.6683,1.6588,1.6588,1.6588,1.6588,1.6393,1.6298,1.6298,1.6116,1.6008,1.5818,1.573,1.5635,1.5445,1.5159,1.5064,1.4873,1.4484,1.4202,1.401,1.3624,1.3244,1.305,1.2953,1.2861,1.2754,1.2533,1.2389,1.2107,1.1975,1.1864,1.1682,1.1467,1.1318,1.1218,0.9157,0.9777,1.0033,1.0381,1.0809,1.1068,1.1241,1.1413,1.1494,1.1757,1.21,1.2186,1.2443,1.2784,1.2869,1.2869,1.2875,1.3124,1.3385,1.3724,1.3977,1.3971,1.3555,1.347,1.3646,1.3808,1.3672,1.3847,1.4398,1.5132,1.5209,1.5082,1.5318,1.565,1.5906,1.6079,1.6327,1.6558,1.6968,1.7221,1.7473,1.7627,1.7691,1.7747,1.8023,1.8201,1.8434,1.8514,1.8353,1.7942,1.8031,1.804,1.8121,1.8362,1.8442,1.8523,1.8603,1.8603,1.8523,1.8434,1.8362,1.8112,1.7836,1.7738,1.7853,1.7853,1.77,1.7546,1.7473,1.7514,1.7466,1.7454,1.7555,1.762,1.7675,1.7689,1.7508,1.7435,1.7333,1.716,1.6878,1.6777,1.677,1.6777,1.677,1.7052,1.6958,1.6958,1.677,1.6676,1.6574,1.6494,1.6298,1.6103,1.592,1.573,1.5445,1.5159,1.4879,1.4592,1.4202,1.3913,1.3732,1.3636,1.363,1.3488,1.3228,1.2953,1.2731,1.2626,1.2483,1.2346,1.2113,1.2102,1.2037,1.0631,1.0982,1.1246,1.1585,1.2015,1.21,1.2192,1.2443,1.2528,1.2784,1.3045,1.33,1.347,1.3802,1.3802,1.3886,1.4055,1.4223,1.4566,1.4977,1.5228,1.5401,1.5159,1.4817,1.4573,1.4741,1.4887,1.5047,1.5325,1.5876,1.6231,1.5922,1.6237,1.6566,1.6804,1.6976,1.7221,1.7456,1.7708,1.7959,1.8193,1.8273,1.8345,1.8407,1.878,1.9029,1.9152,1.9231,1.932,1.9082,1.8754,1.8603,1.8763,1.8843,1.8922,1.9073,1.9152,1.9073,1.8913,1.8834,1.8763,1.8603,1.8505,1.8442,1.8451,1.8442,1.8362,1.8201,1.821,1.816,1.8103,1.8312,1.8481,1.8643,1.8913,1.8967,1.8724,1.8218,1.7885,1.7807,1.7807,1.7707,1.7707,1.7621,1.7707,1.7707,1.7707,1.7621,1.752,1.7239,1.7145,1.7059,1.6958,1.6676,1.6393,1.6204,1.592,1.5737,1.5553,1.5363,1.4968,1.4727,1.462,1.4549,1.44,1.422,1.3897,1.3643,1.3495,1.3285,1.315,1.2997,1.2886,1.2862,1.2732,1.1906,1.2134,1.251,1.279,1.3052,1.3137,1.3307,1.3464,1.3633,1.3893,1.4153,1.4321,1.4489,1.4727,1.481,1.4894,1.5061,1.5318,1.565,1.5982,1.6229,1.6476,1.6656,1.6312,1.6057,1.5906,1.5703,1.5794,1.6162,1.6786,1.7138,1.6746,1.7139,1.7302,1.7546,1.7797,1.7951,1.8184,1.8353,1.8603,1.8913,1.9002,1.9073,1.925,1.9613,1.9869,1.9636,1.9715,1.9715,1.9636,1.9399,1.932,1.939,1.939,1.9469,1.9539,1.9618,1.9548,1.9478,1.939,1.939,1.924,1.9125,1.9054,1.9161,1.9188,1.9029,1.8763,1.8709,1.8681,1.8737,1.8939,1.9229,1.9525,1.9718,1.9828,1.9471,1.8912,1.8365,1.8265,1.8079,1.8087,1.8087,1.8272,1.8179,1.7986,1.7986,1.7994,1.79,1.7707,1.7714,1.7621,1.7434,1.7239,1.6958,1.6676,1.64,1.6211,1.6116,1.6021,1.592,1.5651,1.547,1.5315,1.5057,1.4935,1.4602,1.4419,1.4191,1.4002,1.3837,1.3705,1.3529,1.3485,1.3349,1.3171,1.3355,1.3776,1.3899,1.3984,1.4243,1.4405,1.4566,1.4643,1.4985,1.5242,1.5333,1.5492,1.5643,1.5809,1.5899,1.6139,1.6394,1.6804,1.6886,1.7204,1.7367,1.7619,1.7691,1.761,1.7041,1.6585,1.6593,1.6976,1.7596,1.7677,1.7635,1.7959,1.8121,1.8193,1.8442,1.8674,1.8825,1.8993,1.9231,1.9478,1.9557,1.9715,1.996,2.0351,2.0429,2.0196,2.0177,2.0108,2.0098,2.0098,2.0098,2.0098,1.9942,2.001,2.002,2.001,2.002,1.9951,1.9942,1.9863,1.9863,1.9659,1.9492,1.9627,1.9752,1.9594,1.9366,1.9252,1.9389,1.9477,1.9831,2.0042,2.0228,2.0407,2.0357,2.0019,1.9463,1.9096,1.8735,1.8643,1.8651,1.8558,1.8558,1.8458,1.8265,1.8265,1.8265,1.8272,1.8272,1.8272,1.8087,1.7986,1.78,1.752,1.7225,1.6951,1.68,1.6626,1.6556,1.6628,1.6345,1.6049,1.5731,1.5545,1.5378,1.5164,1.4821,1.4683,1.4562,1.4441,1.4176,1.4083,1.399,1.3899,1.4518,1.4788,1.488,1.4992,1.5144,1.5318,1.5484,1.5567,1.5891,1.6064,1.6237,1.6319,1.6558,1.6714,1.6788,1.696,1.7367,1.7619,1.7708,1.787,1.8175,1.8425,1.8496,1.8825,1.8895,1.8647,1.7963,1.756,1.7764,1.7925,1.8193,1.8273,1.8603,1.8843,1.8922,1.9161,1.9399,1.9469,1.9636,1.9863,1.9942,1.9932,2.0089,2.042,2.0898,2.0976,2.0994,2.0964,2.0964,2.0964,2.0974,2.0964,2.0809,2.0498,2.0342,2.0411,2.0401,2.0333,2.0264,2.0255,2.0108,1.9951,1.9951,1.9942,1.996,2.0068,2.0008,1.9935,2.0052,2.037,2.0532,2.0817,2.1076,2.1166,2.1132,2.1114,2.0826,2.0555,2.011,1.9571,1.9487,1.9304,1.9204,1.9204,1.9196,1.9104,1.9104,1.9096,1.9004,1.8912,1.892,1.8727,1.8542,1.8265,1.7994,1.7777,1.7475,1.7357,1.7198,1.7014,1.6926,1.6713,1.649,1.6223,1.5903,1.5624,1.5395,1.5193,1.5119,1.4958,1.4754,1.465,1.465,1.465,1.4566,1.5681,1.5778,1.6026,1.6139,1.6296,1.6468,1.6632,1.6714,1.696,1.7131,1.7286,1.7456,1.7619,1.7691,1.7934,1.8264,1.8505,1.8585,1.8665,1.8745,1.8984,1.9231,1.9381,1.9696,1.9854,1.9756,1.9149,1.8674,1.8745,1.8913,1.8984,1.9073,1.932,1.9469,1.9548,1.9784,2.0029,2.0108,2.0333,2.0489,2.0489,2.0382,2.0518,2.0896,2.1275,2.145,2.1379,2.1359,2.1359,2.1359,2.1359,2.1282,2.1128,2.0974,2.0731,2.0731,2.0644,2.0566,2.0498,2.0411,2.0411,2.0333,2.0362,2.0352,2.0342,2.0362,2.0361,2.0423,2.0406,2.0841,2.1269,2.1532,2.1745,2.1896,2.1919,2.182,2.1642,2.1463,2.1015,2.0482,2.0209,2.0027,1.9936,1.9936,1.9936,1.9936,1.9936,1.9837,1.9737,1.9646,1.9554,1.9355,1.9155,1.8832,1.8601,1.8224,1.8018,1.7933,1.7673,1.7481,1.7217,1.7098,1.6919,1.6768,1.6386,1.6117,1.595,1.5889,1.5613,1.546,1.5431,1.5409,1.5409,1.5325,1.5242,1.683,1.6904,1.7245,1.7359,1.7359,1.7602,1.7853,1.7934,1.8014,1.8103,1.8353,1.8496,1.8576,1.8736,1.9063,1.939,1.9539,1.9539,1.9618,1.9696,1.9863,2.0029,2.0264,2.0498,2.0731,2.0779,2.0498,2.0012,1.9696,1.991,1.9989,1.9882,2.002,2.0098,2.0167,2.0333,2.0576,2.0799,2.0954,2.1118,2.1175,2.0961,2.0941,2.1349,2.1747,2.1834,2.1818,2.1807,2.1807,2.1797,2.1731,2.1655,2.1502,2.1436,2.1282,2.1128,2.0886,2.0722,2.0722,2.0722,2.0722,2.0731,2.0712,2.0712,2.0722,2.0693,2.0732,2.0864,2.1043,2.1177,2.1807,2.1988,2.2197,2.2318,2.2441,2.2353,2.2176,2.1998,2.1919,2.1463,2.1015,2.0736,2.0555,2.0473,2.0473,2.0473,2.0473,2.0464,2.0365,2.0283,2.0093,1.9977,1.9753,1.9397,1.9077,1.8742,1.8596,1.8427,1.8113,1.7786,1.7626,1.7467,1.7318,1.7239,1.7099,1.6752,1.6698,1.6499,1.6194,1.6102,1.617,1.6162,1.6072,1.5989,1.5906,1.8443,1.8453,1.8461,1.8496,1.8496,1.8745,1.8834,1.8913,1.9063,1.9213,1.9362,1.9441,1.9687,2.001,2.0255,2.0411,2.0479,2.0479,2.0557,2.0712,2.0886,2.1041,2.1272,2.1502,2.1578,2.1634,2.1548,2.1165,2.0731,2.0888,2.08,2.0576,2.0722,2.0789,2.0789,2.0964,2.1205,2.1359,2.1425,2.1578,2.1634,2.139,2.1476,2.1863,2.2239,2.2401,2.2488,2.2478,2.2478,2.2467,2.2553,2.2478,2.2252,2.2111,2.2035,2.1807,2.1502,2.1128,2.1128,2.1118,2.1118,2.1041,2.1021,2.1021,2.1061,2.1053,2.0997,2.1191,2.1481,2.1928,2.2434,2.2755,2.2872,2.2843,2.2794,2.2706,2.252,2.2618,2.253,2.2353,2.19,2.1445,2.1177,2.1087,2.0907,2.0907,2.0907,2.0907,2.0872,2.0836,2.0613,2.0471,2.0093,1.9804,1.9508,1.9183,1.8944,1.8955,1.8523,1.8171,1.8062,1.7854,1.7689,1.7614,1.7507,1.7442,1.7195,1.699,1.6754,1.6738,1.682,1.6738,1.6566,1.6566,1.6648,2.0246,1.9399,1.9492,1.9529,1.9608,1.9784,2.001,2.0089,2.0167,2.0313,2.0537,2.0624,2.0857,2.1098,2.1262,2.1339,2.1415,2.1415,2.1568,2.1711,2.1873,2.1949,2.2176,2.2252,2.2327,2.2478,2.2478,2.2392,2.2046,2.1793,2.1584,2.1349,2.1339,2.1415,2.1405,2.1578,2.1807,2.2025,2.2252,2.2402,2.2381,2.2157,2.2125,2.2628,2.295,2.3078,2.3023,2.3075,2.3001,2.3065,2.3075,2.2916,2.2777,2.2628,2.2628,2.2563,2.2402,2.2025,2.1655,2.1436,2.1436,2.1349,2.1272,2.1225,2.147,2.1487,2.159,2.1969,2.2324,2.274,2.3087,2.3365,2.3444,2.3406,2.3232,2.3232,2.3135,2.3222,2.3135,2.296,2.2784,2.2334,2.198,2.1891,2.1802,2.1713,2.1704,2.1784,2.1585,2.1359,2.1216,2.0889,2.0533,2.0179,1.9865,1.9604,1.9335,1.912,1.8802,1.8495,1.8443,1.8313,1.8218,1.8201,1.8253,1.8083,1.7797,1.7635,1.7473,1.7392,1.7473,1.7383,1.7302,1.7383,1.7465,2.1952,2.0814,2.074,2.0779,2.0779,2.0944,2.1098,2.1242,2.1252,2.1395,2.1634,2.1797,2.1959,2.2035,2.2111,2.2176,2.2402,2.2402,2.2553,2.2703,2.2777,2.2927,2.3075,2.3075,2.315,2.3309,2.3298,2.3224,2.3172,2.2906,2.2531,2.2111,2.2101,2.2101,2.2176,2.2252,2.2478,2.2703,2.3075,2.3224,2.3202,2.2881,2.2977,2.3298,2.362,2.3801,2.3626,2.3604,2.3593,2.3593,2.3666,2.3593,2.3372,2.3372,2.3298,2.3298,2.3213,2.2927,2.2478,2.2187,2.1807,2.1655,2.1589,2.1686,2.1886,2.206,2.221,2.2605,2.3041,2.3497,2.3796,2.3841,2.3754,2.3754,2.3754,2.3754,2.3841,2.3744,2.357,2.3396,2.3232,2.3232,2.296,2.2784,2.2696,2.2608,2.2599,2.2551,2.2244,2.1825,2.1493,2.1219,2.0734,2.0374,2.0264,1.9925,1.9652,1.9417,1.9093,1.8985,1.8914,1.8905,1.8772,1.8843,1.886,1.8931,1.8754,1.8434,1.8201,1.8121,1.804,1.8121,1.8121,1.8193,1.8193,2.3434,2.3287,2.2542,2.2252,2.2252,2.2241,2.2252,2.2317,2.2327,2.2392,2.2617,2.2777,2.2852,2.2927,2.2927,2.3001,2.3224,2.3235,2.3446,2.3666,2.3824,2.3897,2.3959,2.4032,2.4116,2.4116,2.4105,2.4116,2.4116,2.4043,2.353,2.3001,2.3001,2.2927,2.2927,2.299,2.3213,2.3519,2.3886,2.4032,2.3998,2.3795,2.3784,2.4116,2.4449,2.4629,2.4429,2.4406,2.4334,2.4322,2.4334,2.4261,2.4105,2.4032,2.4032,2.397,2.3897,2.3751,2.3446,2.2927,2.2553,2.2402,2.2327,2.2283,2.2454,2.2604,2.2866,2.3184,2.366,2.4,2.4139,2.4206,2.4196,2.4186,2.4176,2.4186,2.4186,2.409,2.3917,2.3841,2.3704,2.3614,2.3493,2.3262,2.3083,2.291,2.2668,2.2619,2.2291,2.1955,2.1678,2.132,2.0923,2.0633,2.0576,2.0325,2.0066,1.9851,1.9641,1.9585,1.9497,1.9478,1.9311,1.932,1.9399,1.9557,1.9636,1.9152,1.8834,1.8692,1.8692,1.8763,1.8763,1.8754,1.8763,2.4659,2.4599,2.4288,2.379,2.3139,2.315,2.3224,2.3298,2.3298,2.3446,2.3604,2.3677,2.3751,2.374,2.374,2.3875,2.4154,2.4154,2.4443,2.4659,2.4814,2.4826,2.4886,2.4886,2.4886,2.4886,2.4897,2.4897,2.4886,2.4886,2.4743,2.4371,2.402,2.374,2.374,2.3813,2.402,2.4227,2.4527,2.4731,2.4814,2.4791,2.4696,2.4897,2.5135,2.5218,2.5052,2.4969,2.4969,2.4969,2.4969,2.4897,2.4754,2.4683,2.4694,2.4634,2.449,2.4418,2.4189,2.3593,2.3001,2.2852,2.2777,2.281,2.2993,2.3348,2.3598,2.3896,2.4323,2.4746,2.4777,2.4786,2.4775,2.469,2.4573,2.4563,2.448,2.4322,2.4322,2.4155,2.4062,2.3969,2.3846,2.3628,2.3406,2.3158,2.2904,2.2631,2.2466,2.2116,2.1816,2.1578,2.1213,2.0947,2.0889,2.0644,2.0479,2.0333,2.0186,2.0108,2.0029,1.9794,1.9706,1.9794,1.9872,1.9942,1.9863,1.9627,1.939,1.932,1.932,1.9478,1.9478,1.932,1.932,2.5791,2.5721,2.5734,2.5087,2.4177,2.4093,2.4177,2.4322,2.4322,2.4394,2.455,2.4539,2.455,2.455,2.4539,2.4671,2.4874,2.4945,2.517,2.5312,2.5394,2.5465,2.5453,2.5523,2.5523,2.5594,2.5664,2.5652,2.5652,2.5652,2.5581,2.537,2.5158,2.4874,2.4539,2.4706,2.4897,2.5016,2.5158,2.5312,2.5465,2.5477,2.5465,2.5477,2.5691,2.5691,2.5477,2.5441,2.5441,2.5465,2.5465,2.5394,2.5312,2.5241,2.5194,2.5135,2.5064,2.4992,2.4694,2.4116,2.353,2.3446,2.3372,2.349,2.3682,2.415,2.4456,2.444,2.5098,2.5611,2.5516,2.5527,2.5292,2.505,2.4965,2.4828,2.4626,2.4519,2.4583,2.4511,2.4384,2.4214,2.3963,2.3826,2.3614,2.334,2.3104,2.2929,2.2695,2.2408,2.1954,2.1822,2.1602,2.1383,2.1195,2.1108,2.0944,2.0876,2.0731,2.0654,2.0489,2.0333,2.0255,2.042,2.042,2.0333,2.0333,2.0333,2.0098,1.9863,1.9863,1.9863,1.9794,1.9636,1.9715,2.6837,2.6658,2.6645,2.6151,2.53,2.5241,2.5241,2.5241,2.5229,2.5241,2.53,2.5312,2.5312,2.5312,2.5312,2.5453,2.5594,2.5664,2.5746,2.5898,2.5968,2.5898,2.5955,2.6094,2.6233,2.622,2.6289,2.6414,2.6346,2.6346,2.6358,2.6346,2.6208,2.5849,2.5382,2.5465,2.5535,2.5618,2.5828,2.5898,2.598,2.6087,2.6062,2.6062,2.6087,2.6074,2.5968,2.5931,2.5931,2.5955,2.6062,2.5992,2.5898,2.5816,2.5828,2.5758,2.5618,2.5548,2.5465,2.4694,2.4334,2.4116,2.4116,2.4112,2.434,2.4793,2.5306,2.5284,2.5853,2.624,2.6246,2.6086,2.5634,2.5376,2.5278,2.5179,2.4971,2.4872,2.4949,2.4858,2.4571,2.4364,2.42,2.3981,2.3813,2.3602,2.3307,2.3101,2.2939,2.2692,2.2331,2.2192,2.2043,2.1925,2.1797,2.1568,2.1502,2.1425,2.1349,2.1185,2.1118,2.1031,2.1041,2.1128,2.1051,2.0964,2.1041,2.1128,2.0886,2.0566,2.0177,2.0098,2.002,2.0029,2.0186,2.7577,2.7456,2.7456,2.7175,2.6701,2.6208,2.6,2.5988,2.6,2.6,2.6082,2.6151,2.6233,2.6233,2.6233,2.6289,2.6496,2.6371,2.6452,2.6589,2.6589,2.6602,2.6658,2.6794,2.693,2.6998,2.7053,2.7108,2.7108,2.7172,2.7146,2.7121,2.7262,2.6701,2.622,2.6151,2.6151,2.6302,2.644,2.6521,2.6627,2.6734,2.6746,2.6653,2.6665,2.6653,2.6602,2.6496,2.6508,2.6533,2.6627,2.6559,2.6383,2.6302,2.6233,2.6107,2.5968,2.5828,2.5758,2.5407,2.5111,2.4933,2.4765,2.4844,2.5133,2.5518,2.585,2.6129,2.6439,2.6553,2.6347,2.5927,2.5656,2.5532,2.5453,2.5442,2.5329,2.5306,2.5318,2.5072,2.4826,2.4325,2.4058,2.4102,2.4026,2.3819,2.3547,2.3232,2.3069,2.3026,2.2767,2.2692,2.2585,2.2488,2.2327,2.2176,2.2101,2.2101,2.1949,2.1797,2.1721,2.1721,2.1645,2.1655,2.1655,2.1589,2.1655,2.1731,2.1502,2.1262,2.1021,2.0799,2.0731,2.0731,2.0819,2.843,2.8235,2.8235,2.8118,2.7789,2.7108,2.6769,2.6769,2.6769,2.6837,2.6905,2.704,2.7121,2.7108,2.7108,2.7121,2.7242,2.7053,2.6985,2.7134,2.7146,2.7146,2.7201,2.7416,2.7523,2.7603,2.7815,2.7868,2.7881,2.808,2.8385,2.8584,2.8518,2.8365,2.7932,2.7623,2.7365,2.7562,2.7785,2.776,2.7829,2.7846,2.7743,2.7546,2.7443,2.7378,2.7143,2.7079,2.7079,2.7037,2.7037,2.6969,2.6807,2.6726,2.6577,2.6452,2.6584,2.6577,2.6639,2.6856,2.6621,2.6394,2.5804,2.5756,2.616,2.6557,2.6813,2.6964,2.7018,2.6927,2.6811,2.638,2.6093,2.6058,2.5692,2.568,2.535,2.5304,2.5304,2.5084,2.494,2.4408,2.4146,2.4146,2.4214,2.3999,2.3847,2.3519,2.3287,2.3298,2.3298,2.3224,2.315,2.3075,2.2927,2.2852,2.2777,2.2703,2.2553,2.2478,2.2402,2.2327,2.2252,2.2176,2.2252,2.2327,2.2252,2.2252,2.2176,2.2176,2.2014,2.1797,2.1512,2.1436,2.1436,2.9415,2.9162,2.9162,2.8908,2.8522,2.7921,2.759,2.7536,2.7536,2.7656,2.7842,2.7842,2.7908,2.7973,2.7908,2.7842,2.7842,2.7656,2.759,2.759,2.7669,2.7603,2.7762,2.8,2.8278,2.8369,2.8568,2.8994,2.8763,2.9424,2.9956,3.0161,3.0106,3.0106,2.9739,2.9453,2.9003,2.9052,2.9022,2.9009,2.9065,2.9127,2.8782,2.8572,2.8441,2.8108,2.7819,2.753,2.7411,2.7317,2.7237,2.7211,2.7117,2.7024,2.7011,2.7191,2.7588,2.7736,2.7851,2.8053,2.8151,2.7858,2.7331,2.7176,2.7323,2.7624,2.7815,2.7891,2.7993,2.7819,2.7675,2.7339,2.694,2.6518,2.5991,2.5645,2.5205,2.5038,2.505,2.4966,2.4989,2.4729,2.4729,2.4694,2.4622,2.4622,2.4467,2.4311,2.402,2.3813,2.3813,2.374,2.374,2.3666,2.3519,2.3446,2.3372,2.3298,2.3224,2.315,2.3075,2.3075,2.3075,2.3001,2.3001,2.3001,2.3075,2.3075,2.3001,2.3001,2.2927,2.2553,2.2187,2.2035,2.1959,3.0144,2.9822,2.9808,2.9588,2.9289,2.9099,2.8702,2.8314,2.8262,2.8365,2.8546,2.8688,2.8753,2.8931,2.8766,2.8702,2.8573,2.8444,2.8314,2.8289,2.8423,2.8316,2.8554,2.9059,2.9299,2.9714,3.0024,3.0252,3.0214,3.0762,3.109,3.1202,3.1291,3.1511,3.1582,3.1418,3.0829,3.0362,3.0319,3.025,3.014,3.0097,2.9678,2.9435,2.9435,2.918,2.8913,2.8582,2.8449,2.8422,2.8053,2.7868,2.7828,2.7696,2.7615,2.8027,2.8425,2.866,2.8686,2.8672,2.8882,2.9215,2.8855,2.8672,2.8625,2.8649,2.8822,2.8842,2.8778,2.8565,2.828,2.7973,2.7506,2.698,2.6505,2.6201,2.5707,2.5525,2.5513,2.5336,2.5336,2.5265,2.5253,2.5253,2.517,2.5182,2.5111,2.4957,2.4814,2.4539,2.4322,2.4322,2.425,2.425,2.4189,2.4116,2.397,2.3897,2.3813,2.3813,2.3813,2.3813,2.3813,2.3813,2.3801,2.3813,2.3813,2.3813,2.3801,2.3824,2.3751,2.3372,2.2927,2.2777,2.2703,3.0718,3.0478,3.0418,3.0251,3.0021,2.996,2.9727,2.9401,2.9099,2.9085,2.9184,2.9324,2.9463,2.9574,2.9463,2.9338,2.9352,2.9453,2.9421,2.9463,2.9587,2.9793,3.0076,3.0304,3.0601,3.097,3.1199,3.1199,3.1246,3.1801,3.2298,3.2543,3.2458,3.2656,3.2829,3.2817,3.2553,3.2013,3.1682,3.1474,3.1294,3.1198,3.0839,3.0416,3.051,3.0443,3.0158,2.9862,2.9659,2.9564,2.9121,2.904,2.8986,2.8866,2.8758,2.9151,2.946,2.9679,2.9699,2.9889,3.0077,3.0199,3.0303,3.0229,2.9992,2.9857,2.9783,2.9668,2.9466,2.9176,2.8825,2.8462,2.8,2.7478,2.7192,2.6859,2.6574,2.6243,2.6074,2.5955,2.5873,2.5804,2.5721,2.5721,2.5734,2.5804,2.5804,2.5721,2.5523,2.5182,2.4957,2.4886,2.4826,2.4826,2.4766,2.4694,2.4683,2.4611,2.4527,2.4527,2.4539,2.4539,2.4527,2.4527,2.4599,2.4599,2.4599,2.4599,2.4599,2.4611,2.4622,2.4383,2.4009,2.3728,2.3593,3.1364,3.1087,3.1029,3.0911,3.0687,3.0687,3.0628,3.0628,3.0021,2.9775,2.9884,2.987,3.0021,3.0172,3.0164,3.0131,3.0267,3.0482,3.0686,3.0686,3.1039,3.1265,3.1387,3.1801,3.1946,3.1989,3.2182,3.2528,3.2103,3.2649,3.3485,3.3922,3.3876,3.3901,3.3887,3.3916,3.3733,3.3525,3.3154,3.2891,3.2849,3.2666,3.24,3.1778,3.1764,3.182,3.1502,3.1171,3.076,3.0624,3.0446,3.0378,3.0201,3.0255,3.0227,3.0304,3.065,3.0806,3.0908,3.1076,3.1303,3.1489,3.1596,3.1402,3.1101,3.0729,3.0532,3.0469,3.0213,3.0035,2.973,2.9602,2.9183,2.8737,2.832,2.7901,2.7373,2.6974,2.6671,2.6564,2.6552,2.6483,2.6483,2.6483,2.6483,2.6496,2.6496,2.6483,2.6358,2.5943,2.5734,2.5581,2.5453,2.5453,2.5382,2.5312,2.5312,2.5241,2.517,2.5099,2.5111,2.5099,2.5158,2.5229,2.5312,2.537,2.537,2.537,2.5382,2.5382,2.5382,2.537,2.5087,2.4743,2.4455,3.2023,3.1754,3.1495,3.1321,3.1263,3.1263,3.1321,3.1263,3.1146,3.0851,3.0642,3.0568,3.0671,3.0878,3.1137,3.1206,3.1362,3.17,3.1974,3.2011,3.2285,3.2486,3.2465,3.2919,3.3166,3.3449,3.3704,3.3879,3.3754,3.4097,3.4368,3.4572,3.4601,3.4549,3.4549,3.4534,3.4534,3.4467,3.4332,3.3908,3.3618,3.3493,3.3129,3.2891,3.2877,3.3045,3.2764,3.2372,3.2108,3.19,3.1304,3.1003,3.0759,3.1199,3.135,3.1487,3.1744,3.182,3.187,3.1933,3.1969,3.1996,3.1996,3.2009,3.185,3.1508,3.1299,3.1123,3.1009,3.0856,3.0703,3.0611,3.0407,2.9965,2.9522,2.8866,2.8283,2.776,2.7333,2.7242,2.7242,2.7242,2.7242,2.7242,2.7242,2.7242,2.7242,2.7242,2.7255,2.6985,2.6701,2.6483,2.6208,2.6151,2.6082,2.6013,2.5943,2.5886,2.5746,2.5676,2.5676,2.5676,2.5734,2.5873,2.6013,2.6013,2.607,2.6139,2.6151,2.6151,2.6139,2.6139,2.6139,2.5861,2.5511,3.2578,3.2342,3.1992,3.1894,3.1894,3.1879,3.1879,3.1879,3.1823,3.1667,3.1394,3.1234,3.1309,3.1545,3.1944,3.2235,3.2456,3.2932,3.3089,3.3191,3.3396,3.3579,3.3791,3.4024,3.4105,3.4405,3.4677,3.4905,3.5001,3.4964,3.4949,3.4949,3.4935,3.4935,3.4935,3.4935,3.4935,3.4868,3.4817,3.4601,3.4182,3.3991,3.3756,3.3644,3.3618,3.3829,3.3801,3.3391,3.318,3.3038,3.2633,3.2466,3.2426,3.2499,3.2556,3.264,3.2708,3.2775,3.2704,3.2561,3.2489,3.2417,3.2417,3.2417,3.2345,3.2069,3.1923,3.1763,3.1629,3.1476,3.1476,3.1409,3.1383,3.1103,3.0583,3.0011,2.9345,2.8691,2.8279,2.7987,2.7987,2.7987,2.7987,2.7987,2.7987,2.7987,2.7987,2.7987,2.8,2.7934,2.7656,2.7443,2.7162,2.6905,2.6714,2.6645,2.6645,2.6452,2.6314,2.6233,2.6233,2.6233,2.6314,2.644,2.6645,2.6714,2.6782,2.6769,2.6837,2.6905,2.6905,2.6905,2.6837,2.6837,2.6564,3.3065,3.2857,3.2602,3.2508,3.2508,3.2508,3.2508,3.2453,3.2342,3.2379,3.2374,3.2076,3.2105,3.2258,3.2646,3.2911,3.3401,3.404,3.4228,3.4421,3.4762,3.4747,3.4836,3.5029,3.4999,3.5065,3.5198,3.5213,3.5198,3.5243,3.5243,3.5067,3.4986,3.4986,3.5001,3.5001,3.5016,3.5082,3.503,3.5045,3.4846,3.4563,3.4206,3.4056,3.4031,3.416,3.4286,3.4203,3.402,3.3894,3.3779,3.3585,3.3488,3.3407,3.3435,3.3437,3.3353,3.3283,3.3213,3.3143,3.3002,3.2931,3.2846,3.2846,3.2846,3.2775,3.2561,3.2489,3.2345,3.22,3.2128,3.2128,3.2101,3.2064,3.152,3.1045,3.0365,2.9644,2.9182,2.8787,2.8706,2.8706,2.8651,2.8651,2.8651,2.8651,2.8651,2.8651,2.8651,2.8522,2.8379,2.817,2.8039,2.7776,2.7456,2.7323,2.7255,2.6998,2.6863,2.6794,2.6782,2.6782,2.685,2.7066,2.7201,2.7255,2.7403,2.739,2.7523,2.7523,2.7523,2.7456,2.7456,2.7456,2.7536,3.3607,3.3346,3.3187,3.3134,3.3118,3.3118,3.3065,3.2989,3.2951,3.3162,3.3441,3.3454,3.3295,3.2957,3.4076,3.4514,3.4619,3.5238,3.5495,3.5676,3.5627,3.5688,3.5718,3.5653,3.5767,3.5767,3.5703,3.5688,3.5638,3.5748,3.5827,3.5703,3.5559,3.5494,3.5509,3.5459,3.5344,3.5344,3.5344,3.5359,3.5294,3.4986,3.4633,3.4551,3.4581,3.4721,3.4765,3.475,3.4616,3.4481,3.4264,3.4074,3.402,3.3951,3.3951,3.3951,3.3868,3.373,3.366,3.3646,3.3507,3.3521,3.3507,3.3521,3.3521,3.3521,3.3368,3.3297,3.3072,3.2717,3.2646,3.2646,3.2618,3.2467,3.2151,3.1875,3.1392,3.0604,2.9941,2.9596,2.9334,2.9173,2.9035,2.9035,2.9035,2.9035,2.9099,2.9099,2.9113,2.9035,2.9077,2.9013,2.8885,2.843,2.7973,2.7894,2.7762,2.7523,2.7403,2.7403,2.739,2.7323,2.7456,2.7603,2.7669,2.7789,2.7868,2.7987,2.8,2.8066,2.8013,2.7947,2.8013,2.8,2.8066]},{"header":{"parameterUnit":"m.s-1","parameterCategory":1,"la1":31.0,"la2":29.5877,"lo1":-88.7671,"lo2":-86.6584,"dy":0.0162,"dx":0.0185,"nx":115,"ny":88,"refTime":"2023-02-28T06:00:00:Z","depth":0,"parameterNumber":3,"parameterNumberName":"V-component_of_WINDS"},"data":[0.0,0.0,0.0,0.0,0.0,0.0,0.0,0.0,0.0,0.0,0.0,0.0,0.0,0.0,0.0,0.0,0.0,0.0,0.0,0.0,0.0,0.0,0.0,0.0,0.0,0.0,0.0,0.0,0.0,0.0,0.0,0.0,0.0,0.0,0.0,0.0,0.0,0.0,0.0,0.0,0.0,0.0,0.0,0.0,0.0,0.0,0.0,0.0,0.0,0.0,0.0,0.0,0.0,0.0,0.0,0.0,0.0,0.0,0.0,0.0,0.0,0.0,0.0,0.0,0.0,0.0,0.0,0.0,0.0,0.0,0.0,0.0,0.0,0.0,0.0,0.0,0.0,0.0,0.0,0.0,0.0,0.0,0.0,0.0,0.0,0.0,0.0,0.0,0.0,0.0,0.0,0.0,0.0,0.0,0.0,0.0,0.0,0.0,0.0,0.0,0.0,0.0,0.0,0.0,0.0,0.0,0.0,0.0,0.0,0.0,0.0,0.0,0.0,0.0,0.0,0.0,0.0,0.0,0.0,0.0,0.0,0.0,0.0,0.0,0.0,0.0,0.0,0.0,0.0,0.0,0.0,0.0,0.0,0.0,0.0,0.0,0.0,0.0,0.0,0.0,0.0,0.0,0.0,0.0,0.0,0.0,0.0,0.0,0.0,0.0,0.0,0.0,0.0,0.0,0.0,0.0,0.0,0.0,0.0,0.0,0.0,0.0,0.0,0.0,0.0,0.0,0.0,0.0,0.0,0.0,0.0,0.0,0.0,0.0,0.0,0.0,0.0,0.0,0.0,0.0,0.0,0.0,0.0,0.0,0.0,0.0,0.0,0.0,0.0,0.0,0.0,0.0,0.0,0.0,0.0,0.0,0.0,0.0,0.0,0.0,0.0,0.0,0.0,0.0,0.0,0.0,0.0,0.0,0.0,0.0,0.0,0.0,0.0,0.0,0.0,0.0,0.0,0.0,0.0,0.0,0.0,0.0,0.0,0.0,0.0,0.0,0.0,0.0,0.0,0.0,0.0,0.0,0.0,0.0,0.0,0.0,0.0,0.0,0.0,0.0,0.0,0.0,0.0,0.0,0.0,0.0,0.0,0.0,0.0,0.0,0.0,0.0,0.0,0.0,0.0,0.0,0.0,0.0,0.0,0.0,0.0,0.0,0.0,0.0,0.0,0.0,0.0,0.0,0.0,0.0,0.0,0.0,0.0,0.0,0.0,0.0,0.0,0.0,0.0,0.0,0.0,0.0,0.0,0.0,0.0,0.0,0.0,0.0,0.0,0.0,0.0,0.0,0.0,0.0,0.0,0.0,0.0,0.0,0.0,0.0,0.0,0.0,0.0,0.0,0.0,0.0,0.0,0.0,0.0,0.0,0.0,0.0,0.0,0.0,0.0,0.0,0.0,0.0,0.0,0.0,0.0,0.0,0.0,0.0,0.0,0.0,0.0,0.0,0.0,0.0,0.0,0.0,0.0,0.0,0.0,0.0,0.0,0.0,0.0,0.0,0.0,0.0,0.0,0.0,0.0,0.0,0.0,0.0,0.0,0.0,0.0,0.0,0.0,0.0,0.0,0.0,0.0,0.0,0.0,0.0,0.0,0.0,0.0,0.0,0.0,0.0,0.0,0.0,0.0,0.0,0.0,0.0,0.0,0.0,0.0,0.0,0.0,0.0,0.0,0.0,0.0,0.0,0.0,0.0,0.0,0.0,0.0,0.0,0.0,0.0,0.0,0.0,0.0,0.0,0.0,0.0,0.0,0.0,0.0,0.0,0.0,0.0,0.0,0.0,0.0,0.0,0.0,0.0,0.0,0.0,0.0,0.0,0.0,0.0,0.0,0.0,0.0,0.0,0.0,0.0,0.0,0.0,0.0,0.0,0.0,0.0,0.0,0.0,0.0,0.0,0.0,0.0,0.0,0.0,0.0,0.0,0.0,0.0,0.0,0.0,0.0,0.0,0.0,0.0,0.0,0.0,0.0,0.0,0.0,0.0,0.0,0.0,0.0,0.0,0.0,0.0,0.0,0.0,0.0,0.0,0.0,0.0,0.0,0.0,0.0,0.0,0.0,0.0,0.0,0.0,0.0,0.0,0.0,0.0,0.0,0.0,0.0,0.0,0.0,0.0,0.0,0.0,0.0,0.0,0.0,0.0,0.0,0.0,0.0,0.0,0.0,0.0,0.0,0.0,0.0,0.0,0.0,0.0,0.0,0.0,0.0,0.0,0.0,0.0,0.0,0.0,0.0,0.0,0.0,0.0,0.0,0.0,0.0,0.0,0.0,0.0,0.0,0.0,0.0,0.0,0.0,0.0,0.0,0.0,0.0,0.0,0.0,0.0,0.0,0.0,0.0,0.0,0.0,0.0,0.0,0.0,0.0,0.0,0.0,0.0,0.0,0.0,0.0,0.0,0.0,0.0,0.0,0.0,0.0,0.0,0.0,0.0,0.0,0.0,0.0,0.0,0.0,0.0,0.0,0.0,0.0,0.0,0.0,0.0,0.0,0.0,0.0,0.0,0.0,0.0,0.0,0.0,0.0,0.0,0.0,0.0,0.0,0.0,0.0,0.0,0.0,0.0,0.0,0.0,0.0,0.0,0.0,0.0,0.0,0.0,0.0,0.0,0.0,0.0,0.0,0.0,0.0,0.0,0.0,0.0,0.0,0.0,0.0,0.0,0.0,0.0,0.0,0.0,0.0,0.0,0.0,0.0,0.0,0.0,0.0,0.0,0.0,0.0,0.0,0.0,0.0,0.0,0.0,0.0,0.0,0.0,0.0,0.0,0.0,0.0,0.0,0.0,0.0,0.0,0.0,0.0,0.0,0.0,0.0,0.0,0.0,0.0,0.0,0.0,0.0,0.0,0.0,0.0,0.0,0.0,0.0,0.0,0.0,0.0,0.0,0.0,0.0,0.0,0.0,0.0,0.0,0.0,0.0,0.0,0.0,0.0,0.0,0.0,0.0,0.0,0.0,0.0,0.0,0.0,0.0,0.0,0.0,0.0,0.0,0.0,0.0,0.0,0.0,0.0,0.0,0.0,0.0,0.0,0.0,0.0,0.0,0.0,0.0,0.0,0.0,0.0,0.0,0.0,0.0,0.0,0.0,0.0,0.0,0.0,0.0,0.0,0.0,0.0,0.0,0.0,0.0,0.0,0.0,0.0,0.0,0.0,0.0,0.0,0.0,0.0,0.0,0.0,0.0,0.0,0.0,0.0,0.0,0.0,0.0,0.0,0.0,0.0,0.0,0.0,0.0,0.0,0.0,0.0,0.0,0.0,0.0,0.0,0.0,0.0,0.0,0.0,0.0,0.0,0.0,0.0,0.0,0.0,0.0,0.0,0.0,0.0,0.0,0.0,0.0,0.0,0.0,0.0,0.0,0.0,0.0,0.0,0.0,0.0,0.0,0.0,0.0,0.0,0.0,0.0,0.0,0.0,0.0,0.0,0.0,0.0,0.0,0.0,0.0,0.0,0.0,0.0,0.0,0.0,0.0,0.0,0.0,0.0,0.0,0.0,0.0,0.0,0.0,0.0,0.0,0.0,0.0,0.0,0.0,0.0,0.0,0.0,0.0,0.0,0.0,0.0,0.0,0.0,0.0,0.0,0.0,0.0,0.0,0.0,0.0,0.0,0.0,0.0,0.0,0.0,0.0,0.0,0.0,0.0,0.0,0.0,0.0,0.0,0.0,0.0,0.0,0.0,0.0,0.0,0.0,0.0,0.0,0.0,0.0,0.0,0.0,0.0,0.0,0.0,0.0,0.0,0.0,0.0,0.0,0.0,0.0,0.0,0.0,0.0,0.0,0.0,0.0,0.0,0.0,0.0,0.0,0.0,0.0,0.0,0.0,0.0,0.0,0.0,0.0,0.0,0.0,0.0,0.0,0.0,0.0,0.0,0.0,0.0,0.0,0.0,0.0,0.0,0.0,0.0,0.0,0.0,0.0,0.0,0.0,0.0,0.0,0.0,0.0,0.0,0.0,0.0,0.0,0.0,0.0,0.0,0.0,0.0,0.0,0.0,0.0,0.0,0.0,0.0,0.0,0.0,0.0,0.0,0.0,0.0,0.0,0.0,0.0,0.0,0.0,0.0,0.0,0.0,0.0,0.0,0.0,0.0,0.0,0.0,0.0,0.0,0.0,0.0,0.0,0.0,0.0,0.0,0.0,0.0,0.0,0.0,0.0,0.0,0.0,0.0,0.0,0.0,0.0,0.0,0.0,0.0,0.0,0.0,0.0,0.0,0.0,0.0,0.0,0.0,0.0,0.0,0.0,0.0,-2.4021,0.0,0.0,0.0,0.0,0.0,0.0,0.0,0.0,0.0,0.0,0.0,0.0,0.0,0.0,0.0,0.0,0.0,0.0,0.0,0.0,0.0,0.0,0.0,0.0,0.0,0.0,0.0,0.0,0.0,0.0,0.0,0.0,0.0,0.0,0.0,0.0,0.0,0.0,0.0,0.0,0.0,0.0,0.0,0.0,0.0,0.0,0.0,0.0,0.0,0.0,0.0,0.0,0.0,0.0,0.0,0.0,0.0,0.0,0.0,0.0,0.0,0.0,0.0,0.0,0.0,0.0,0.0,0.0,0.0,0.0,0.0,0.0,0.0,0.0,0.0,0.0,0.0,0.0,0.0,0.0,0.0,0.0,0.0,0.0,0.0,0.0,0.0,0.0,0.0,0.0,0.0,0.0,0.0,0.0,0.0,0.0,0.0,0.0,0.0,0.0,0.0,0.0,0.0,0.0,0.0,0.0,0.0,0.0,0.0,0.0,-2.4343,-2.4302,-2.4302,-2.4343,-2.4369,0.0,0.0,0.0,0.0,0.0,0.0,0.0,0.0,0.0,0.0,0.0,0.0,0.0,0.0,0.0,0.0,0.0,0.0,0.0,0.0,0.0,0.0,0.0,0.0,0.0,0.0,0.0,0.0,0.0,0.0,0.0,0.0,0.0,0.0,0.0,0.0,0.0,0.0,0.0,0.0,0.0,0.0,0.0,0.0,0.0,0.0,0.0,0.0,0.0,0.0,0.0,0.0,0.0,0.0,0.0,0.0,0.0,0.0,0.0,0.0,0.0,0.0,0.0,0.0,0.0,0.0,0.0,0.0,0.0,0.0,0.0,0.0,0.0,0.0,0.0,0.0,0.0,0.0,0.0,0.0,0.0,0.0,0.0,0.0,0.0,0.0,0.0,0.0,0.0,0.0,0.0,0.0,0.0,0.0,0.0,0.0,0.0,0.0,0.0,0.0,0.0,0.0,0.0,0.0,0.0,0.0,0.0,0.0,0.0,0.0,0.0,0.0,-2.4589,-2.463,-2.463,0.0,0.0,0.0,0.0,0.0,0.0,0.0,0.0,0.0,0.0,0.0,0.0,0.0,0.0,0.0,0.0,0.0,0.0,0.0,0.0,0.0,0.0,0.0,0.0,0.0,0.0,0.0,0.0,0.0,0.0,0.0,0.0,0.0,0.0,0.0,0.0,0.0,0.0,0.0,0.0,0.0,0.0,0.0,0.0,0.0,0.0,0.0,0.0,0.0,0.0,0.0,0.0,0.0,0.0,0.0,0.0,0.0,0.0,0.0,0.0,0.0,0.0,0.0,0.0,0.0,0.0,0.0,0.0,0.0,0.0,0.0,0.0,0.0,0.0,0.0,0.0,0.0,0.0,0.0,0.0,0.0,0.0,0.0,0.0,0.0,0.0,0.0,0.0,0.0,0.0,0.0,0.0,0.0,0.0,0.0,0.0,0.0,0.0,0.0,0.0,0.0,0.0,0.0,0.0,0.0,0.0,0.0,0.0,0.0,0.0,-2.4742,-2.4589,-2.4589,0.0,-2.4782,0.0,0.0,0.0,0.0,0.0,0.0,0.0,0.0,0.0,0.0,0.0,0.0,0.0,0.0,0.0,0.0,0.0,0.0,0.0,0.0,0.0,0.0,0.0,0.0,0.0,0.0,0.0,0.0,0.0,0.0,0.0,0.0,0.0,0.0,0.0,0.0,0.0,0.0,0.0,0.0,0.0,0.0,0.0,0.0,0.0,0.0,0.0,0.0,0.0,0.0,0.0,0.0,0.0,0.0,0.0,0.0,0.0,0.0,0.0,0.0,0.0,0.0,0.0,0.0,0.0,0.0,0.0,0.0,0.0,0.0,0.0,0.0,0.0,0.0,0.0,0.0,0.0,0.0,0.0,0.0,0.0,0.0,0.0,0.0,0.0,0.0,0.0,0.0,0.0,0.0,0.0,0.0,0.0,0.0,0.0,0.0,0.0,0.0,0.0,0.0,0.0,0.0,0.0,0.0,0.0,0.0,0.0,0.0,0.0,0.0,-2.4989,-2.5005,-2.4989,-2.506,0.0,0.0,0.0,0.0,0.0,0.0,0.0,0.0,0.0,0.0,0.0,0.0,0.0,0.0,0.0,0.0,0.0,0.0,0.0,0.0,0.0,0.0,0.0,0.0,0.0,0.0,0.0,0.0,0.0,0.0,0.0,0.0,0.0,0.0,0.0,0.0,0.0,0.0,0.0,0.0,0.0,0.0,0.0,0.0,0.0,0.0,0.0,0.0,0.0,0.0,0.0,0.0,0.0,0.0,0.0,0.0,0.0,0.0,0.0,0.0,0.0,0.0,0.0,0.0,0.0,0.0,0.0,0.0,0.0,0.0,0.0,0.0,0.0,0.0,0.0,0.0,0.0,0.0,0.0,0.0,0.0,0.0,0.0,0.0,0.0,0.0,0.0,0.0,0.0,0.0,0.0,0.0,0.0,0.0,0.0,0.0,0.0,0.0,0.0,0.0,0.0,0.0,0.0,0.0,0.0,0.0,0.0,0.0,0.0,0.0,-2.5146,-2.5201,-2.5294,-2.5294,-2.5294,-2.5294,0.0,0.0,0.0,0.0,0.0,0.0,0.0,0.0,0.0,0.0,0.0,0.0,0.0,0.0,0.0,0.0,0.0,0.0,0.0,0.0,0.0,0.0,0.0,0.0,0.0,0.0,0.0,0.0,0.0,0.0,0.0,0.0,0.0,0.0,0.0,0.0,0.0,0.0,0.0,0.0,0.0,0.0,0.0,0.0,0.0,0.0,0.0,0.0,0.0,0.0,0.0,0.0,0.0,0.0,0.0,0.0,0.0,0.0,0.0,0.0,0.0,0.0,0.0,0.0,0.0,0.0,0.0,0.0,0.0,0.0,0.0,0.0,0.0,0.0,0.0,0.0,0.0,0.0,0.0,0.0,0.0,0.0,0.0,0.0,0.0,0.0,0.0,0.0,0.0,0.0,0.0,0.0,0.0,0.0,0.0,0.0,0.0,0.0,0.0,0.0,0.0,0.0,0.0,0.0,0.0,0.0,0.0,0.0,-2.5294,-2.5294,-2.5294,-2.5294,-2.5294,-2.5294,0.0,0.0,0.0,0.0,0.0,0.0,0.0,0.0,0.0,0.0,0.0,0.0,0.0,0.0,0.0,0.0,0.0,0.0,0.0,0.0,0.0,0.0,0.0,0.0,0.0,0.0,0.0,0.0,0.0,0.0,0.0,0.0,0.0,0.0,0.0,0.0,0.0,0.0,0.0,0.0,0.0,0.0,0.0,0.0,0.0,0.0,0.0,0.0,0.0,0.0,0.0,0.0,0.0,0.0,0.0,0.0,0.0,0.0,0.0,0.0,0.0,0.0,0.0,0.0,0.0,0.0,0.0,0.0,0.0,0.0,0.0,0.0,0.0,0.0,0.0,0.0,0.0,0.0,0.0,0.0,0.0,0.0,0.0,0.0,0.0,0.0,0.0,0.0,0.0,0.0,0.0,0.0,0.0,0.0,0.0,0.0,0.0,0.0,0.0,0.0,0.0,0.0,0.0,0.0,0.0,0.0,0.0,0.0,0.0,-2.5355,-2.5448,-2.5502,-2.5486,-2.5546,-2.5567,0.0,0.0,0.0,0.0,0.0,0.0,0.0,0.0,0.0,0.0,0.0,0.0,0.0,0.0,0.0,0.0,0.0,0.0,0.0,0.0,0.0,0.0,0.0,0.0,0.0,0.0,0.0,0.0,0.0,0.0,0.0,0.0,0.0,0.0,0.0,0.0,0.0,0.0,0.0,0.0,0.0,0.0,0.0,0.0,0.0,0.0,0.0,0.0,0.0,0.0,0.0,0.0,0.0,0.0,0.0,0.0,0.0,0.0,0.0,0.0,0.0,0.0,0.0,0.0,0.0,0.0,0.0,0.0,0.0,0.0,0.0,0.0,0.0,0.0,0.0,0.0,0.0,0.0,0.0,0.0,0.0,0.0,0.0,0.0,0.0,0.0,0.0,0.0,0.0,0.0,0.0,0.0,0.0,0.0,0.0,0.0,0.0,0.0,0.0,0.0,0.0,0.0,0.0,0.0,0.0,0.0,0.0,0.0,0.0,-2.5492,0.0,-2.5675,-2.5712,-2.577,-2.5775,0.0,0.0,0.0,0.0,0.0,0.0,0.0,0.0,0.0,0.0,0.0,0.0,0.0,0.0,0.0,0.0,0.0,0.0,0.0,0.0,0.0,0.0,0.0,0.0,0.0,0.0,0.0,0.0,0.0,0.0,0.0,0.0,0.0,0.0,0.0,0.0,0.0,0.0,0.0,0.0,0.0,0.0,0.0,0.0,0.0,0.0,0.0,0.0,0.0,0.0,0.0,0.0,0.0,0.0,0.0,0.0,0.0,0.0,0.0,0.0,0.0,0.0,0.0,0.0,0.0,0.0,0.0,0.0,0.0,0.0,0.0,0.0,0.0,0.0,0.0,0.0,0.0,0.0,0.0,0.0,0.0,0.0,0.0,0.0,0.0,0.0,0.0,0.0,0.0,0.0,0.0,0.0,0.0,0.0,0.0,0.0,0.0,0.0,0.0,0.0,0.0,0.0,0.0,0.0,0.0,0.0,0.0,0.0,-2.5621,-2.5717,-2.5844,-2.5897,-2.5897,-2.599,-2.6026,0.0,0.0,0.0,0.0,0.0,0.0,0.0,0.0,0.0,0.0,0.0,0.0,0.0,0.0,0.0,0.0,0.0,0.0,0.0,0.0,0.0,0.0,0.0,0.0,0.0,0.0,0.0,0.0,0.0,0.0,0.0,0.0,0.0,0.0,0.0,0.0,0.0,0.0,0.0,0.0,0.0,0.0,0.0,0.0,0.0,0.0,0.0,0.0,0.0,0.0,0.0,0.0,0.0,0.0,0.0,0.0,0.0,0.0,0.0,0.0,0.0,0.0,0.0,0.0,0.0,0.0,0.0,0.0,0.0,0.0,0.0,0.0,0.0,0.0,0.0,0.0,0.0,0.0,0.0,0.0,0.0,0.0,0.0,0.0,0.0,0.0,0.0,0.0,0.0,0.0,0.0,0.0,0.0,0.0,0.0,0.0,0.0,0.0,0.0,0.0,0.0,0.0,0.0,0.0,0.0,0.0,0.0,0.0,0.0,-2.5901,-2.5937,-2.6026,-2.6099,-2.6225,-2.6279,0.0,0.0,0.0,0.0,0.0,0.0,0.0,0.0,0.0,0.0,0.0,0.0,0.0,0.0,0.0,0.0,0.0,0.0,0.0,0.0,0.0,0.0,0.0,0.0,0.0,0.0,0.0,0.0,0.0,0.0,0.0,0.0,0.0,0.0,0.0,0.0,0.0,0.0,0.0,0.0,0.0,0.0,0.0,0.0,0.0,0.0,0.0,0.0,0.0,0.0,0.0,0.0,0.0,0.0,0.0,0.0,0.0,0.0,0.0,0.0,0.0,0.0,0.0,0.0,0.0,0.0,0.0,0.0,0.0,0.0,0.0,0.0,0.0,0.0,0.0,0.0,0.0,0.0,0.0,0.0,0.0,0.0,0.0,0.0,0.0,0.0,0.0,0.0,0.0,0.0,0.0,0.0,0.0,0.0,0.0,0.0,0.0,0.0,0.0,0.0,0.0,0.0,0.0,0.0,0.0,0.0,0.0,0.0,0.0,-2.7219,-2.6881,-2.6783,-2.687,-2.6993,-2.6894,-2.6674,0.0,0.0,0.0,0.0,0.0,0.0,0.0,0.0,0.0,0.0,0.0,0.0,0.0,0.0,0.0,0.0,0.0,0.0,0.0,0.0,0.0,0.0,0.0,0.0,0.0,0.0,0.0,0.0,0.0,0.0,0.0,0.0,0.0,0.0,0.0,0.0,0.0,0.0,0.0,0.0,0.0,0.0,0.0,0.0,0.0,0.0,0.0,0.0,0.0,0.0,0.0,0.0,0.0,0.0,0.0,0.0,0.0,0.0,0.0,0.0,0.0,0.0,0.0,0.0,0.0,0.0,0.0,0.0,0.0,0.0,0.0,0.0,0.0,0.0,0.0,0.0,0.0,0.0,0.0,0.0,0.0,0.0,0.0,0.0,0.0,0.0,0.0,0.0,0.0,0.0,0.0,0.0,0.0,0.0,0.0,0.0,0.0,0.0,0.0,0.0,0.0,0.0,0.0,0.0,0.0,0.0,0.0,0.0,-2.9402,-2.8629,-2.8235,-2.8254,-2.8237,-2.7877,0.0,0.0,0.0,0.0,0.0,0.0,0.0,0.0,0.0,0.0,0.0,0.0,0.0,0.0,0.0,0.0,0.0,0.0,0.0,0.0,0.0,0.0,0.0,0.0,0.0,0.0,0.0,0.0,0.0,0.0,0.0,0.0,0.0,0.0,0.0,0.0,0.0,0.0,0.0,0.0,0.0,0.0,0.0,0.0,0.0,0.0,0.0,0.0,0.0,0.0,0.0,0.0,0.0,0.0,0.0,0.0,0.0,0.0,0.0,0.0,0.0,0.0,0.0,0.0,0.0,0.0,0.0,0.0,0.0,0.0,0.0,0.0,0.0,0.0,0.0,0.0,0.0,0.0,0.0,0.0,0.0,0.0,0.0,0.0,0.0,0.0,0.0,0.0,0.0,0.0,0.0,0.0,0.0,0.0,0.0,0.0,0.0,0.0,0.0,0.0,0.0,0.0,0.0,0.0,0.0,0.0,0.0,0.0,0.0,-3.0543,-3.1638,-3.1795,-3.0975,-2.997,-2.934,0.0,0.0,0.0,0.0,0.0,0.0,0.0,0.0,0.0,0.0,0.0,0.0,0.0,0.0,0.0,0.0,0.0,0.0,0.0,0.0,0.0,0.0,0.0,0.0,0.0,0.0,0.0,0.0,0.0,0.0,0.0,0.0,0.0,0.0,0.0,0.0,0.0,0.0,0.0,0.0,0.0,0.0,0.0,0.0,0.0,0.0,0.0,0.0,0.0,0.0,0.0,0.0,0.0,0.0,0.0,0.0,0.0,0.0,0.0,0.0,0.0,0.0,0.0,0.0,0.0,0.0,0.0,0.0,0.0,0.0,0.0,0.0,0.0,0.0,0.0,0.0,0.0,0.0,0.0,0.0,0.0,0.0,0.0,0.0,0.0,0.0,0.0,0.0,0.0,0.0,0.0,0.0,0.0,0.0,0.0,0.0,0.0,0.0,0.0,0.0,0.0,0.0,0.0,0.0,0.0,0.0,0.0,0.0,-3.1336,-3.2313,-3.4391,-3.5172,-3.4535,-3.1976,-3.048,0.0,0.0,0.0,0.0,0.0,0.0,0.0,0.0,0.0,0.0,0.0,0.0,0.0,0.0,0.0,0.0,0.0,0.0,0.0,0.0,0.0,0.0,0.0,0.0,0.0,0.0,0.0,0.0,0.0,0.0,0.0,0.0,0.0,0.0,0.0,0.0,0.0,0.0,0.0,0.0,0.0,0.0,0.0,0.0,0.0,0.0,0.0,0.0,0.0,0.0,0.0,0.0,0.0,0.0,0.0,0.0,0.0,0.0,0.0,0.0,0.0,0.0,0.0,0.0,0.0,0.0,0.0,0.0,0.0,0.0,0.0,0.0,0.0,0.0,0.0,0.0,0.0,0.0,0.0,0.0,0.0,0.0,0.0,0.0,0.0,0.0,0.0,0.0,0.0,0.0,0.0,0.0,0.0,0.0,0.0,0.0,0.0,0.0,0.0,0.0,0.0,0.0,0.0,0.0,0.0,0.0,0.0,0.0,-3.3146,-3.4267,-3.6676,-3.7967,-3.7943,-3.4049,-3.1599,0.0,0.0,0.0,0.0,0.0,0.0,0.0,0.0,0.0,0.0,0.0,0.0,0.0,0.0,0.0,0.0,0.0,0.0,0.0,0.0,0.0,0.0,0.0,0.0,0.0,0.0,0.0,0.0,0.0,0.0,0.0,0.0,0.0,0.0,0.0,0.0,0.0,0.0,0.0,0.0,0.0,0.0,0.0,0.0,0.0,0.0,0.0,0.0,0.0,0.0,0.0,0.0,0.0,0.0,0.0,0.0,0.0,0.0,0.0,0.0,0.0,0.0,0.0,0.0,0.0,0.0,0.0,0.0,0.0,0.0,0.0,0.0,0.0,0.0,0.0,0.0,0.0,0.0,0.0,0.0,0.0,0.0,0.0,0.0,0.0,0.0,0.0,0.0,0.0,0.0,0.0,0.0,0.0,0.0,0.0,0.0,0.0,0.0,0.0,0.0,0.0,0.0,0.0,0.0,0.0,0.0,0.0,0.0,-3.3893,-3.5444,-3.7376,-3.8382,-3.8396,-3.5507,-3.3593,0.0,0.0,0.0,0.0,0.0,0.0,0.0,0.0,0.0,0.0,0.0,0.0,0.0,0.0,0.0,0.0,0.0,0.0,0.0,0.0,0.0,0.0,0.0,0.0,0.0,0.0,0.0,0.0,0.0,0.0,0.0,0.0,0.0,0.0,0.0,0.0,0.0,0.0,0.0,0.0,0.0,0.0,0.0,0.0,0.0,0.0,0.0,0.0,-2.8328,0.0,0.0,0.0,0.0,0.0,0.0,0.0,0.0,0.0,0.0,0.0,0.0,0.0,0.0,0.0,0.0,0.0,0.0,0.0,0.0,0.0,0.0,0.0,0.0,0.0,0.0,0.0,0.0,0.0,0.0,0.0,0.0,0.0,0.0,0.0,0.0,0.0,0.0,0.0,0.0,0.0,0.0,0.0,0.0,0.0,0.0,0.0,0.0,0.0,0.0,0.0,0.0,0.0,0.0,0.0,0.0,0.0,0.0,0.0,-3.4564,-3.6655,-3.8033,-3.8803,-3.8762,-3.7153,-3.5404,0.0,0.0,0.0,0.0,0.0,0.0,0.0,0.0,0.0,0.0,0.0,0.0,0.0,0.0,0.0,0.0,0.0,0.0,0.0,0.0,0.0,0.0,0.0,0.0,0.0,0.0,0.0,0.0,0.0,0.0,0.0,0.0,0.0,0.0,0.0,0.0,0.0,0.0,0.0,0.0,0.0,0.0,0.0,0.0,0.0,0.0,0.0,0.0,0.0,0.0,0.0,0.0,0.0,0.0,0.0,0.0,0.0,0.0,0.0,0.0,0.0,0.0,0.0,0.0,0.0,0.0,0.0,0.0,0.0,0.0,0.0,0.0,0.0,0.0,0.0,0.0,0.0,0.0,0.0,0.0,0.0,0.0,0.0,0.0,0.0,0.0,0.0,0.0,0.0,0.0,0.0,0.0,0.0,0.0,0.0,0.0,0.0,0.0,0.0,0.0,0.0,0.0,0.0,0.0,0.0,0.0,0.0,-3.3421,-3.5209,-3.7859,-3.8757,-3.9184,-3.9277,-3.8536,-3.6826,-3.4039,0.0,0.0,0.0,0.0,0.0,0.0,0.0,0.0,0.0,0.0,0.0,0.0,0.0,0.0,0.0,0.0,0.0,0.0,0.0,0.0,0.0,0.0,0.0,0.0,0.0,0.0,0.0,0.0,0.0,0.0,0.0,0.0,0.0,0.0,0.0,0.0,0.0,0.0,-2.7226,-2.7188,0.0,0.0,0.0,0.0,0.0,0.0,0.0,0.0,-2.8785,0.0,0.0,0.0,0.0,0.0,0.0,0.0,0.0,0.0,0.0,0.0,0.0,0.0,0.0,0.0,0.0,0.0,0.0,0.0,0.0,0.0,0.0,0.0,0.0,0.0,0.0,0.0,0.0,0.0,0.0,0.0,0.0,0.0,0.0,0.0,0.0,0.0,0.0,0.0,0.0,0.0,0.0,0.0,0.0,0.0,0.0,0.0,0.0,0.0,0.0,0.0,0.0,0.0,0.0,0.0,0.0,-3.3677,-3.4037,-3.585,-3.9083,-3.9402,-3.9558,-3.9577,-3.8799,-3.7145,-3.4708,0.0,0.0,0.0,0.0,0.0,0.0,0.0,0.0,0.0,0.0,0.0,0.0,0.0,0.0,0.0,0.0,0.0,0.0,0.0,0.0,0.0,0.0,0.0,0.0,0.0,0.0,0.0,0.0,0.0,0.0,0.0,0.0,0.0,0.0,0.0,0.0,0.0,0.0,0.0,-2.7722,-2.7664,0.0,0.0,0.0,0.0,0.0,0.0,0.0,0.0,-2.9755,0.0,0.0,0.0,0.0,0.0,0.0,0.0,0.0,0.0,0.0,0.0,0.0,0.0,0.0,0.0,0.0,0.0,0.0,0.0,0.0,0.0,0.0,0.0,0.0,0.0,0.0,0.0,0.0,0.0,0.0,0.0,0.0,0.0,0.0,0.0,0.0,0.0,0.0,0.0,0.0,0.0,0.0,0.0,0.0,0.0,0.0,0.0,0.0,0.0,0.0,0.0,0.0,0.0,0.0,0.0,-3.4106,-3.4869,-3.6641,-3.9584,-3.9804,-3.986,-3.9886,-3.9134,-3.7509,0.0,0.0,0.0,0.0,0.0,0.0,0.0,0.0,0.0,0.0,0.0,0.0,0.0,0.0,0.0,0.0,0.0,0.0,0.0,0.0,0.0,0.0,0.0,0.0,0.0,0.0,0.0,0.0,0.0,0.0,0.0,0.0,0.0,0.0,0.0,0.0,0.0,0.0,0.0,0.0,-2.8421,-2.8535,-2.9449,0.0,0.0,0.0,0.0,0.0,0.0,-3.1066,-3.1164,0.0,0.0,0.0,0.0,0.0,0.0,0.0,0.0,0.0,0.0,0.0,0.0,0.0,0.0,0.0,0.0,0.0,0.0,0.0,0.0,0.0,0.0,0.0,0.0,0.0,0.0,0.0,0.0,0.0,0.0,0.0,0.0,0.0,0.0,0.0,0.0,0.0,0.0,0.0,0.0,0.0,0.0,0.0,0.0,0.0,0.0,0.0,0.0,0.0,0.0,0.0,0.0,0.0,0.0,0.0,-3.4513,-3.5565,-3.7371,-3.9882,-4.0118,-4.0176,-4.0172,-3.9279,-3.7677,0.0,0.0,0.0,0.0,0.0,0.0,0.0,0.0,0.0,0.0,0.0,0.0,0.0,0.0,0.0,0.0,0.0,0.0,0.0,0.0,0.0,0.0,0.0,0.0,0.0,0.0,0.0,0.0,0.0,0.0,0.0,0.0,0.0,0.0,0.0,0.0,0.0,0.0,0.0,0.0,0.0,-2.9455,-3.0467,-3.0089,0.0,0.0,0.0,0.0,-3.1733,-3.2462,0.0,0.0,0.0,0.0,0.0,0.0,0.0,0.0,0.0,0.0,0.0,0.0,0.0,0.0,0.0,0.0,0.0,0.0,0.0,0.0,0.0,0.0,0.0,0.0,0.0,0.0,0.0,0.0,0.0,0.0,0.0,0.0,0.0,0.0,0.0,0.0,0.0,0.0,0.0,0.0,0.0,0.0,0.0,0.0,0.0,0.0,0.0,0.0,0.0,0.0,0.0,0.0,0.0,0.0,0.0,0.0,-3.4775,-3.5854,-3.7641,-4.0177,-4.0344,-4.0408,-4.0441,-3.8939,-3.7252,0.0,0.0,0.0,0.0,0.0,0.0,0.0,0.0,0.0,0.0,0.0,0.0,0.0,0.0,0.0,0.0,0.0,0.0,0.0,0.0,0.0,0.0,0.0,0.0,0.0,0.0,0.0,0.0,0.0,0.0,0.0,0.0,0.0,0.0,0.0,0.0,0.0,0.0,0.0,0.0,0.0,-2.9933,-3.1595,-3.111,-3.0982,0.0,0.0,-3.3405,-3.3707,-3.4441,0.0,0.0,0.0,0.0,0.0,0.0,0.0,0.0,0.0,0.0,0.0,0.0,0.0,0.0,0.0,0.0,0.0,0.0,0.0,0.0,0.0,0.0,0.0,0.0,0.0,0.0,0.0,0.0,0.0,0.0,0.0,0.0,0.0,0.0,0.0,0.0,0.0,0.0,0.0,0.0,0.0,0.0,0.0,0.0,0.0,0.0,0.0,0.0,0.0,0.0,0.0,0.0,0.0,0.0,0.0,-3.2914,-3.5064,-3.6523,-3.8306,-4.0419,-4.0504,-4.0545,-4.0602,-3.9,-3.73,0.0,0.0,0.0,0.0,0.0,0.0,0.0,0.0,0.0,0.0,0.0,0.0,0.0,0.0,0.0,0.0,0.0,0.0,0.0,0.0,0.0,0.0,0.0,0.0,0.0,0.0,0.0,0.0,0.0,0.0,0.0,0.0,0.0,0.0,0.0,0.0,0.0,0.0,0.0,0.0,0.0,0.0,-3.2127,-3.2327,0.0,0.0,0.0,-3.4481,-3.4303,0.0,0.0,0.0,0.0,0.0,0.0,0.0,0.0,0.0,0.0,0.0,0.0,0.0,0.0,0.0,0.0,0.0,0.0,0.0,0.0,0.0,0.0,0.0,0.0,0.0,0.0,0.0,0.0,0.0,0.0,0.0,0.0,0.0,0.0,0.0,0.0,0.0,0.0,0.0,0.0,0.0,0.0,0.0,0.0,0.0,0.0,0.0,0.0,0.0,0.0,0.0,0.0,0.0,0.0,0.0,0.0,0.0,-3.5326,-3.706,-3.8825,-4.0577,-4.0642,-4.0668,-4.0711,-3.9306,0.0,0.0,0.0,0.0,0.0,0.0,0.0,0.0,0.0,0.0,0.0,0.0,0.0,0.0,0.0,0.0,0.0,0.0,0.0,0.0,0.0,0.0,0.0,0.0,0.0,0.0,0.0,-2.9444,0.0,0.0,0.0,0.0,0.0,0.0,0.0,0.0,0.0,0.0,0.0,0.0,0.0,0.0,-3.2447,-3.2773,-3.3506,-3.4247,0.0,0.0,-3.5627,-3.5437,-3.713,-3.774,0.0,0.0,0.0,0.0,0.0,0.0,0.0,0.0,0.0,0.0,0.0,0.0,0.0,0.0,0.0,0.0,0.0,0.0,0.0,0.0,0.0,0.0,0.0,0.0,0.0,0.0,0.0,0.0,0.0,0.0,0.0,0.0,0.0,0.0,0.0,0.0,0.0,0.0,0.0,0.0,0.0,0.0,0.0,0.0,0.0,0.0,0.0,0.0,0.0,0.0,0.0,0.0,0.0,0.0,-3.3618,-3.5464,-3.7199,-3.8955,-4.0713,-4.0792,-4.0787,-4.0789,-3.9945,-3.8306,0.0,0.0,0.0,0.0,0.0,0.0,0.0,0.0,0.0,0.0,0.0,0.0,0.0,0.0,0.0,0.0,0.0,0.0,0.0,0.0,0.0,0.0,0.0,0.0,0.0,0.0,0.0,0.0,0.0,0.0,0.0,0.0,0.0,0.0,0.0,0.0,0.0,0.0,0.0,0.0,0.0,-3.2923,-3.385,-3.4626,-3.574,0.0,-3.7243,-3.7111,-3.7953,-3.8879,-3.8964,-3.736,0.0,0.0,0.0,0.0,0.0,0.0,0.0,0.0,0.0,0.0,0.0,0.0,0.0,0.0,0.0,0.0,0.0,0.0,0.0,0.0,0.0,0.0,0.0,0.0,0.0,0.0,0.0,0.0,0.0,0.0,0.0,0.0,0.0,0.0,0.0,0.0,0.0,0.0,0.0,0.0,0.0,0.0,0.0,0.0,0.0,0.0,0.0,0.0,0.0,0.0,0.0,0.0,0.0,-3.3793,-3.5604,-3.7301,-3.9057,-4.0776,-4.0856,-4.0868,-4.0907,-4.0111,-3.8702,0.0,0.0,0.0,0.0,0.0,0.0,0.0,0.0,0.0,0.0,0.0,0.0,0.0,0.0,0.0,0.0,0.0,0.0,0.0,0.0,0.0,0.0,0.0,0.0,0.0,0.0,0.0,0.0,-3.1304,-3.1302,-3.0719,0.0,0.0,0.0,0.0,0.0,0.0,0.0,0.0,0.0,0.0,-3.4124,-3.5609,-3.6503,0.0,0.0,-3.8047,-3.783,-3.7731,-3.8461,-3.8504,-3.6878,-3.6008,0.0,0.0,0.0,0.0,0.0,0.0,0.0,0.0,0.0,0.0,0.0,0.0,0.0,0.0,0.0,0.0,0.0,0.0,0.0,0.0,0.0,0.0,0.0,0.0,0.0,0.0,0.0,0.0,0.0,0.0,0.0,0.0,0.0,0.0,0.0,0.0,0.0,0.0,0.0,0.0,0.0,0.0,0.0,0.0,0.0,0.0,0.0,0.0,0.0,0.0,0.0,0.0,-3.3935,-3.5708,-3.7405,-3.9112,-4.0898,-4.0917,-4.0956,-4.0971,-4.0407,-3.9307,0.0,0.0,0.0,0.0,0.0,0.0,0.0,0.0,0.0,0.0,0.0,0.0,0.0,0.0,0.0,0.0,0.0,0.0,0.0,0.0,0.0,0.0,0.0,0.0,0.0,0.0,0.0,0.0,-3.1597,-3.1522,-3.0863,0.0,0.0,0.0,0.0,0.0,0.0,0.0,0.0,0.0,0.0,-3.5165,-3.6429,-3.7309,-3.7906,-3.8109,-3.7948,-3.7726,-3.7427,-3.7924,-3.7984,-3.6844,0.0,0.0,0.0,0.0,0.0,0.0,0.0,0.0,0.0,0.0,0.0,0.0,0.0,0.0,0.0,0.0,0.0,0.0,0.0,0.0,0.0,0.0,0.0,0.0,0.0,0.0,0.0,-3.0184,0.0,0.0,-3.0095,0.0,0.0,0.0,0.0,0.0,0.0,0.0,0.0,0.0,0.0,0.0,0.0,0.0,0.0,0.0,0.0,0.0,0.0,0.0,0.0,0.0,0.0,-3.4048,-3.5788,-3.7506,-3.9241,-4.0929,-4.0996,-4.0988,-4.0996,-4.0976,-4.014,-3.8415,0.0,0.0,0.0,0.0,0.0,0.0,0.0,0.0,0.0,0.0,0.0,0.0,0.0,0.0,0.0,0.0,0.0,0.0,0.0,0.0,0.0,0.0,0.0,0.0,0.0,0.0,-2.9998,-3.0581,-3.1034,0.0,0.0,0.0,0.0,0.0,0.0,0.0,0.0,0.0,-3.2025,-3.4217,-3.5822,-3.6031,-3.6732,-3.7341,-3.7505,-3.6843,-3.6597,-3.7452,-3.7624,-3.7624,0.0,0.0,0.0,0.0,0.0,0.0,0.0,0.0,0.0,0.0,0.0,0.0,0.0,0.0,0.0,0.0,0.0,0.0,0.0,0.0,0.0,0.0,0.0,0.0,0.0,0.0,0.0,-3.134,-3.1255,0.0,0.0,0.0,0.0,0.0,0.0,0.0,0.0,0.0,0.0,0.0,-3.4186,-3.4202,0.0,0.0,0.0,0.0,0.0,0.0,0.0,0.0,0.0,0.0,0.0,0.0,-3.4124,-3.5864,-3.7557,-3.9256,-4.0937,-4.0996,-4.0984,-4.0979,-4.0979,-4.0208,-3.8501,0.0,0.0,0.0,0.0,0.0,0.0,0.0,0.0,0.0,0.0,0.0,0.0,0.0,0.0,0.0,0.0,0.0,0.0,0.0,0.0,0.0,0.0,0.0,0.0,0.0,-3.1028,0.0,0.0,0.0,0.0,0.0,0.0,0.0,0.0,0.0,0.0,0.0,-3.2238,-3.3693,-3.4617,-3.5583,-3.6821,-3.7218,-3.7619,0.0,0.0,0.0,0.0,0.0,0.0,0.0,0.0,0.0,0.0,0.0,0.0,0.0,0.0,-3.5902,-3.4807,-3.5051,-3.5649,-3.624,0.0,0.0,0.0,0.0,0.0,0.0,0.0,0.0,0.0,0.0,0.0,0.0,0.0,0.0,-3.2214,-3.1902,-3.2182,0.0,0.0,0.0,0.0,0.0,0.0,0.0,0.0,-3.4494,-3.525,-3.6114,-3.6125,-3.6133,0.0,-3.5313,-3.3843,0.0,0.0,0.0,0.0,0.0,0.0,0.0,0.0,-3.4043,-3.547,-3.7417,-3.913,-4.0512,-4.0882,-4.1025,-4.1032,-4.1032,-4.0533,-3.9435,-3.8279,-3.6851,0.0,0.0,0.0,0.0,0.0,0.0,0.0,0.0,0.0,0.0,0.0,0.0,0.0,0.0,0.0,0.0,0.0,0.0,0.0,0.0,0.0,0.0,0.0,-3.129,0.0,0.0,0.0,0.0,0.0,0.0,0.0,0.0,0.0,-3.1506,-3.2204,-3.3355,-3.5097,-3.5571,-3.6102,-3.7015,0.0,0.0,0.0,0.0,0.0,0.0,0.0,-3.6444,-3.6246,-3.6454,-3.6865,-3.7502,-3.782,-3.8007,-3.8007,0.0,0.0,-3.6636,-3.6856,-3.7442,-3.8009,-3.8183,-3.8208,-3.8201,-3.8268,-3.8313,0.0,0.0,0.0,0.0,0.0,0.0,0.0,0.0,-3.3558,-3.3076,0.0,-3.3131,0.0,0.0,0.0,0.0,-3.3316,-3.4059,0.0,0.0,-3.745,-3.7914,-3.7261,-3.726,-3.7242,-3.7164,-3.6442,-3.5605,-3.4703,-3.3783,0.0,0.0,0.0,0.0,0.0,0.0,-3.3804,-3.4725,-3.7205,-3.892,-3.9805,-4.0662,-4.111,-4.111,-4.111,-4.1091,-4.1033,-3.9481,-3.8553,-3.8436,-3.5235,0.0,0.0,0.0,0.0,0.0,0.0,0.0,0.0,0.0,0.0,0.0,0.0,0.0,0.0,0.0,0.0,0.0,0.0,0.0,0.0,-3.1284,0.0,0.0,0.0,0.0,0.0,0.0,0.0,0.0,0.0,0.0,-3.2616,-3.3241,-3.4357,-3.6008,0.0,0.0,0.0,0.0,-3.7118,-3.5684,-3.5396,-3.545,-3.5492,-3.614,-3.6945,-3.775,0.0,0.0,-3.9277,-3.8604,-3.8142,-3.8104,-3.8815,-3.908,-3.8315,-3.8194,-3.826,-3.835,-3.8382,-3.8298,-3.8303,-3.8512,-3.8507,-3.5389,0.0,0.0,0.0,0.0,-3.4881,-3.539,-3.6171,-3.6184,-3.604,-3.5782,-3.5994,0.0,0.0,0.0,0.0,0.0,0.0,-3.6273,-3.7688,-3.8221,-3.8948,-3.9877,-3.9929,-3.9948,-3.9935,-3.9101,-3.8229,-3.7371,-3.6548,-3.4745,-3.2099,0.0,0.0,0.0,0.0,-3.4117,-3.5615,-3.7513,-3.8926,-3.9778,-4.0643,-4.111,-4.111,-4.111,-4.1085,-4.1013,-4.0545,-3.9707,-3.8474,-3.7467,0.0,0.0,0.0,0.0,0.0,0.0,0.0,0.0,0.0,0.0,0.0,0.0,0.0,0.0,0.0,0.0,0.0,0.0,0.0,-3.1314,-3.2327,-3.2349,0.0,0.0,0.0,0.0,0.0,0.0,0.0,0.0,0.0,-3.5238,-3.4956,-3.4899,0.0,0.0,-3.5876,-3.5672,-3.638,-3.6971,-3.7121,-3.7156,0.0,-3.7923,-3.7731,-3.7594,-3.7874,-3.8654,-3.9277,-3.9296,-3.9565,-3.9777,-3.9758,-4.0038,-4.0145,-3.9957,-3.9879,-3.9874,-3.9953,-4.0031,-4.0055,-4.006,-4.0076,-4.0089,-3.8439,-3.7909,-3.657,-3.6205,-3.6501,-3.6509,-3.7021,-3.7823,-3.7832,-3.7616,-3.7323,-3.7628,-3.7094,-3.594,-3.5949,0.0,0.0,0.0,-3.7878,-3.9541,-3.9541,-4.0067,-4.1008,-4.1085,-4.1113,-4.1078,-4.0558,-3.9705,-3.8531,-3.7692,-3.589,-3.3204,0.0,-3.243,-3.2656,-3.3476,-3.4429,-3.5516,-3.7464,-3.8756,-3.9277,-4.0474,-4.111,-4.111,-4.1085,-4.1039,-4.0986,-4.0984,-4.0466,-3.9431,-3.8695,-3.7191,0.0,0.0,0.0,0.0,0.0,0.0,0.0,0.0,0.0,0.0,0.0,-3.1196,-3.0647,0.0,0.0,0.0,-3.2683,-3.2844,-3.2794,-3.3333,0.0,0.0,0.0,0.0,0.0,0.0,0.0,-3.357,-3.4852,-3.5946,-3.6495,-3.638,-3.6364,-3.6744,-3.6799,-3.6719,-3.6366,0.0,-3.7705,-3.7913,-3.7932,-3.812,-3.8585,-3.8562,-3.8562,-3.8881,-3.9377,-3.9758,-3.9796,-4.0181,-4.0469,-4.0523,-4.0539,-4.0603,-4.0588,-4.0621,-4.0668,-4.0733,-4.0759,-4.0803,-4.0808,-4.0804,-4.0818,-4.1039,-4.0842,-3.7726,-3.6882,-3.7575,-3.7594,-3.8063,-3.8785,-3.8799,-3.8355,-3.767,-3.8436,-3.791,-3.6406,-3.6385,0.0,-3.8787,-3.8723,-3.9576,-4.1094,-4.1114,-4.1114,-4.1116,-4.1112,-4.1113,-4.1113,-4.1035,-4.0176,-3.8613,-3.7714,-3.6404,-3.4741,-3.4702,-3.4272,-3.3473,-3.4193,-3.4636,-3.4725,-3.7086,-3.8395,-3.8614,-4.022,-4.1085,-4.1085,-4.1032,-4.0986,-4.0979,-4.0924,-4.0888,-4.084,-3.9282,-3.7947,-3.6872,0.0,0.0,0.0,0.0,0.0,0.0,0.0,0.0,0.0,0.0,0.0,0.0,0.0,0.0,0.0,-3.4708,0.0,-3.5207,-3.4471,0.0,0.0,0.0,-3.4112,-3.4908,-3.5172,-3.5319,-3.5372,0.0,0.0,-3.6891,-3.7589,-3.8396,-3.9125,-3.909,-3.8741,-3.8005,-3.86,-3.8942,-3.8243,-3.82,-3.8219,-3.8454,-3.895,-3.9604,-4.0219,-4.0489,-4.045,-4.045,-4.0485,-4.0489,-4.0523,-4.0573,-4.0603,-4.0626,-4.0668,-4.0713,-4.079,-4.0803,-4.0803,-4.08,-4.0804,-4.0837,-4.1039,-4.1019,-4.0218,-4.0023,-4.018,-4.02,-4.032,-4.0503,-4.0489,-4.0394,-4.0216,-4.0413,-4.0283,-3.9879,-3.99,-4.0115,-4.0505,-4.0507,-4.0702,-4.1093,-4.1113,-4.1113,-4.1113,-4.1111,-4.1107,-4.106,-4.0455,-3.9635,-3.86,-3.7723,-3.6424,-3.4781,-3.4697,-3.4251,-3.3457,-3.3591,-3.4053,-3.4703,-3.5955,-3.7508,-3.9364,-4.0468,-4.1025,-4.103,-4.1023,-4.0988,-4.0915,-4.0917,-4.0849,-4.0742,-4.0339,-3.9071,-3.6864,-3.5586,0.0,0.0,0.0,0.0,0.0,0.0,0.0,0.0,0.0,-3.1055,-3.0456,0.0,-3.248,0.0,-3.5431,-3.6785,-3.6101,-3.6369,0.0,0.0,-3.4737,-3.4965,-3.5799,-3.654,-3.7014,-3.7014,-3.7882,-3.8534,-3.86,-3.8834,-3.9302,-4.0087,-3.9148,-3.8234,-3.8027,-3.8723,-3.9204,-3.9084,-3.9469,-3.9912,-3.9892,-4.0065,-4.0312,-4.0469,-4.0508,-4.0489,-4.0508,-4.0489,-4.0523,-4.0573,-4.0564,-4.0607,-4.0668,-4.0713,-4.0771,-4.0796,-4.0808,-4.08,-4.0815,-4.0837,-4.0868,-4.1025,-4.1039,-4.1078,-4.11,-4.11,-4.1109,-4.1117,-4.1101,-4.1108,-4.1108,-4.1108,-4.1108,-4.1114,-4.1101,-4.1101,-4.1101,-4.1101,-4.1101,-4.1101,-4.1101,-4.1101,-4.1101,-4.1101,-4.1101,-4.0901,-4.0561,-4.0073,-3.9214,-3.8043,-3.7516,-3.6589,-3.5312,-3.5286,-3.4849,-3.3999,-3.359,-3.3643,-3.4131,-3.5728,-3.7576,-3.9623,-4.0551,-4.0809,-4.0435,-4.0388,-4.0168,-3.9753,-3.9733,-3.9661,-3.9598,-3.9528,-3.8664,-3.679,-3.5864,-3.4424,0.0,0.0,0.0,0.0,0.0,0.0,0.0,0.0,0.0,0.0,0.0,-3.3906,-3.4318,-3.6706,-3.7851,-3.6957,-3.7262,-3.7261,-3.6671,-3.6576,-3.6917,-3.7769,-3.8364,-3.8747,-3.8766,-3.9296,-3.9704,-3.9772,-3.9826,-4.0039,-4.054,-3.9822,-3.9229,-3.9206,-3.9576,-3.9865,-3.9869,-4.02,-4.0662,-4.1008,-4.1085,-4.12,-4.1566,-4.1662,-4.1643,-4.1643,-4.1659,-4.1574,-4.1262,-4.1191,-4.1079,-4.0797,-4.0746,-4.0803,-4.0808,-4.0812,-4.0815,-4.0837,-4.0877,-4.0888,-4.0984,-4.1006,-4.1085,-4.1117,-4.1114,-4.11,-4.1113,-4.1113,-4.1104,-4.1108,-4.1108,-4.1108,-4.1108,-4.1108,-4.1108,-4.1108,-4.1108,-4.1108,-4.1108,-4.1108,-4.1108,-4.1049,-4.0952,-4.0932,-4.0522,-3.9741,-3.9566,-3.8726,-3.7321,-3.7187,-3.6682,-3.5862,-3.5856,-3.5405,-3.4546,-3.3775,-3.3383,-3.3418,-3.5904,-3.7903,-3.9344,-4.0217,-4.0291,-3.9546,-3.9451,-3.9073,-3.8345,-3.8214,-3.8187,-3.8157,-3.8045,-3.7642,-3.6858,-3.5959,-3.4757,0.0,-3.2367,0.0,0.0,0.0,0.0,0.0,0.0,0.0,0.0,-3.4857,-3.577,-3.674,-3.8097,-3.8633,-3.7985,-3.787,-3.8096,-3.8757,-3.885,-3.9134,-3.9797,-3.9996,-4.0098,-4.0176,-4.0309,-4.0396,-4.0444,-4.0554,-4.0593,-4.0617,-4.0602,-4.0519,-4.0579,-4.053,-4.0515,-4.0523,-4.0585,-4.1046,-4.1758,-4.195,-4.222,-4.2874,-4.297,-4.3085,-4.3006,-4.3018,-4.2842,-4.2236,-4.1991,-4.1724,-4.099,-4.0855,-4.0815,-4.08,-4.0815,-4.0837,-4.0877,-4.0888,-4.0898,-4.0976,-4.1003,-4.1078,-4.111,-4.1117,-4.1106,-4.1105,-4.1113,-4.1104,-4.1108,-4.1108,-4.1108,-4.1108,-4.1108,-4.1108,-4.1108,-4.1108,-4.1108,-4.1108,-4.1108,-4.1108,-4.0756,-4.0151,-4.0132,-3.9663,-3.884,-3.8121,-3.7614,-3.7282,-3.6578,-3.58,-3.496,-3.4953,-3.4524,-3.3675,0.0,0.0,0.0,-3.5869,-3.7345,-3.7591,-3.8438,-3.8753,-3.85,-3.847,0.0,-3.8237,-3.816,-3.8092,-3.805,-3.7959,0.0,0.0,0.0,0.0,0.0,0.0,0.0,0.0,0.0,0.0,0.0,-3.5394,-3.5391,-3.4952,-3.573,-3.6892,-3.8381,-3.8802,-3.9147,-3.9584,-3.9602,-3.9618,-3.9665,-3.9683,-3.9759,-3.9911,-3.9975,-4.0057,-4.0117,-4.0253,-4.0342,-4.0408,-4.0523,-4.0617,-4.066,-4.0687,-4.0687,-4.0693,-4.067,-4.0588,-4.0611,-4.1155,-4.1873,-4.2739,-4.2854,-4.2912,-4.3085,-4.3085,-4.314,-4.3192,-4.3169,-4.3142,-4.2932,-4.2439,-4.2027,-4.1745,-4.1228,-4.0839,-4.0815,-4.0837,-4.0877,-4.0897,-4.0908,-4.0898,-3.9711,-3.9711,-3.9793,-3.9825,0.0,-3.9819,-3.9813,-3.9876,-4.0734,-4.1108,-4.1108,-4.1108,-4.1108,-4.1108,-4.1108,-4.0873,-4.0522,-4.0503,-4.0288,-3.9858,-3.9858,-3.9644,-3.9253,-3.9259,-3.8817,-3.7961,-3.7512,-3.7083,-3.6654,-3.6211,-3.5778,-3.5339,-3.5321,-3.5108,-3.4666,-3.5021,-3.4996,-3.4549,-3.6268,-3.7522,-3.8287,-3.9121,-3.9323,-3.8818,-3.8735,0.0,0.0,0.0,0.0,0.0,0.0,0.0,0.0,-3.7222,0.0,-3.6274,-3.5856,-3.578,-3.6139,-3.6177,-3.6518,-3.7313,-3.7792,-3.7776,-3.7028,-3.7791,-3.8688,-3.9546,-3.9604,-3.9738,-4.0059,-4.0077,-4.0015,-3.9911,-3.9889,-3.9889,-3.9911,-3.9954,-3.9996,-4.0057,-4.0158,-4.027,-4.0321,-4.0457,-4.0573,-4.0631,-4.066,-4.0828,-4.1189,-4.0944,-4.0747,-4.1176,-4.1936,-4.2752,-4.3541,-4.3734,-4.3926,-4.4234,-4.4366,-4.438,-4.4376,-4.4407,-4.4326,-4.3945,-4.3535,-4.3085,-4.2144,-4.1667,-4.1335,-4.0912,-4.0867,-4.0888,-4.0898,-4.0898,-4.0888,-3.8408,-3.8415,-3.8488,-3.8525,-3.8505,-3.8517,-3.8506,-3.8608,-4.0028,0.0,0.0,-4.0662,-4.0665,-4.0667,-4.0667,-4.0296,-3.9691,-3.9671,-3.9298,-3.8615,-3.8615,-3.8517,-3.838,-3.8371,-3.7909,-3.7089,-3.7069,-3.6698,-3.6034,-3.5991,-3.5977,-3.5981,-3.5992,-3.6011,-3.6144,-3.6747,-3.688,-3.6506,-3.7014,-3.7948,-3.9234,-3.9956,-3.9946,-3.9168,-3.9089,-3.8705,-3.7997,-3.7901,-3.782,-3.7766,-3.7695,-3.7698,-3.7776,-3.7717,-3.7428,-3.6856,-3.6736,-3.6996,-3.7653,-3.7709,-3.8275,-3.9595,-3.9823,-3.9652,-3.9128,-3.9757,-4.0215,-4.0253,-4.0215,-4.0138,-4.0096,-4.0017,-3.9975,-3.9911,-3.9889,-3.9889,-3.9889,-3.9954,-3.9975,-3.9977,-4.0118,-4.0196,-4.027,-4.0375,-4.0508,-4.0573,-4.0757,-4.1166,-4.187,-4.1672,-4.1575,-4.2343,-4.3007,-4.3647,-4.438,-4.463,-4.4919,-4.5439,-4.5587,-4.57,-4.5715,-4.5746,-4.5491,-4.4849,-4.4689,-4.3987,-4.2821,-4.2421,-4.202,-4.1183,-4.108,-4.1082,-4.0956,-4.0907,-4.0888,-3.8415,-3.8475,-3.8486,-3.8516,-3.8516,-3.8506,-3.8537,-3.8603,-3.884,-3.8957,-3.8961,-3.8954,-3.8941,-3.8944,-3.8944,-3.8905,-3.8788,-3.8788,-3.871,-3.8612,-3.8612,-3.8202,-3.7499,-3.748,-3.703,-3.6233,-3.6202,-3.6114,-3.5997,-3.5938,-3.5924,-3.5914,-3.5922,-3.6242,-3.6884,-3.6987,-3.7656,-3.8949,-3.8401,-3.8227,-3.8384,-3.8459,-3.8395,-3.8209,-3.8185,-3.8012,-3.7836,-3.7787,-3.7714,-3.7622,-3.7565,-3.7826,-3.8491,-3.8442,-3.8599,-3.9058,-3.9067,-3.91,-3.9151,-3.9188,-3.9306,-3.9566,-3.9758,-3.981,-3.9859,-4.0019,-4.0098,-4.0137,-4.0137,-4.0077,-4.0017,-3.9996,-3.9975,-3.9911,-3.9889,-3.9889,-3.9889,-3.9911,-3.9933,-3.9996,-4.0096,-4.0157,-4.0196,-4.0288,-4.0394,-4.0608,-4.1293,-4.1998,-4.2753,-4.2946,-4.3217,-4.3901,-4.4214,-4.4658,-4.5221,-4.5507,-4.551,-4.5661,-4.568,-4.5715,-4.5765,-4.5781,-4.5737,-4.5631,-4.509,-4.4548,-4.4103,-4.3602,-4.2879,-4.211,-4.1912,-4.1722,-4.1121,-4.0946,-4.0907,-3.7079,-3.7091,-3.7138,-3.7162,-3.7181,-3.7647,-3.7858,-3.7945,-3.8394,-3.8607,-3.8607,-3.861,-3.8613,-3.8612,-3.8606,-3.8327,-3.7878,-3.7897,-3.7643,-3.7214,-3.7175,-3.6979,-3.6608,-3.6589,-3.6384,-3.6013,-3.5977,-3.5948,-3.5953,-3.5914,-3.5891,-3.584,-3.5818,-3.6218,-3.7017,-3.7422,-3.8187,-3.9335,-3.9076,-3.9083,-3.9436,-3.9427,-3.9354,-3.926,-3.9193,-3.9141,-3.9108,-3.9052,-3.8955,-3.8858,-3.8809,-3.8912,-3.9169,-3.9077,-3.9175,-3.9464,-3.9446,-3.9458,-3.9458,-3.9439,-3.9464,-3.9496,-3.9575,-3.9684,-3.9764,-3.993,-4.0057,-4.0096,-4.0057,-4.0036,-3.9996,-3.9954,-3.9933,-3.9892,-3.9889,-3.9889,-3.9889,-3.9889,-3.9911,-3.9933,-3.9996,-4.0058,-4.0138,-4.0215,-4.0499,-4.1065,-4.2194,-4.3261,-4.375,-4.4203,-4.4446,-4.4504,-4.4816,-4.5244,-4.5629,-4.5687,-4.5687,-4.5687,-4.5684,-4.5715,-4.575,-4.575,-4.5746,-4.5742,-4.5413,-4.5046,-4.4675,-4.4272,-4.3679,-4.293,-4.2366,-4.1962,-4.1604,-4.1207,-4.0878,-3.5914,-3.5919,-3.5977,-3.6111,-3.6375,-3.7216,-3.7577,-3.7635,-3.8318,-3.8571,-3.8572,-3.8591,-3.8609,-3.858,-3.8596,-3.8092,-3.7371,-3.7273,-3.6805,-3.604,-3.5958,-3.5997,-3.5977,-3.5977,-3.5973,-3.5963,-3.5908,-3.5883,-3.5869,-3.5879,-3.5852,-3.5803,-3.5902,-3.6415,-3.7226,-3.7977,-3.8742,-3.9485,-3.9576,-3.9894,-4.0434,-4.0457,-4.0375,-4.0289,-4.0215,-4.0158,-4.0118,-4.0095,-3.9992,-3.9845,-3.9815,-3.9727,-3.957,-3.9458,-3.9383,-3.9343,-3.9301,-3.9293,-3.9293,-3.9293,-3.932,-3.9317,-3.9401,-3.9477,-3.9558,-3.9754,-3.9933,-3.9994,-3.9973,-3.9933,-3.9911,-3.987,-3.9867,-3.9867,-3.9848,-3.9845,-3.9867,-3.9867,-3.9889,-3.9889,-3.9933,-4.0015,-4.0096,-4.029,-4.0941,-4.2145,-4.3369,-4.419,-4.457,-4.5163,-4.5216,-4.4983,-4.523,-4.5629,-4.569,-4.5671,-4.5687,-4.5671,-4.5684,-4.57,-4.5715,-4.568,-4.568,-4.5696,-4.5696,-4.5426,-4.4916,-4.4815,-4.4476,-4.373,-4.3157,-4.2613,-4.2083,-4.1346,-4.0826,-3.5948,-3.5992,-3.6009,-3.6467,-3.7265,-3.8105,-3.8435,-3.8405,-3.8505,-3.851,-3.8619,-3.8584,-3.8604,-3.8512,-3.8512,-3.8044,-3.7288,-3.722,-3.6787,-3.6046,-3.5899,-3.5914,-3.5953,-3.5914,-3.5922,-3.5891,-3.5833,-3.582,-3.5806,-3.5799,-3.5775,-3.5805,-3.6439,-3.7185,-3.7983,-3.8724,-3.9473,-4.0268,-4.0243,-4.0281,-4.0386,-4.0286,-4.0233,-4.0196,-4.0157,-4.0057,-3.9933,-3.9911,-3.9804,-3.9665,-3.9575,-3.9502,-3.9401,-3.9245,-3.9137,-3.911,-3.9036,-3.8968,-3.8968,-3.9007,-3.9064,-3.9129,-3.9245,-3.935,-3.942,-3.9502,-3.9599,-3.9712,-3.9712,-3.9754,-3.9735,-3.9712,-3.9754,-3.9754,-3.9735,-3.9712,-3.9735,-3.9781,-3.9804,-3.9804,-3.9867,-3.9933,-4.0127,-4.0796,-4.1886,-4.3309,-4.3904,-4.4461,-4.5017,-4.5266,-4.5419,-4.5303,-4.5545,-4.5648,-4.5684,-4.568,-4.5668,-4.5684,-4.57,-4.5665,-4.5648,-4.5665,-4.568,-4.5632,-4.5665,-4.5587,-4.5565,-4.5561,-4.5252,-4.4553,-4.4081,-4.3761,-4.2415,-4.1403,-4.0905,-3.5962,-3.6044,-3.6548,-3.7246,-3.8081,-3.8932,-3.9306,-3.9316,-3.9823,-4.0023,-3.998,-4.0,-3.9466,-3.8502,-3.8441,-3.8221,-3.7915,-3.7897,-3.7715,-3.7345,-3.6865,-3.6618,-3.6566,-3.6066,-3.5845,-3.583,-3.5768,-3.5743,-3.5726,-3.5649,-3.5867,-3.6335,-3.6665,-3.7439,-3.8661,-3.8969,-3.9478,-4.0267,-4.0215,-4.0177,-4.0177,-4.0158,-4.0099,-4.0041,-3.9977,-3.9848,-3.9758,-3.9717,-3.9628,-3.9494,-3.9433,-3.9324,-3.9219,-3.9101,-3.9017,-3.8979,-3.8921,-3.891,-3.891,-3.8939,-3.895,-3.8979,-3.9073,-3.9129,-3.9156,-3.9219,-3.9298,-3.935,-3.9526,-3.9623,-3.9623,-3.9665,-3.9708,-3.9708,-3.9708,-3.9708,-3.9708,-3.9712,-3.9735,-3.9735,-3.9777,-4.0049,-4.0722,-4.1908,-4.3003,-4.3871,-4.4296,-4.4834,-4.5222,-4.5279,-4.53,-4.5341,-4.5419,-4.5457,-4.5512,-4.553,-4.553,-4.553,-4.553,-4.553,-4.553,-4.553,-4.553,-4.553,-4.5547,-4.5547,-4.5565,-4.5565,-4.5428,-4.4999,-4.4527,-4.3921,-4.229,-4.1672,-4.1299,-3.615,-3.6506,-3.7519,-3.8309,-3.8915,-3.9798,-4.014,-4.0208,-4.0818,-4.102,-4.0972,-4.0976,-4.0303,-3.9273,-3.9103,-3.8979,-3.8758,-3.8716,-3.8591,-3.8338,-3.77,-3.743,-3.7325,-3.6783,-3.6347,-3.6124,-3.6086,-3.5901,-3.5706,-3.5809,-3.6138,-3.6708,-3.7137,-3.7939,-3.8999,-3.92,-3.9585,-4.0081,-4.0077,-3.9975,-3.9933,-3.9933,-3.9916,-3.984,-3.9769,-3.9693,-3.9561,-3.9532,-3.9439,-3.9314,-3.9261,-3.9156,-3.9064,-3.8979,-3.891,-3.8851,-3.8851,-3.8822,-3.8803,-3.8803,-3.8803,-3.8803,-3.8815,-3.8862,-3.8921,-3.8979,-3.9017,-3.9064,-3.9272,-3.9427,-3.9477,-3.957,-3.9594,-3.9637,-3.9637,-3.9637,-3.9679,-3.9684,-3.9703,-3.9703,-3.9953,-4.0505,-4.1633,-4.2839,-4.3725,-4.4117,-4.4634,-4.5061,-4.5125,-4.517,-4.5192,-4.5254,-4.5254,-4.5277,-4.5341,-4.54,-4.54,-4.54,-4.5419,-4.5419,-4.54,-4.54,-4.54,-4.5457,-4.5419,-4.5419,-4.5495,-4.5475,-4.5475,-4.5374,-4.4889,-4.4058,-4.2983,-4.246,-4.1975,-3.6484,-3.7441,-3.9002,-3.9648,-3.9805,-4.0641,-4.098,-4.0863,-4.0984,-4.0968,-4.0904,-4.0917,-4.0849,-4.0684,-4.0615,-4.0293,-3.9625,-3.9539,-3.9141,-3.8501,-3.8307,-3.8218,-3.8147,-3.8089,-3.7622,-3.6903,-3.6829,-3.6446,-3.5727,-3.6281,-3.6646,-3.6715,-3.8065,-3.8857,-3.909,-3.9661,-4.002,-3.9996,-3.9889,-3.9762,-3.9717,-3.9599,-3.959,-3.9675,-3.9637,-3.9513,-3.9402,-3.9357,-3.9261,-3.9125,-3.9036,-3.8968,-3.8918,-3.884,-3.878,-3.8719,-3.8707,-3.864,-3.8559,-3.8541,-3.8541,-3.8523,-3.8541,-3.859,-3.8719,-3.8762,-3.8803,-3.8822,-3.895,-3.9073,-3.921,-3.9335,-3.9451,-3.9476,-3.952,-3.9527,-3.9602,-3.9669,-3.9693,-3.9905,-4.0532,-4.1556,-4.3089,-4.3448,-4.3951,-4.4461,-4.4833,-4.4938,-4.4986,-4.5057,-4.508,-4.5103,-4.5103,-4.5148,-4.5275,-4.5319,-4.5359,-4.5379,-4.5341,-4.5381,-4.54,-4.54,-4.54,-4.54,-4.5381,-4.54,-4.54,-4.54,-4.5438,-4.5266,-4.4881,-4.4132,-4.3613,-4.3286,-4.2823,-3.7645,-3.8939,-3.9541,-4.0072,-4.059,-4.0909,-4.0996,-4.0926,-4.0898,-4.0849,-4.0837,-4.0804,-4.075,-4.0776,-4.0781,-4.0629,-4.038,-4.0328,-4.0122,-3.9774,-3.9274,-3.898,-3.8865,-3.8357,-3.7964,-3.7654,-3.7555,-3.7343,-3.7057,-3.7223,-3.7594,-3.8057,-3.8537,-3.9051,-3.9543,-3.9783,-3.9889,-3.9804,-3.9651,-3.9575,-3.9452,-3.935,-3.9301,-3.9252,-3.9327,-3.9309,-3.9222,-3.9138,-3.9073,-3.8952,-3.8921,-3.8847,-3.8768,-3.8614,-3.8528,-3.8496,-3.8496,-3.8496,-3.8465,-3.8446,-3.8446,-3.8446,-3.8446,-3.8465,-3.8478,-3.8528,-3.8559,-3.8559,-3.8634,-3.8725,-3.8892,-3.9092,-3.9283,-3.9309,-3.9373,-3.9469,-3.9502,-3.9546,-3.9783,-4.0472,-4.1613,-4.2806,-4.3295,-4.3912,-4.4372,-4.4662,-4.4764,-4.477,-4.4815,-4.484,-4.4846,-4.4846,-4.487,-4.4919,-4.4943,-4.5125,-4.5192,-4.5213,-4.5235,-4.5258,-4.5279,-4.532,-4.5339,-4.5339,-4.5339,-4.532,-4.532,-4.538,-4.538,-4.5323,-4.4921,-4.4633,-4.4269,-4.3943,-4.3539,-3.874,-3.9728,-4.0071,-4.0478,-4.0924,-4.0935,-4.0917,-4.0856,-4.0792,-4.0769,-4.0732,-4.0675,-4.0668,-4.0626,-4.0612,-4.0626,-4.0662,-4.0662,-4.0662,-4.059,-4.0042,-3.9725,-3.9572,-3.9056,-3.8627,-3.8278,-3.7939,-3.7778,-3.7752,-3.7927,-3.8309,-3.8764,-3.8911,-3.9304,-3.9772,-3.9735,-3.9623,-3.9575,-3.9477,-3.935,-3.9219,-3.9156,-3.9045,-3.899,-3.899,-3.9034,-3.9036,-3.8955,-3.8892,-3.8826,-3.8725,-3.8627,-3.8611,-3.8488,-3.8382,-3.8382,-3.8382,-3.8401,-3.8368,-3.8368,-3.8368,-3.8336,-3.8336,-3.8354,-3.8354,-3.8368,-3.835,-3.8382,-3.8415,-3.8528,-3.864,-3.8815,-3.8998,-3.9101,-3.9248,-3.9328,-3.9418,-3.9687,-4.0386,-4.1432,-4.2433,-4.3257,-4.367,-4.4213,-4.4476,-4.4578,-4.456,-4.4587,-4.4632,-4.4659,-4.4685,-4.4712,-4.4745,-4.477,-4.4796,-4.4919,-4.5038,-4.5061,-4.5148,-4.517,-4.517,-4.5213,-4.5254,-4.5254,-4.5254,-4.5254,-4.5275,-4.5317,-4.5357,-4.5378,-4.5244,-4.4996,-4.4786,-4.4652,-4.4288,-3.976,-3.9879,-4.0626,-4.0896,-4.0877,-4.0837,-4.0804,-4.0776,-4.0726,-4.0654,-4.0593,-4.0583,-4.0539,-4.0508,-4.0422,-4.0406,-4.0422,-4.0523,-4.0558,-4.0485,-4.0412,-4.0361,-4.0274,-4.0178,-3.9706,-3.8988,-3.8129,-3.7697,-3.7795,-3.84,-3.8734,-3.8783,-3.9282,-3.9557,-3.9599,-3.9496,-3.9376,-3.9298,-3.9237,-3.9129,-3.9026,-3.8979,-3.891,-3.8787,-3.8738,-3.8775,-3.8854,-3.8762,-3.8695,-3.8693,-3.8535,-3.8415,-3.8401,-3.8368,-3.8382,-3.835,-3.835,-3.8336,-3.8289,-3.8274,-3.8241,-3.8207,-3.8174,-3.8174,-3.8207,-3.8241,-3.8256,-3.8307,-3.8336,-3.8382,-3.8415,-3.851,-3.8664,-3.895,-3.9064,-3.9147,-3.9314,-4.0047,-4.1203,-4.2492,-4.3071,-4.3388,-4.3986,-4.4258,-4.4296,-4.4325,-4.4354,-4.444,-4.4468,-4.4524,-4.4605,-4.4659,-4.4659,-4.4659,-4.4693,-4.4745,-4.487,-4.4943,-4.5038,-4.5103,-4.5103,-4.5125,-4.5148,-4.5167,-4.5189,-4.517,-4.5192,-4.5254,-4.5275,-4.5297,-4.5277,-4.5279,-4.5128,-4.4995,-4.513,-4.0582,-4.049,-4.0742,-4.0807,-4.0764,-4.0668,-4.0662,-4.0665,-4.0534,-4.0508,-4.0441,-4.0392,-4.0341,-4.0286,-4.0288,-4.0252,-4.0252,-4.0308,-4.0325,-4.0341,-4.0323,-4.027,-4.0271,-4.0252,-4.0063,-3.9699,-3.9356,-3.9143,-3.9094,-3.9271,-3.9354,-3.9345,-3.94,-3.9452,-3.9401,-3.9298,-3.921,-3.9101,-3.9036,-3.8921,-3.8792,-3.8713,-3.8603,-3.8541,-3.8478,-3.8488,-3.8482,-3.8506,-3.8496,-3.8478,-3.8387,-3.8271,-3.8153,-3.8088,-3.8054,-3.8054,-3.8036,-3.8072,-3.8038,-3.8038,-3.8038,-3.8003,-3.8021,-3.8021,-3.8003,-3.8003,-3.8054,-3.8088,-3.8119,-3.8153,-3.8322,-3.8354,-3.8465,-3.8762,-3.8851,-3.8987,-3.9314,-4.043,-4.1649,-4.2653,-4.3323,-4.3788,-4.4023,-4.4097,-4.4116,-4.4177,-4.4188,-4.4218,-4.4325,-4.4354,-4.4383,-4.443,-4.444,-4.4524,-4.4532,-4.4587,-4.4693,-4.4796,-4.4895,-4.4967,-4.4991,-4.5033,-4.5057,-4.5057,-4.508,-4.5103,-4.5125,-4.5148,-4.5211,-4.5233,-4.5235,-4.5256,-4.5277,-4.5298,-4.5317,-4.0829,-4.075,-4.0718,-4.0668,-4.0598,-4.0554,-4.0523,-4.0476,-4.0375,-4.0325,-4.0271,-4.0234,-4.0158,-4.0099,-4.008,-4.008,-4.0096,-4.0077,-4.0039,-4.0099,-4.0119,-4.0118,-4.0077,-4.0017,-3.9975,-3.9873,-3.9775,-3.9709,-3.9665,-3.9558,-3.9527,-3.9446,-3.9317,-3.921,-3.9137,-3.9073,-3.896,-3.8833,-3.8725,-3.867,-3.8564,-3.8415,-3.8314,-3.8249,-3.8234,-3.8223,-3.8142,-3.8156,-3.8186,-3.8223,-3.8156,-3.8072,-3.7985,-3.7881,-3.781,-3.781,-3.781,-3.7775,-3.781,-3.7846,-3.7846,-3.7864,-3.7917,-3.7917,-3.7917,-3.7917,-3.7934,-3.7951,-3.7967,-3.802,-3.8122,-3.8189,-3.8271,-3.8433,-3.8621,-3.9019,-3.9711,-4.1021,-4.2143,-4.3008,-4.3564,-4.3873,-4.3929,-4.3929,-4.3961,-4.3974,-4.4005,-4.4005,-4.4116,-4.4165,-4.4165,-4.4195,-4.4248,-4.4306,-4.4335,-4.4421,-4.4505,-4.464,-4.4764,-4.4821,-4.4846,-4.487,-4.4895,-4.4895,-4.4895,-4.4943,-4.4991,-4.5057,-4.5103,-4.5125,-4.5167,-4.517,-4.5192,-4.5192,-4.5233,-4.0706,-4.0588,-4.0574,-4.0481,-4.0389,-4.0375,-4.0342,-4.027,-4.0215,-4.0158,-4.0077,-4.0077,-3.9996,-3.9911,-3.987,-3.9848,-3.9867,-3.9804,-3.9758,-3.9739,-3.9807,-3.9889,-3.9848,-3.9739,-3.9693,-3.967,-3.9534,-3.9438,-3.9376,-3.9303,-3.9259,-3.9202,-3.9045,-3.895,-3.8844,-3.8822,-3.8683,-3.851,-3.8415,-3.8336,-3.8274,-3.8153,-3.8034,-3.7966,-3.8002,-3.7951,-3.7864,-3.7757,-3.7774,-3.7911,-3.7899,-3.7864,-3.7846,-3.7757,-3.7667,-3.7631,-3.7613,-3.7613,-3.7667,-3.7649,-3.7703,-3.7793,-3.7793,-3.7882,-3.7828,-3.7775,-3.781,-3.7864,-3.7846,-3.7899,-3.7934,-3.7985,-3.8088,-3.821,-3.8551,-3.9365,-4.091,-4.1856,-4.2533,-4.3284,-4.3667,-4.3771,-4.3719,-4.3719,-4.3753,-4.3753,-4.3753,-4.3818,-4.3865,-4.3878,-4.3929,-4.3974,-4.4036,-4.4097,-4.4147,-4.4188,-4.4306,-4.4402,-4.4532,-4.4587,-4.4693,-4.4719,-4.4764,-4.4764,-4.4745,-4.4821,-4.487,-4.4919,-4.4986,-4.5033,-4.5057,-4.508,-4.4969,-4.4817,-4.4589,-4.0534,-4.0441,-4.0392,-4.0304,-4.0196,-4.0177,-4.0157,-4.0078,-4.0017,-3.9914,-3.9826,-3.9826,-3.9717,-3.9623,-3.9599,-3.9599,-3.9599,-3.9526,-3.9477,-3.9408,-3.9401,-3.9502,-3.9551,-3.9458,-3.9401,-3.9383,-3.9289,-3.9212,-3.9165,-3.9032,-3.8992,-3.8997,-3.8785,-3.8615,-3.8541,-3.851,-3.8396,-3.8234,-3.8135,-3.807,-3.8003,-3.7863,-3.7774,-3.7721,-3.7685,-3.7649,-3.754,-3.7337,-3.7374,-3.7541,-3.754,-3.7484,-3.7484,-3.7429,-3.7392,-3.7392,-3.7354,-3.7372,-3.741,-3.741,-3.7447,-3.7465,-3.7503,-3.7449,-3.7465,-3.7449,-3.7522,-3.7613,-3.7667,-3.7757,-3.7864,-3.7935,-3.8186,-3.876,-3.913,-3.9984,-4.1298,-4.1953,-4.2408,-4.3121,-4.3339,-4.3393,-4.3393,-4.3393,-4.3428,-4.3444,-4.3479,-4.3479,-4.3582,-4.3631,-4.3664,-4.3716,-4.3781,-4.3897,-4.3961,-4.3992,-4.4067,-4.417,-4.4258,-4.4317,-4.4449,-4.4551,-4.4605,-4.4632,-4.4632,-4.4659,-4.4693,-4.4745,-4.4821,-4.47,-4.4605,-4.4478,-4.4185,-4.3961,-4.3577,-4.0323,-4.0234,-4.0177,-4.006,-3.9958,-3.9892,-3.9848,-3.9785,-3.9758,-3.9665,-3.9532,-3.9551,-3.9477,-3.935,-3.9324,-3.9324,-3.9343,-3.929,-3.9192,-3.9129,-3.8998,-3.9082,-3.9219,-3.9165,-3.9129,-3.9082,-3.8952,-3.8897,-3.8855,-3.8768,-3.8687,-3.864,-3.851,-3.8332,-3.8271,-3.8186,-3.8086,-3.7931,-3.7792,-3.7721,-3.7631,-3.7522,-3.7431,-3.7339,-3.7319,-3.7279,-3.7164,-3.7031,-3.7069,-3.7223,-3.7223,-3.7203,-3.7182,-3.7105,-3.7105,-3.7105,-3.7066,-3.7083,-3.7066,-3.7105,-3.7143,-3.7182,-3.7167,-3.7188,-3.7223,-3.7206,-3.7319,-3.7429,-3.7466,-3.7521,-3.7702,-3.8007,-3.8653,-3.9408,-4.0023,-4.0745,-4.1742,-4.2178,-4.2578,-4.3014,-4.3178,-4.3214,-4.3214,-4.3214,-4.3214,-4.3268,-4.3304,-4.3304,-4.3393,-4.3391,-4.3461,-4.3513,-4.3548,-4.3615,-4.3716,-4.3749,-4.3814,-4.3923,-4.4036,-4.4097,-4.4218,-4.4354,-4.4411,-4.444,-4.4487,-4.4477,-4.4438,-4.4296,-4.403,-4.3924,-4.3894,-4.3599,-4.3171,-4.2988,-4.261,-4.006,-3.9954,-3.987,-3.9781,-3.9647,-3.9575,-3.9526,-3.9477,-3.9433,-3.9376,-3.9272,-3.9245,-3.9165,-3.9055,-3.9027,-3.9027,-3.9045,-3.8942,-3.8873,-3.8755,-3.8664,-3.8646,-3.8815,-3.8844,-3.8803,-3.8725,-3.8608,-3.8566,-3.851,-3.8416,-3.8365,-3.8289,-3.8153,-3.8018,-3.7933,-3.7881,-3.7775,-3.7631,-3.7449,-3.7354,-3.7259,-3.7164,-3.7091,-3.6999,-3.6952,-3.6908,-3.6771,-3.6731,-3.6811,-3.6992,-3.697,-3.6987,-3.6948,-3.6829,-3.6788,-3.6748,-3.6708,-3.6708,-3.6748,-3.6771,-3.6829,-3.693,-3.6978,-3.6981,-3.7013,-3.7013,-3.7108,-3.7203,-3.7259,-3.7347,-3.7671,-3.83,-3.9198,-4.0045,-4.0894,-4.142,-4.1751,-4.2352,-4.29,-4.3012,-4.3123,-4.3142,-4.3123,-4.3142,-4.3123,-4.3013,-4.305,-4.305,-4.3123,-4.316,-4.3178,-4.3251,-4.3304,-4.3356,-4.3444,-4.3513,-4.3615,-4.3716,-4.3832,-4.3929,-4.4036,-4.4128,-4.4226,-4.4255,-4.4237,-4.4117,-4.3951,-4.3727,-4.3324,-4.2968,-4.2827,-4.2358,-4.1897,-4.186,-4.1635,-3.9675,-3.9599,-3.9545,-3.9427,-3.9298,-3.9272,-3.9264,-3.9165,-3.9137,-3.9055,-3.8989,-3.8902,-3.8844,-3.8707,-3.8707,-3.8676,-3.8615,-3.8554,-3.8446,-3.8267,-3.8168,-3.8119,-3.8238,-3.835,-3.8465,-3.8401,-3.8281,-3.8198,-3.8171,-3.8093,-3.8007,-3.7969,-3.7792,-3.7649,-3.7522,-3.7466,-3.7354,-3.7223,-3.7126,-3.7027,-3.6891,-3.6851,-3.6794,-3.6719,-3.6661,-3.6554,-3.6402,-3.636,-3.6335,-3.6461,-3.6609,-3.6708,-3.6626,-3.6585,-3.6544,-3.6444,-3.6402,-3.6444,-3.6527,-3.6568,-3.6626,-3.6708,-3.6713,-3.6788,-3.6806,-3.6788,-3.6829,-3.6908,-3.6926,-3.7233,-3.7954,-3.8828,-3.9633,-4.0441,-4.1262,-4.1861,-4.2055,-4.2404,-4.2652,-4.2727,-4.2727,-4.2747,-4.2747,-4.2804,-4.2747,-4.2747,-4.2747,-4.2804,-4.2824,-4.2938,-4.2975,-4.3031,-4.305,-4.316,-4.3268,-4.3339,-4.3444,-4.3532,-4.3618,-4.3686,-4.3781,-4.3698,-4.3693,-4.3799,-4.3992,-4.3763,-4.3416,-4.2943,-4.2478,-4.2135,-4.1706,-4.1222,-4.0868,-4.0794,-4.0691,-3.9249,-3.9077,-3.9082,-3.9073,-3.9007,-3.8979,-3.8921,-3.8826,-3.8766,-3.8695,-3.8621,-3.8559,-3.8496,-3.8364,-3.8332,-3.83,-3.8234,-3.8153,-3.8018,-3.788,-3.7774,-3.7667,-3.7631,-3.7739,-3.7827,-3.7933,-3.7911,-3.7895,-3.7846,-3.7702,-3.7607,-3.7612,-3.7392,-3.7317,-3.7203,-3.7105,-3.7009,-3.6873,-3.6811,-3.6708,-3.6527,-3.6502,-3.6444,-3.6395,-3.6311,-3.6216,-3.6165,-3.6122,-3.6122,-3.6165,-3.6293,-3.6335,-3.6276,-3.6276,-3.6233,-3.6174,-3.6131,-3.6191,-3.6251,-3.6276,-3.6276,-3.6377,-3.635,-3.6409,-3.6419,-3.6471,-3.6554,-3.6626,-3.6719,-3.7062,-3.7994,-3.8831,-3.9645,-4.0479,-4.1339,-4.1805,-4.1995,-4.2228,-4.249,-4.2512,-4.2591,-4.2609,-4.2609,-4.253,-4.257,-4.2631,-4.2631,-4.2649,-4.2688,-4.2747,-4.2765,-4.2804,-4.288,-4.2938,-4.305,-4.316,-4.3286,-4.3358,-4.3393,-4.3428,-4.3444,-4.3293,-4.3088,-4.3247,-4.342,-4.307,-4.2709,-4.2174,-4.1508,-4.0954,-4.0473,-4.0085,-3.9856,-3.9727,-3.9608,-3.8802,-3.8512,-3.8633,-3.8713,-3.8683,-3.8609,-3.8528,-3.8446,-3.8396,-3.8285,-3.8204,-3.8189,-3.8104,-3.8,-3.7931,-3.7915,-3.7792,-3.7703,-3.7522,-3.7485,-3.7319,-3.7243,-3.7147,-3.7091,-3.7129,-3.7394,-3.747,-3.7488,-3.7466,-3.7309,-3.727,-3.7182,-3.7027,-3.6948,-3.6891,-3.6788,-3.665,-3.655,-3.6485,-3.636,-3.6251,-3.6208,-3.6122,-3.601,-3.597,-3.5926,-3.5878,-3.5844,-3.5905,-3.5888,-3.5888,-3.5888,-3.5888,-3.5975,-3.5915,-3.5932,-3.5915,-3.5932,-3.5993,-3.5975,-3.6019,-3.6019,-3.602,-3.6088,-3.6148,-3.6191,-3.6277,-3.6422,-3.6592,-3.7049,-3.7818,-3.8712,-3.9547,-4.035,-4.1156,-4.1507,-4.1736,-4.1977,-4.2145,-4.2328,-4.2369,-4.2387,-4.2427,-4.2427,-4.245,-4.2512,-4.2512,-4.2512,-4.253,-4.253,-4.253,-4.2609,-4.2631,-4.2709,-4.2824,-4.2902,-4.3032,-4.2923,-4.3032,-4.285,-4.2759,-4.2304,-4.2083,-4.264,-4.2708,-4.2249,-4.1662,-4.0997,-4.0341,-3.974,-3.941,-3.9215,-3.8958,-3.8701,-3.8713,-3.8319,-3.8027,-3.8263,-3.8303,-3.8201,-3.8153,-3.8086,-3.8052,-3.7897,-3.7845,-3.7792,-3.7757,-3.7631,-3.7541,-3.7487,-3.7431,-3.7243,-3.7147,-3.7126,-3.7048,-3.6856,-3.6753,-3.6696,-3.655,-3.6492,-3.6597,-3.6829,-3.7023,-3.7034,-3.6956,-3.6891,-3.6851,-3.6708,-3.6585,-3.6544,-3.6419,-3.6293,-3.6233,-3.6165,-3.6019,-3.5975,-3.5958,-3.5871,-3.5728,-3.5655,-3.5609,-3.5463,-3.5412,-3.5412,-3.5412,-3.5429,-3.5412,-3.5503,-3.5684,-3.5773,-3.5711,-3.5694,-3.5756,-3.5817,-3.58,-3.5905,-3.5993,-3.5993,-3.5975,-3.601,-3.6017,-3.6095,-3.6336,-3.674,-3.7322,-3.8212,-3.8946,-3.9848,-4.066,-4.103,-4.1215,-4.1318,-4.1453,-4.1692,-4.197,-4.203,-4.2115,-4.2139,-4.2139,-4.2121,-4.2163,-4.2163,-4.2145,-4.2187,-4.2228,-4.2246,-4.231,-4.2391,-4.2512,-4.2649,-4.2655,-4.2716,-4.2427,-4.2301,-4.1849,-4.1632,-4.1107,-4.1071,-4.145,-4.1428,-4.0969,-4.0367,-3.9838,-3.9385,-3.8966,-3.8688,-3.8415,-3.8415,-3.8415,-3.8446,-3.7857,-3.7626,-3.7755,-3.7792,-3.7703,-3.765,-3.7577,-3.7541,-3.7431,-3.7374,-3.7281,-3.7223,-3.7147,-3.7091,-3.6974,-3.6834,-3.6713,-3.6673,-3.6632,-3.6591,-3.6468,-3.636,-3.6259,-3.6088,-3.6002,-3.6011,-3.6205,-3.6452,-3.6591,-3.6527,-3.6468,-3.6444,-3.6335,-3.6233,-3.6191,-3.6062,-3.5949,-3.5905,-3.5756,-3.5667,-3.5667,-3.5661,-3.5537,-3.5475,-3.5408,-3.5349,-3.5232,-3.5198,-3.5198,-3.5198,-3.5198,-3.5245,-3.5337,-3.5429,-3.5549,-3.5549,-3.5577,-3.5622,-3.5684,-3.5711,-3.5711,-3.5756,-3.5807,-3.579,-3.5773,-3.5807,-3.5987,-3.6468,-3.6813,-3.7598,-3.8768,-3.9247,-3.9843,-4.0539,-4.0793,-4.0823,-4.0918,-4.1012,-4.1244,-4.1533,-4.1666,-4.1754,-4.1797,-4.1797,-4.1797,-4.1797,-4.1797,-4.1823,-4.1849,-4.1892,-4.1934,-4.1984,-4.2032,-4.205,-4.2024,-4.1912,-4.1938,-4.174,-4.1384,-4.0935,-4.056,-4.0037,-3.9858,-3.9986,-3.9806,-3.9642,-3.9478,-3.9081,-3.8645,-3.8264,-3.8192,-3.8138,-3.8138,-3.8171,-3.8204,-3.7361,-3.7092,-3.7193,-3.7226,-3.7226,-3.7111,-3.7013,-3.6974,-3.6935,-3.6913,-3.6811,-3.6696,-3.6655,-3.6574,-3.6426,-3.6276,-3.6174,-3.6174,-3.6131,-3.6088,-3.6019,-3.5949,-3.5817,-3.5684,-3.5549,-3.5453,-3.5504,-3.5735,-3.6088,-3.6104,-3.6061,-3.6053,-3.5932,-3.5888,-3.5827,-3.5756,-3.5639,-3.5487,-3.5396,-3.5321,-3.5241,-3.5232,-3.5199,-3.5182,-3.5143,-3.5112,-3.4916,-3.4899,-3.4899,-3.4883,-3.4947,-3.4994,-3.5088,-3.5152,-3.5245,-3.5337,-3.5458,-3.5532,-3.5532,-3.5532,-3.5532,-3.5549,-3.5515,-3.5515,-3.5532,-3.5661,-3.591,-3.669,-3.7194,-3.7814,-3.8938,-3.9464,-3.9839,-4.0263,-4.0485,-4.0534,-4.0631,-4.0728,-4.0793,-4.1012,-4.1244,-4.1363,-4.1453,-4.1515,-4.1515,-4.1515,-4.1515,-4.1498,-4.1525,-4.1587,-4.1657,-4.1648,-4.1647,-4.1598,-4.1381,-4.089,-4.0806,-4.0669,-4.021,-3.9715,-3.9358,-3.9002,-3.8897,-3.8719,-3.8631,-3.8527,-3.8402,-3.8403,-3.8151,-3.7935,-3.7864,-3.7846,-3.7863,-3.7898,-3.7933,-3.6591,-3.6411,-3.6626,-3.6696,-3.6696,-3.6591,-3.6568,-3.6527,-3.6426,-3.6326,-3.6224,-3.6182,-3.6071,-3.5915,-3.58,-3.5711,-3.565,-3.565,-3.5605,-3.5515,-3.5458,-3.5367,-3.5228,-3.5088,-3.5041,-3.4961,-3.4991,-3.5224,-3.5549,-3.5638,-3.5667,-3.5639,-3.5532,-3.547,-3.547,-3.5412,-3.5291,-3.5198,-3.5135,-3.5041,-3.4961,-3.4905,-3.4875,-3.4818,-3.4741,-3.466,-3.4464,-3.4448,-3.4448,-3.4431,-3.4399,-3.4448,-3.4594,-3.4707,-3.4756,-3.4899,-3.5088,-3.5337,-3.5337,-3.5321,-3.5321,-3.5367,-3.5333,-3.5333,-3.54,-3.5564,-3.6004,-3.6705,-3.7394,-3.8173,-3.9054,-3.9613,-4.0018,-4.017,-4.0288,-4.0337,-4.0419,-4.0387,-4.0436,-4.0534,-4.0758,-4.0977,-4.1117,-4.1163,-4.1255,-4.1255,-4.1255,-4.1255,-4.1185,-4.1115,-4.1119,-4.1059,-4.0745,-4.0604,-4.0443,-3.9993,-3.9717,-3.9517,-3.9053,-3.8528,-3.8298,-3.8072,-3.7718,-3.7559,-3.7544,-3.7618,-3.7731,-3.7717,-3.763,-3.7594,-3.7558,-3.7594,-3.7649,-3.7649,-3.7613,-3.5603,-3.5916,-3.6088,-3.6156,-3.6114,-3.6062,-3.5915,-3.5871,-3.5827,-3.5722,-3.5571,-3.5543,-3.5407,-3.5287,-3.5211,-3.5165,-3.5118,-3.5118,-3.5024,-3.4913,-3.4835,-3.4787,-3.4643,-3.4594,-3.4546,-3.4448,-3.4448,-3.448,-3.4772,-3.5046,-3.5221,-3.5182,-3.5165,-3.5118,-3.5102,-3.5041,-3.4899,-3.4739,-3.4594,-3.4497,-3.4464,-3.4446,-3.4397,-3.4349,-3.4347,-3.4214,-3.4133,-3.405,-3.4101,-3.4034,-3.405,-3.4134,-3.425,-3.4349,-3.4349,-3.4415,-3.4497,-3.4739,-3.4994,-3.5152,-3.5152,-3.5182,-3.5228,-3.5325,-3.5382,-3.576,-3.629,-3.711,-3.7898,-3.8605,-3.9194,-3.9665,-3.98,-3.9935,-4.0037,-4.0037,-4.007,-4.002,-4.007,-4.0171,-4.0271,-4.05,-4.0693,-4.0741,-4.0789,-4.0836,-4.0819,-4.0754,-4.0595,-4.0383,-4.0326,-4.0342,-3.9867,-3.939,-3.9199,-3.8893,-3.8569,-3.8349,-3.7918,-3.7504,-3.7399,-3.7136,-3.6943,-3.6908,-3.7013,-3.7075,-3.7105,-3.7182,-3.7259,-3.7297,-3.7259,-3.7279,-3.7317,-3.7279,-3.7241,-3.4624,-3.516,-3.5386,-3.5453,-3.5453,-3.5379,-3.5287,-3.5178,-3.5195,-3.5085,-3.4961,-3.4883,-3.4804,-3.4756,-3.4707,-3.4643,-3.4497,-3.4497,-3.4399,-3.43,-3.425,-3.4151,-3.405,-3.405,-3.4,-3.3915,-3.3899,-3.3949,-3.4032,-3.4282,-3.453,-3.4707,-3.4691,-3.4691,-3.4643,-3.4594,-3.4448,-3.43,-3.405,-3.3949,-3.3917,-3.3922,-3.3905,-3.3899,-3.389,-3.3834,-3.3742,-3.371,-3.3694,-3.3694,-3.3642,-3.3694,-3.3848,-3.3848,-3.3899,-3.3899,-3.3933,-3.4151,-3.4448,-3.4659,-3.4899,-3.4994,-3.5058,-3.5044,-3.5195,-3.5823,-3.6601,-3.7252,-3.797,-3.8721,-3.9408,-3.9677,-3.9729,-3.9729,-3.9729,-3.9729,-3.9677,-3.9713,-3.9816,-3.9918,-4.0037,-4.0037,-4.0171,-4.0271,-4.032,-4.037,-4.0353,-4.0268,-3.9924,-3.9576,-3.938,-3.9284,-3.8791,-3.8318,-3.8112,-3.7871,-3.7551,-3.7299,-3.6873,-3.6665,-3.6724,-3.6707,-3.6643,-3.6585,-3.662,-3.6561,-3.6609,-3.6771,-3.6908,-3.6948,-3.6987,-3.6948,-3.6948,-3.6891,-3.6891,-3.3781,-3.3882,-3.4382,-3.4594,-3.4594,-3.4578,-3.4594,-3.4529,-3.4546,-3.448,-3.4333,-3.425,-3.4201,-3.4151,-3.4151,-3.4101,-3.3949,-3.3965,-3.3797,-3.3642,-3.3555,-3.3503,-3.3435,-3.3382,-3.3346,-3.3346,-3.333,-3.3346,-3.3346,-3.3398,-3.3761,-3.4101,-3.4101,-3.4151,-3.4151,-3.4084,-3.3933,-3.3745,-3.3487,-3.3382,-3.3335,-3.336,-3.3344,-3.3346,-3.3345,-3.3285,-3.3165,-3.3134,-3.3187,-3.3171,-3.3187,-3.324,-3.333,-3.3382,-3.3382,-3.345,-3.3503,-3.3607,-3.3797,-3.4151,-3.4399,-3.4497,-3.4546,-3.4643,-3.4742,-3.5482,-3.6241,-3.7102,-3.7864,-3.8595,-3.9199,-3.9501,-3.9484,-3.9468,-3.9451,-3.9468,-3.9468,-3.9504,-3.9609,-3.9677,-3.9645,-3.9495,-3.9293,-3.9295,-3.9581,-3.9681,-3.946,-3.9376,-3.9001,-3.8608,-3.8316,-3.8069,-3.7553,-3.7222,-3.712,-3.6857,-3.6576,-3.656,-3.6363,-3.626,-3.6285,-3.6251,-3.6318,-3.6335,-3.6293,-3.6208,-3.6165,-3.6402,-3.6568,-3.6684,-3.6684,-3.6626,-3.6626,-3.6609,-3.6626,-3.2873,-3.2942,-3.3124,-3.3507,-3.3984,-3.4,-3.3949,-3.3899,-3.3899,-3.3797,-3.371,-3.3658,-3.3607,-3.3591,-3.3591,-3.3471,-3.3245,-3.3245,-3.3033,-3.2873,-3.278,-3.2796,-3.2726,-3.2726,-3.2726,-3.2726,-3.2742,-3.2742,-3.2726,-3.2726,-3.2834,-3.3087,-3.3366,-3.3591,-3.3591,-3.3539,-3.3366,-3.3193,-3.2996,-3.2819,-3.278,-3.2749,-3.2772,-3.2742,-3.2757,-3.2717,-3.2648,-3.2687,-3.2687,-3.2687,-3.2687,-3.2742,-3.285,-3.2904,-3.292,-3.2989,-3.3096,-3.315,-3.3293,-3.3694,-3.4101,-3.4201,-3.425,-3.4299,-3.4412,-3.5442,-3.6165,-3.6973,-3.7814,-3.8656,-3.8891,-3.9094,-3.9077,-3.9131,-3.9135,-3.9119,-3.8987,-3.8924,-3.8924,-3.8844,-3.8695,-3.8546,-3.8347,-3.8183,-3.8571,-3.8925,-3.869,-3.842,-3.795,-3.7545,-3.7222,-3.7,-3.6557,-3.6282,-3.618,-3.5938,-3.565,-3.5756,-3.5861,-3.5905,-3.5949,-3.6079,-3.6105,-3.6079,-3.6036,-3.5975,-3.6019,-3.6148,-3.6276,-3.6335,-3.6335,-3.6251,-3.6251,-3.6335,-3.6335,-3.1992,-3.2048,-3.2064,-3.2547,-3.3277,-3.3314,-3.3277,-3.3171,-3.3171,-3.3118,-3.3027,-3.3011,-3.3027,-3.3027,-3.3011,-3.2888,-3.2711,-3.2656,-3.2508,-3.2398,-3.2358,-3.2302,-3.2287,-3.2231,-3.2231,-3.2176,-3.212,-3.2104,-3.2104,-3.2104,-3.216,-3.2327,-3.2492,-3.2711,-3.3011,-3.2935,-3.2742,-3.2602,-3.2492,-3.2398,-3.2302,-3.2318,-3.2302,-3.2318,-3.2298,-3.2298,-3.2318,-3.2272,-3.2272,-3.2302,-3.2302,-3.2358,-3.2398,-3.2453,-3.2539,-3.2609,-3.2664,-3.2718,-3.292,-3.3346,-3.3761,-3.3797,-3.3848,-3.3861,-3.4298,-3.5303,-3.6088,-3.6405,-3.7562,-3.8511,-3.8551,-3.8567,-3.8394,-3.839,-3.8259,-3.8231,-3.792,-3.7756,-3.7855,-3.7925,-3.7728,-3.7465,-3.7255,-3.7042,-3.7246,-3.7534,-3.7336,-3.7053,-3.6854,-3.6388,-3.6002,-3.5785,-3.5599,-3.5412,-3.5274,-3.5304,-3.5379,-3.5441,-3.5549,-3.5594,-3.5667,-3.5756,-3.58,-3.5728,-3.5728,-3.5756,-3.5756,-3.5756,-3.5888,-3.6019,-3.6019,-3.6019,-3.6079,-3.6165,-3.6122,-3.1146,-3.1351,-3.1336,-3.1724,-3.2382,-3.2453,-3.2453,-3.2453,-3.2437,-3.2453,-3.2382,-3.2398,-3.2398,-3.2398,-3.2398,-3.2287,-3.2176,-3.212,-3.2079,-3.1981,-3.1925,-3.1981,-3.191,-3.1796,-3.1682,-3.1667,-3.161,-3.148,-3.1537,-3.1537,-3.1552,-3.1537,-3.1652,-3.1921,-3.2342,-3.2302,-3.2247,-3.2206,-3.2038,-3.1981,-3.194,-3.1928,-3.1898,-3.1898,-3.1928,-3.1913,-3.1925,-3.1879,-3.1879,-3.191,-3.1898,-3.1955,-3.1981,-3.2023,-3.2038,-3.2094,-3.2206,-3.2262,-3.2302,-3.292,-3.3187,-3.3346,-3.3346,-3.3493,-3.381,-3.4759,-3.5808,-3.611,-3.7094,-3.7825,-3.801,-3.7955,-3.7648,-3.7446,-3.73,-3.7155,-3.6847,-3.6702,-3.6815,-3.6853,-3.6599,-3.6291,-3.6048,-3.589,-3.5978,-3.5999,-3.5889,-3.5743,-3.5662,-3.5449,-3.5053,-3.5003,-3.4936,-3.4918,-3.4883,-3.5024,-3.5088,-3.5135,-3.5182,-3.5258,-3.5321,-3.535,-3.5367,-3.5337,-3.5383,-3.5412,-3.5367,-3.5337,-3.5458,-3.5622,-3.5844,-3.5888,-3.5932,-3.5949,-3.5861,-3.0493,-3.0628,-3.0628,-3.0851,-3.1263,-3.1652,-3.1823,-3.1807,-3.1823,-3.1823,-3.1781,-3.1724,-3.1682,-3.1682,-3.1682,-3.161,-3.1437,-3.1567,-3.1524,-3.1409,-3.1409,-3.1424,-3.1351,-3.1234,-3.1117,-3.1058,-3.0984,-3.0911,-3.0911,-3.0984,-3.0955,-3.0925,-3.1087,-3.1263,-3.1667,-3.1724,-3.1724,-3.1625,-3.1509,-3.1467,-3.1453,-3.144,-3.1455,-3.1483,-3.1498,-3.1483,-3.1424,-3.1437,-3.1452,-3.1482,-3.1453,-3.1511,-3.1582,-3.1625,-3.1682,-3.1811,-3.1925,-3.2038,-3.2094,-3.2373,-3.2578,-3.2788,-3.3013,-3.3271,-3.3811,-3.4643,-3.5417,-3.5963,-3.6558,-3.7054,-3.6937,-3.6517,-3.6135,-3.6127,-3.6015,-3.5999,-3.584,-3.5808,-3.5824,-3.5806,-3.562,-3.5064,-3.4679,-3.4743,-3.4796,-3.482,-3.4746,-3.4769,-3.4689,-3.4624,-3.4398,-3.4447,-3.4448,-3.4464,-3.4546,-3.4643,-3.4691,-3.4691,-3.4787,-3.4883,-3.493,-3.493,-3.4977,-3.4994,-3.4994,-3.5058,-3.4994,-3.4947,-3.5088,-3.5211,-3.5333,-3.5487,-3.5549,-3.5549,-3.552,-2.9699,-2.9884,-2.9884,-3.0021,-3.0326,-3.0911,-3.1204,-3.1204,-3.1204,-3.1146,-3.1087,-3.097,-3.0925,-3.0911,-3.0911,-3.0925,-3.0792,-3.0984,-3.1043,-3.094,-3.0955,-3.0955,-3.0881,-3.0717,-3.0568,-3.0522,-3.0355,-3.028,-3.0294,-3.051,-3.0707,-3.0922,-3.085,-3.1228,-3.1433,-3.1498,-3.1619,-3.1707,-3.1823,-3.1793,-3.1733,-3.1613,-3.1496,-3.141,-3.1292,-3.1219,-3.1087,-3.1014,-3.1014,-3.1102,-3.1102,-3.1161,-3.1249,-3.1292,-3.1394,-3.1524,-3.1822,-3.1955,-3.203,-3.2434,-3.2728,-3.2886,-3.288,-3.3264,-3.3939,-3.4767,-3.526,-3.5783,-3.6182,-3.6225,-3.6068,-3.5488,-3.5263,-3.5216,-3.4879,-3.4864,-3.4573,-3.451,-3.451,-3.4525,-3.4485,-3.3905,-3.3541,-3.3541,-3.3636,-3.3646,-3.3587,-3.3745,-3.3882,-3.3899,-3.3899,-3.3949,-3.4,-3.405,-3.4151,-3.4201,-3.425,-3.43,-3.4399,-3.4448,-3.4497,-3.4546,-3.4594,-3.4643,-3.4594,-3.4546,-3.4594,-3.4594,-3.4643,-3.4643,-3.4723,-3.4883,-3.5105,-3.5152,-3.5152,-2.878,-2.9035,-2.9035,-2.9289,-2.9665,-3.0205,-3.0507,-3.0582,-3.0582,-3.0447,-3.0251,-3.0251,-3.019,-3.0129,-3.019,-3.0251,-3.0251,-3.0447,-3.0507,-3.0507,-3.0462,-3.0522,-3.043,-3.0291,-3.0192,-3.0026,-2.9973,-3.0024,-2.9785,-3.0205,-3.0751,-3.1096,-3.104,-3.1176,-3.1338,-3.1447,-3.1651,-3.1844,-3.1951,-3.1936,-3.1858,-3.2066,-3.1826,-3.1594,-3.1449,-3.1355,-3.1168,-3.0981,-3.0982,-3.1013,-3.1057,-3.1028,-3.1058,-3.1087,-3.1073,-3.1279,-3.1736,-3.2047,-3.218,-3.2702,-3.3106,-3.32,-3.3156,-3.356,-3.4044,-3.4728,-3.5125,-3.5538,-3.583,-3.5767,-3.5582,-3.5151,-3.4793,-3.4403,-3.3872,-3.3572,-3.3146,-3.3076,-3.3092,-3.3131,-3.3162,-3.2966,-3.2966,-3.292,-3.2973,-3.2973,-3.3065,-3.3156,-3.3366,-3.3539,-3.3539,-3.3591,-3.3591,-3.3642,-3.3745,-3.3797,-3.3848,-3.3899,-3.3949,-3.4,-3.405,-3.405,-3.405,-3.4101,-3.4101,-3.4101,-3.405,-3.405,-3.4101,-3.4101,-3.4151,-3.4399,-3.4659,-3.4756,-3.4804,-2.7987,-2.83,-2.8287,-2.8573,-2.8908,-2.9099,-2.9463,-2.9837,-2.9913,-2.9761,-2.956,-2.9449,-2.9387,-2.9184,-2.9401,-2.9463,-2.9588,-2.9713,-2.9837,-2.9941,-3.0083,-2.9969,-2.9959,-2.9961,-2.9945,-2.9975,-3.0024,-2.9989,-3.0083,-3.0362,-3.0419,-3.0528,-3.0884,-3.0966,-3.1172,-3.1282,-3.1509,-3.1716,-3.1811,-3.1877,-3.19,-3.1994,-3.1825,-3.1704,-3.1704,-3.1567,-3.1415,-3.1056,-3.1046,-3.1017,-3.0614,-3.0413,-3.0369,-3.0491,-3.0669,-3.1401,-3.1988,-3.2537,-3.2566,-3.2838,-3.3225,-3.3608,-3.3636,-3.3868,-3.4265,-3.46,-3.4964,-3.5301,-3.5379,-3.5275,-3.5079,-3.4699,-3.4272,-3.3768,-3.3322,-3.294,-3.2609,-3.2379,-3.2364,-3.2428,-3.2428,-3.2484,-3.2468,-3.2468,-3.2508,-3.2523,-3.2578,-3.2672,-3.278,-3.3011,-3.3171,-3.3171,-3.3224,-3.3224,-3.3293,-3.3346,-3.345,-3.3503,-3.3539,-3.3539,-3.3539,-3.3539,-3.3539,-3.3539,-3.3523,-3.3539,-3.3539,-3.3539,-3.3523,-3.3555,-3.3607,-3.3848,-3.4151,-3.425,-3.43,-2.7297,-2.7564,-2.763,-2.7842,-2.8118,-2.8183,-2.8457,-2.8766,-2.9099,-2.9085,-2.8931,-2.8817,-2.8702,-2.856,-2.8702,-2.883,-2.8844,-2.9325,-2.955,-2.9592,-2.9716,-2.9924,-2.9945,-2.991,-2.9941,-3.0038,-2.9998,-2.9998,-3.0174,-3.0443,-3.0516,-3.0882,-3.0801,-3.0989,-3.129,-3.1415,-3.1436,-3.1597,-3.1682,-3.175,-3.1845,-3.1886,-3.1935,-3.1773,-3.1871,-3.1801,-3.1641,-3.1194,-3.1118,-3.1154,-3.0687,-3.0602,-3.0679,-3.082,-3.0974,-3.1674,-3.2291,-3.2674,-3.284,-3.3195,-3.3551,-3.3835,-3.3951,-3.4017,-3.42,-3.4499,-3.4872,-3.52,-3.4961,-3.4771,-3.4505,-3.4222,-3.3667,-3.3186,-3.284,-3.2583,-3.2236,-3.1977,-3.1913,-3.191,-3.1951,-3.2007,-3.2048,-3.2048,-3.2064,-3.2007,-3.2007,-3.2048,-3.2231,-3.2523,-3.2672,-3.2726,-3.2796,-3.2796,-3.2866,-3.292,-3.2904,-3.2958,-3.2996,-3.2996,-3.3011,-3.3011,-3.2996,-3.2996,-3.2942,-3.2942,-3.2942,-3.2942,-3.2942,-3.2958,-3.2973,-3.3102,-3.3351,-3.3575,-3.3694,-2.6552,-2.6905,-2.6973,-2.7108,-2.739,-2.739,-2.7456,-2.7456,-2.8118,-2.8379,-2.8235,-2.8222,-2.8118,-2.8013,-2.8252,-2.8344,-2.8597,-2.9053,-2.9376,-2.9376,-2.9713,-2.9929,-2.9915,-3.0046,-2.992,-2.9961,-3.0011,-3.0069,-3.0067,-3.0312,-3.0818,-3.1495,-3.1315,-3.1201,-3.1188,-3.1214,-3.1182,-3.1263,-3.16,-3.1901,-3.214,-3.2382,-3.24,-3.1917,-3.1764,-3.1681,-3.1364,-3.1171,-3.1165,-3.1299,-3.1254,-3.1184,-3.1274,-3.1467,-3.1575,-3.1933,-3.244,-3.2748,-3.3001,-3.3325,-3.3568,-3.3768,-3.3882,-3.3822,-3.3941,-3.4278,-3.4662,-3.4743,-3.4604,-3.4551,-3.4351,-3.4203,-3.3868,-3.3351,-3.3013,-3.2524,-3.205,-3.1723,-3.1366,-3.1379,-3.1364,-3.1422,-3.1422,-3.1422,-3.1422,-3.1437,-3.1437,-3.1422,-3.1552,-3.1894,-3.2064,-3.216,-3.2287,-3.2287,-3.2342,-3.2398,-3.2398,-3.2453,-3.2508,-3.2563,-3.2578,-3.2563,-3.2492,-3.2437,-3.2398,-3.2327,-3.2327,-3.2327,-3.2342,-3.2342,-3.2342,-3.2327,-3.2547,-3.2834,-3.3049,-2.5816,-2.6176,-2.6427,-2.6633,-2.6701,-2.6701,-2.6633,-2.6701,-2.6837,-2.7175,-2.7469,-2.7523,-2.7496,-2.7439,-2.7913,-2.8098,-2.8363,-2.8921,-2.9171,-2.9333,-2.9583,-2.9768,-2.9618,-2.9902,-2.9862,-2.9986,-3.0082,-3.0238,-3.0259,-3.0433,-3.054,-3.0722,-3.0748,-3.0836,-3.0836,-3.0823,-3.0823,-3.0898,-3.1048,-3.1482,-3.1763,-3.1923,-3.1992,-3.1901,-3.1888,-3.1911,-3.1639,-3.1398,-3.1278,-3.1211,-3.0897,-3.0868,-3.1029,-3.1473,-3.1763,-3.1902,-3.2444,-3.2807,-3.3002,-3.3213,-3.3395,-3.3423,-3.3423,-3.3437,-3.3563,-3.3937,-3.4157,-3.4264,-3.4288,-3.4269,-3.4249,-3.4147,-3.4068,-3.3573,-3.3077,-3.2484,-3.1827,-3.1377,-3.0894,-3.0792,-3.0792,-3.0792,-3.0792,-3.0792,-3.0792,-3.0792,-3.0792,-3.0792,-3.0807,-3.1043,-3.1263,-3.1422,-3.1652,-3.1724,-3.1781,-3.1838,-3.1894,-3.1966,-3.2079,-3.2135,-3.2135,-3.2135,-3.2064,-3.1951,-3.1838,-3.1838,-3.1766,-3.1709,-3.1724,-3.1724,-3.1709,-3.1709,-3.1709,-3.1936,-3.2216,-2.5111,-2.5382,-2.5791,-2.5943,-2.5943,-2.5931,-2.5931,-2.5931,-2.6,-2.622,-2.6577,-2.6794,-2.6977,-2.7181,-2.7646,-2.8145,-2.8338,-2.9008,-2.9274,-2.9365,-2.9546,-2.9839,-2.9895,-2.9838,-3.0041,-3.0173,-3.0277,-3.0343,-3.0292,-3.0394,-3.0381,-3.0381,-3.0368,-3.0368,-3.0368,-3.0368,-3.0368,-3.0444,-3.0533,-3.0748,-3.1185,-3.1421,-3.1616,-3.1649,-3.1763,-3.1823,-3.1797,-3.1548,-3.1487,-3.1352,-3.124,-3.1216,-3.1314,-3.1659,-3.1853,-3.1935,-3.2283,-3.2632,-3.2704,-3.2846,-3.2917,-3.2988,-3.2988,-3.2988,-3.3058,-3.3353,-3.3493,-3.3618,-3.377,-3.3754,-3.3754,-3.3682,-3.3654,-3.3354,-3.2797,-3.2182,-3.1468,-3.0902,-3.0459,-3.0144,-3.0144,-3.0144,-3.0144,-3.0144,-3.0144,-3.0144,-3.0144,-3.0144,-3.0158,-3.0219,-3.0447,-3.0613,-3.0837,-3.1087,-3.1278,-3.1336,-3.1336,-3.1524,-3.164,-3.1682,-3.1682,-3.1682,-3.164,-3.1509,-3.1336,-3.1278,-3.1219,-3.1204,-3.1146,-3.1087,-3.1087,-3.1087,-3.1146,-3.1146,-3.1379,-2.4467,-2.4647,-2.5016,-2.517,-2.517,-2.517,-2.517,-2.5241,-2.5382,-2.5525,-2.5752,-2.6091,-2.6702,-2.7188,-2.7637,-2.8109,-2.8527,-2.9073,-2.9363,-2.9529,-2.9821,-2.9808,-2.9885,-3.005,-3.0025,-2.9948,-3.0062,-3.0075,-3.0062,-3.01,-3.01,-3.0216,-3.0279,-3.0279,-3.0292,-3.0292,-3.0305,-3.0228,-3.0318,-3.033,-3.0559,-3.0849,-3.1071,-3.1206,-3.132,-3.1439,-3.1418,-3.1479,-3.1447,-3.1468,-3.1362,-3.1456,-3.1502,-3.1702,-3.1729,-3.1869,-3.1928,-3.2141,-3.2214,-3.2286,-3.2431,-3.2503,-3.2561,-3.2561,-3.2561,-3.2632,-3.2846,-3.2917,-3.3058,-3.3199,-3.3269,-3.3269,-3.3241,-3.3059,-3.2498,-3.2008,-3.1307,-3.0563,-3.0087,-2.968,-2.9596,-2.9596,-2.954,-2.954,-2.954,-2.954,-2.954,-2.954,-2.954,-2.9665,-2.9775,-2.9946,-3.0068,-3.0312,-3.0628,-3.0747,-3.0807,-3.1058,-3.1176,-3.1234,-3.1219,-3.1219,-3.1161,-3.0999,-3.0881,-3.0807,-3.0702,-3.0687,-3.0568,-3.0568,-3.0568,-3.0628,-3.0628,-3.0628,-3.0582,-2.3751,-2.4116,-2.4334,-2.4406,-2.4394,-2.4394,-2.4467,-2.4634,-2.4718,-2.4989,-2.5429,-2.567,-2.613,-2.6927,-2.7841,-2.8325,-2.8411,-2.8919,-2.913,-2.9279,-2.9369,-2.9419,-2.9443,-2.9521,-2.9353,-2.9353,-2.9431,-2.9419,-2.9509,-2.9468,-2.9403,-2.9431,-2.9574,-2.9651,-2.9664,-2.9754,-2.9921,-2.9921,-2.9921,-2.9934,-3.0011,-3.0279,-3.0506,-3.0568,-3.0594,-3.0583,-3.0622,-3.0609,-3.0761,-3.0911,-3.1123,-3.136,-3.1447,-3.1522,-3.1522,-3.1522,-3.1582,-3.173,-3.1803,-3.179,-3.1936,-3.195,-3.1936,-3.195,-3.195,-3.195,-3.2082,-3.2155,-3.2359,-3.2717,-3.2789,-3.2789,-3.2761,-3.2609,-3.2151,-3.1875,-3.1392,-3.0604,-2.9941,-2.9596,-2.9334,-2.9301,-2.9162,-2.9162,-2.9162,-2.9162,-2.9099,-2.9099,-2.9113,-2.9162,-2.9204,-2.9267,-2.9394,-2.9699,-3.0129,-3.0176,-3.0297,-3.0568,-3.0702,-3.0702,-3.0687,-3.0747,-3.0628,-3.0522,-3.0462,-3.0326,-3.028,-3.0144,-3.0158,-3.0097,-3.0172,-3.0233,-3.0172,-3.0158,-3.0097]}]]